<?xml version="1.0" encoding="UTF-8" standalone="no" ?>
<gpx xmlns="http://www.topografix.com/GPX/1/1" xmlns:xsi="http://www.w3.org/2001/XMLSchema-instance" xsi:schemaLocation="http://www.topografix.com/GPX/1/1 http://www.topografix.com/GPX/1/1/gpx.xsd" version="1.1" creator="VisuGPX - https://www.visugpx.com">
  <metadata>
    <name>HRP2023-J06</name>
  </metadata>
  <trk>
    <name><![CDATA[HRP2023-J06]]></name>
    <extensions>
      <line xmlns="http://www.topografix.com/GPX/gpx_style/0/2">
        <color>0000FF</color>
        <width>4</width>
      </line>
    </extensions>
    <trkseg>
      <trkpt lat="42.42596" lon="2.13782">
        <ele>2340.3999023438</ele>
        <time>2023-07-18T04:51:21.000Z</time>
      </trkpt>
      <trkpt lat="42.42598" lon="2.13782">
        <ele>2340</ele>
        <time>2023-07-18T04:51:30.000Z</time>
      </trkpt>
      <trkpt lat="42.426" lon="2.13773">
        <ele>2340</ele>
        <time>2023-07-18T04:51:37.000Z</time>
      </trkpt>
      <trkpt lat="42.42601" lon="2.13766">
        <ele>2340.1999511719</ele>
        <time>2023-07-18T04:51:43.000Z</time>
      </trkpt>
      <trkpt lat="42.42602" lon="2.13758">
        <ele>2340.3999023438</ele>
        <time>2023-07-18T04:51:50.000Z</time>
      </trkpt>
      <trkpt lat="42.42611" lon="2.13733">
        <ele>2339.8000488281</ele>
        <time>2023-07-18T04:51:57.000Z</time>
      </trkpt>
      <trkpt lat="42.42616" lon="2.13726">
        <ele>2339.1999511719</ele>
        <time>2023-07-18T04:52:03.000Z</time>
      </trkpt>
      <trkpt lat="42.42618" lon="2.13725">
        <ele>2339</ele>
        <time>2023-07-18T04:52:05.000Z</time>
      </trkpt>
      <trkpt lat="42.42622" lon="2.13716">
        <ele>2339.1999511719</ele>
        <time>2023-07-18T04:52:13.000Z</time>
      </trkpt>
      <trkpt lat="42.42629" lon="2.13704">
        <ele>2339</ele>
        <time>2023-07-18T04:52:22.000Z</time>
      </trkpt>
      <trkpt lat="42.42635" lon="2.13697">
        <ele>2338.8000488281</ele>
        <time>2023-07-18T04:52:30.000Z</time>
      </trkpt>
      <trkpt lat="42.42644" lon="2.13683">
        <ele>2338.6000976562</ele>
        <time>2023-07-18T04:52:42.000Z</time>
      </trkpt>
      <trkpt lat="42.42646" lon="2.13675">
        <ele>2338</ele>
        <time>2023-07-18T04:52:48.000Z</time>
      </trkpt>
      <trkpt lat="42.42647" lon="2.13671">
        <ele>2337.8000488281</ele>
        <time>2023-07-18T04:52:50.000Z</time>
      </trkpt>
      <trkpt lat="42.42652" lon="2.13659">
        <ele>2337.3999023438</ele>
        <time>2023-07-18T04:52:59.000Z</time>
      </trkpt>
      <trkpt lat="42.42654" lon="2.13651">
        <ele>2337</ele>
        <time>2023-07-18T04:53:04.000Z</time>
      </trkpt>
      <trkpt lat="42.42655" lon="2.13646">
        <ele>2336.8000488281</ele>
        <time>2023-07-18T04:53:08.000Z</time>
      </trkpt>
      <trkpt lat="42.4266" lon="2.13634">
        <ele>2336</ele>
        <time>2023-07-18T04:53:18.000Z</time>
      </trkpt>
      <trkpt lat="42.42665" lon="2.13629">
        <ele>2336</ele>
        <time>2023-07-18T04:53:22.000Z</time>
      </trkpt>
      <trkpt lat="42.4267" lon="2.13626">
        <ele>2336</ele>
        <time>2023-07-18T04:53:26.000Z</time>
      </trkpt>
      <trkpt lat="42.42678" lon="2.13619">
        <ele>2336</ele>
        <time>2023-07-18T04:53:34.000Z</time>
      </trkpt>
      <trkpt lat="42.4268" lon="2.13612">
        <ele>2334.8000488281</ele>
        <time>2023-07-18T04:53:41.000Z</time>
      </trkpt>
      <trkpt lat="42.42681" lon="2.13608">
        <ele>2334.1999511719</ele>
        <time>2023-07-18T04:53:44.000Z</time>
      </trkpt>
      <trkpt lat="42.42683" lon="2.13602">
        <ele>2333.8000488281</ele>
        <time>2023-07-18T04:53:48.000Z</time>
      </trkpt>
      <trkpt lat="42.42684" lon="2.13598">
        <ele>2333.6000976562</ele>
        <time>2023-07-18T04:53:51.000Z</time>
      </trkpt>
      <trkpt lat="42.42688" lon="2.13585">
        <ele>2332.8000488281</ele>
        <time>2023-07-18T04:54:00.000Z</time>
      </trkpt>
      <trkpt lat="42.42689" lon="2.13582">
        <ele>2332.6000976562</ele>
        <time>2023-07-18T04:54:02.000Z</time>
      </trkpt>
      <trkpt lat="42.42694" lon="2.13571">
        <ele>2332.1999511719</ele>
        <time>2023-07-18T04:54:10.000Z</time>
      </trkpt>
      <trkpt lat="42.42696" lon="2.13563">
        <ele>2331.8000488281</ele>
        <time>2023-07-18T04:54:15.000Z</time>
      </trkpt>
      <trkpt lat="42.42697" lon="2.13558">
        <ele>2331.1999511719</ele>
        <time>2023-07-18T04:54:19.000Z</time>
      </trkpt>
      <trkpt lat="42.42698" lon="2.13553">
        <ele>2330.6000976562</ele>
        <time>2023-07-18T04:54:22.000Z</time>
      </trkpt>
      <trkpt lat="42.427" lon="2.13547">
        <ele>2330.3999023438</ele>
        <time>2023-07-18T04:54:27.000Z</time>
      </trkpt>
      <trkpt lat="42.42708" lon="2.13533">
        <ele>2329.8000488281</ele>
        <time>2023-07-18T04:54:37.000Z</time>
      </trkpt>
      <trkpt lat="42.4271" lon="2.1353">
        <ele>2329.6000976562</ele>
        <time>2023-07-18T04:54:40.000Z</time>
      </trkpt>
      <trkpt lat="42.42712" lon="2.13525">
        <ele>2329.3999023438</ele>
        <time>2023-07-18T04:54:45.000Z</time>
      </trkpt>
      <trkpt lat="42.42718" lon="2.13511">
        <ele>2329.1999511719</ele>
        <time>2023-07-18T04:54:53.000Z</time>
      </trkpt>
      <trkpt lat="42.4272" lon="2.13504">
        <ele>2329</ele>
        <time>2023-07-18T04:54:59.000Z</time>
      </trkpt>
      <trkpt lat="42.42723" lon="2.13493">
        <ele>2328.6000976562</ele>
        <time>2023-07-18T04:55:08.000Z</time>
      </trkpt>
      <trkpt lat="42.42728" lon="2.13482">
        <ele>2327.6000976562</ele>
        <time>2023-07-18T04:55:18.000Z</time>
      </trkpt>
      <trkpt lat="42.42732" lon="2.13474">
        <ele>2326.8000488281</ele>
        <time>2023-07-18T04:55:25.000Z</time>
      </trkpt>
      <trkpt lat="42.42733" lon="2.1347">
        <ele>2326.3999023438</ele>
        <time>2023-07-18T04:55:28.000Z</time>
      </trkpt>
      <trkpt lat="42.42735" lon="2.13463">
        <ele>2325.6000976562</ele>
        <time>2023-07-18T04:55:33.000Z</time>
      </trkpt>
      <trkpt lat="42.42736" lon="2.13461">
        <ele>2325.3999023438</ele>
        <time>2023-07-18T04:55:35.000Z</time>
      </trkpt>
      <trkpt lat="42.42739" lon="2.13453">
        <ele>2324.8000488281</ele>
        <time>2023-07-18T04:55:40.000Z</time>
      </trkpt>
      <trkpt lat="42.42741" lon="2.13449">
        <ele>2324.1999511719</ele>
        <time>2023-07-18T04:55:45.000Z</time>
      </trkpt>
      <trkpt lat="42.42745" lon="2.13447">
        <ele>2323.6000976562</ele>
        <time>2023-07-18T04:55:49.000Z</time>
      </trkpt>
      <trkpt lat="42.42747" lon="2.13446">
        <ele>2323.1999511719</ele>
        <time>2023-07-18T04:55:52.000Z</time>
      </trkpt>
      <trkpt lat="42.42749" lon="2.13443">
        <ele>2323</ele>
        <time>2023-07-18T04:55:55.000Z</time>
      </trkpt>
      <trkpt lat="42.42752" lon="2.13435">
        <ele>2322.1999511719</ele>
        <time>2023-07-18T04:56:01.000Z</time>
      </trkpt>
      <trkpt lat="42.42752" lon="2.13434">
        <ele>2322.1999511719</ele>
        <time>2023-07-18T04:56:02.000Z</time>
      </trkpt>
      <trkpt lat="42.42758" lon="2.13425">
        <ele>2321.1999511719</ele>
        <time>2023-07-18T04:56:10.000Z</time>
      </trkpt>
      <trkpt lat="42.42759" lon="2.13424">
        <ele>2321</ele>
        <time>2023-07-18T04:56:11.000Z</time>
      </trkpt>
      <trkpt lat="42.42765" lon="2.13417">
        <ele>2320.1999511719</ele>
        <time>2023-07-18T04:56:17.000Z</time>
      </trkpt>
      <trkpt lat="42.42765" lon="2.13416">
        <ele>2320</ele>
        <time>2023-07-18T04:56:18.000Z</time>
      </trkpt>
      <trkpt lat="42.42772" lon="2.13412">
        <ele>2318.6000976562</ele>
        <time>2023-07-18T04:56:24.000Z</time>
      </trkpt>
      <trkpt lat="42.4278" lon="2.13407">
        <ele>2317.3999023438</ele>
        <time>2023-07-18T04:56:30.000Z</time>
      </trkpt>
      <trkpt lat="42.4278" lon="2.13406">
        <ele>2317.1999511719</ele>
        <time>2023-07-18T04:56:31.000Z</time>
      </trkpt>
      <trkpt lat="42.42782" lon="2.13405">
        <ele>2316.1999511719</ele>
        <time>2023-07-18T04:56:34.000Z</time>
      </trkpt>
      <trkpt lat="42.42782" lon="2.13404">
        <ele>2316</ele>
        <time>2023-07-18T04:56:37.000Z</time>
      </trkpt>
      <trkpt lat="42.42782" lon="2.13402">
        <ele>2315</ele>
        <time>2023-07-18T04:56:41.000Z</time>
      </trkpt>
      <trkpt lat="42.42783" lon="2.13398">
        <ele>2314.3999023438</ele>
        <time>2023-07-18T04:56:44.000Z</time>
      </trkpt>
      <trkpt lat="42.42785" lon="2.13395">
        <ele>2314</ele>
        <time>2023-07-18T04:56:46.000Z</time>
      </trkpt>
      <trkpt lat="42.42788" lon="2.13391">
        <ele>2312.8000488281</ele>
        <time>2023-07-18T04:56:50.000Z</time>
      </trkpt>
      <trkpt lat="42.4279" lon="2.13387">
        <ele>2312.1999511719</ele>
        <time>2023-07-18T04:56:53.000Z</time>
      </trkpt>
      <trkpt lat="42.42792" lon="2.13385">
        <ele>2311.6000976562</ele>
        <time>2023-07-18T04:56:55.000Z</time>
      </trkpt>
      <trkpt lat="42.42796" lon="2.1338">
        <ele>2310.6000976562</ele>
        <time>2023-07-18T04:57:00.000Z</time>
      </trkpt>
      <trkpt lat="42.42797" lon="2.13379">
        <ele>2310.3999023438</ele>
        <time>2023-07-18T04:57:01.000Z</time>
      </trkpt>
      <trkpt lat="42.428" lon="2.13376">
        <ele>2309.6000976562</ele>
        <time>2023-07-18T04:57:05.000Z</time>
      </trkpt>
      <trkpt lat="42.42803" lon="2.1337">
        <ele>2308.6000976562</ele>
        <time>2023-07-18T04:57:09.000Z</time>
      </trkpt>
      <trkpt lat="42.42804" lon="2.13369">
        <ele>2308.3999023438</ele>
        <time>2023-07-18T04:57:10.000Z</time>
      </trkpt>
      <trkpt lat="42.42807" lon="2.1336">
        <ele>2307.3999023438</ele>
        <time>2023-07-18T04:57:15.000Z</time>
      </trkpt>
      <trkpt lat="42.42809" lon="2.13355">
        <ele>2306.8000488281</ele>
        <time>2023-07-18T04:57:18.000Z</time>
      </trkpt>
      <trkpt lat="42.4281" lon="2.13352">
        <ele>2306.3999023438</ele>
        <time>2023-07-18T04:57:20.000Z</time>
      </trkpt>
      <trkpt lat="42.42812" lon="2.13348">
        <ele>2305.1999511719</ele>
        <time>2023-07-18T04:57:25.000Z</time>
      </trkpt>
      <trkpt lat="42.42813" lon="2.13345">
        <ele>2305</ele>
        <time>2023-07-18T04:57:27.000Z</time>
      </trkpt>
      <trkpt lat="42.42814" lon="2.13338">
        <ele>2304.1999511719</ele>
        <time>2023-07-18T04:57:31.000Z</time>
      </trkpt>
      <trkpt lat="42.42816" lon="2.13332">
        <ele>2303.1999511719</ele>
        <time>2023-07-18T04:57:35.000Z</time>
      </trkpt>
      <trkpt lat="42.42817" lon="2.13326">
        <ele>2302</ele>
        <time>2023-07-18T04:57:40.000Z</time>
      </trkpt>
      <trkpt lat="42.42819" lon="2.13322">
        <ele>2301</ele>
        <time>2023-07-18T04:57:45.000Z</time>
      </trkpt>
      <trkpt lat="42.42822" lon="2.13317">
        <ele>2299.8000488281</ele>
        <time>2023-07-18T04:57:51.000Z</time>
      </trkpt>
      <trkpt lat="42.42823" lon="2.13315">
        <ele>2299.1999511719</ele>
        <time>2023-07-18T04:57:53.000Z</time>
      </trkpt>
      <trkpt lat="42.42824" lon="2.13313">
        <ele>2298.8000488281</ele>
        <time>2023-07-18T04:57:55.000Z</time>
      </trkpt>
      <trkpt lat="42.42827" lon="2.13308">
        <ele>2297.6000976562</ele>
        <time>2023-07-18T04:58:00.000Z</time>
      </trkpt>
      <trkpt lat="42.42827" lon="2.13308">
        <ele>2297.3999023438</ele>
        <time>2023-07-18T04:58:01.000Z</time>
      </trkpt>
      <trkpt lat="42.42831" lon="2.13302">
        <ele>2296.6000976562</ele>
        <time>2023-07-18T04:58:05.000Z</time>
      </trkpt>
      <trkpt lat="42.42834" lon="2.13299">
        <ele>2295.8000488281</ele>
        <time>2023-07-18T04:58:08.000Z</time>
      </trkpt>
      <trkpt lat="42.42835" lon="2.13296">
        <ele>2295.3999023438</ele>
        <time>2023-07-18T04:58:10.000Z</time>
      </trkpt>
      <trkpt lat="42.42838" lon="2.13292">
        <ele>2294.1999511719</ele>
        <time>2023-07-18T04:58:15.000Z</time>
      </trkpt>
      <trkpt lat="42.4284" lon="2.1329">
        <ele>2293.6000976562</ele>
        <time>2023-07-18T04:58:17.000Z</time>
      </trkpt>
      <trkpt lat="42.42841" lon="2.13287">
        <ele>2292.8000488281</ele>
        <time>2023-07-18T04:58:20.000Z</time>
      </trkpt>
      <trkpt lat="42.42844" lon="2.13283">
        <ele>2291.8000488281</ele>
        <time>2023-07-18T04:58:24.000Z</time>
      </trkpt>
      <trkpt lat="42.42845" lon="2.13282">
        <ele>2291.6000976562</ele>
        <time>2023-07-18T04:58:25.000Z</time>
      </trkpt>
      <trkpt lat="42.42847" lon="2.13279">
        <ele>2290.6000976562</ele>
        <time>2023-07-18T04:58:28.000Z</time>
      </trkpt>
      <trkpt lat="42.42849" lon="2.13275">
        <ele>2289.3999023438</ele>
        <time>2023-07-18T04:58:32.000Z</time>
      </trkpt>
      <trkpt lat="42.4285" lon="2.13273">
        <ele>2289.1999511719</ele>
        <time>2023-07-18T04:58:33.000Z</time>
      </trkpt>
      <trkpt lat="42.42852" lon="2.13269">
        <ele>2288.3999023438</ele>
        <time>2023-07-18T04:58:37.000Z</time>
      </trkpt>
      <trkpt lat="42.42855" lon="2.13265">
        <ele>2287.6000976562</ele>
        <time>2023-07-18T04:58:41.000Z</time>
      </trkpt>
      <trkpt lat="42.42856" lon="2.13265">
        <ele>2287.3999023438</ele>
        <time>2023-07-18T04:58:42.000Z</time>
      </trkpt>
      <trkpt lat="42.4286" lon="2.13258">
        <ele>2286.1999511719</ele>
        <time>2023-07-18T04:58:47.000Z</time>
      </trkpt>
      <trkpt lat="42.42862" lon="2.13256">
        <ele>2286</ele>
        <time>2023-07-18T04:58:49.000Z</time>
      </trkpt>
      <trkpt lat="42.42868" lon="2.13254">
        <ele>2285.1999511719</ele>
        <time>2023-07-18T04:58:54.000Z</time>
      </trkpt>
      <trkpt lat="42.42871" lon="2.13252">
        <ele>2284.1999511719</ele>
        <time>2023-07-18T04:58:58.000Z</time>
      </trkpt>
      <trkpt lat="42.42872" lon="2.13251">
        <ele>2284</ele>
        <time>2023-07-18T04:58:59.000Z</time>
      </trkpt>
      <trkpt lat="42.42874" lon="2.13245">
        <ele>2283</ele>
        <time>2023-07-18T04:59:06.000Z</time>
      </trkpt>
      <trkpt lat="42.42874" lon="2.13244">
        <ele>2282.8000488281</ele>
        <time>2023-07-18T04:59:07.000Z</time>
      </trkpt>
      <trkpt lat="42.42878" lon="2.13243">
        <ele>2281.6000976562</ele>
        <time>2023-07-18T04:59:13.000Z</time>
      </trkpt>
      <trkpt lat="42.42876" lon="2.13245">
        <ele>2281.3999023438</ele>
        <time>2023-07-18T04:59:15.000Z</time>
      </trkpt>
      <trkpt lat="42.42877" lon="2.13244">
        <ele>2281.1999511719</ele>
        <time>2023-07-18T04:59:19.000Z</time>
      </trkpt>
      <trkpt lat="42.42877" lon="2.13239">
        <ele>2280.3999023438</ele>
        <time>2023-07-18T04:59:25.000Z</time>
      </trkpt>
      <trkpt lat="42.42878" lon="2.13237">
        <ele>2280.3999023438</ele>
        <time>2023-07-18T04:59:27.000Z</time>
      </trkpt>
      <trkpt lat="42.42882" lon="2.13233">
        <ele>2281</ele>
        <time>2023-07-18T04:59:36.000Z</time>
      </trkpt>
      <trkpt lat="42.42885" lon="2.13233">
        <ele>2280.6000976562</ele>
        <time>2023-07-18T04:59:44.000Z</time>
      </trkpt>
      <trkpt lat="42.42889" lon="2.13226">
        <ele>2281</ele>
        <time>2023-07-18T04:59:53.000Z</time>
      </trkpt>
      <trkpt lat="42.42894" lon="2.13212">
        <ele>2280.6000976562</ele>
        <time>2023-07-18T05:00:02.000Z</time>
      </trkpt>
      <trkpt lat="42.42898" lon="2.13206">
        <ele>2280.6000976562</ele>
        <time>2023-07-18T05:00:08.000Z</time>
      </trkpt>
      <trkpt lat="42.42898" lon="2.13205">
        <ele>2281</ele>
        <time>2023-07-18T05:00:14.000Z</time>
      </trkpt>
      <trkpt lat="42.42901" lon="2.13202">
        <ele>2281.6000976562</ele>
        <time>2023-07-18T05:00:19.000Z</time>
      </trkpt>
      <trkpt lat="42.42904" lon="2.13198">
        <ele>2282</ele>
        <time>2023-07-18T05:00:24.000Z</time>
      </trkpt>
      <trkpt lat="42.42912" lon="2.13194">
        <ele>2281.6000976562</ele>
        <time>2023-07-18T05:00:34.000Z</time>
      </trkpt>
      <trkpt lat="42.42912" lon="2.13192">
        <ele>2282</ele>
        <time>2023-07-18T05:00:46.000Z</time>
      </trkpt>
      <trkpt lat="42.4291" lon="2.13191">
        <ele>2282</ele>
        <time>2023-07-18T05:00:54.000Z</time>
      </trkpt>
      <trkpt lat="42.42912" lon="2.1319">
        <ele>2282.1999511719</ele>
        <time>2023-07-18T05:01:02.000Z</time>
      </trkpt>
      <trkpt lat="42.42916" lon="2.13188">
        <ele>2281.8000488281</ele>
        <time>2023-07-18T05:01:08.000Z</time>
      </trkpt>
      <trkpt lat="42.42917" lon="2.13188">
        <ele>2281.6000976562</ele>
        <time>2023-07-18T05:01:09.000Z</time>
      </trkpt>
      <trkpt lat="42.42923" lon="2.13186">
        <ele>2281.6000976562</ele>
        <time>2023-07-18T05:01:16.000Z</time>
      </trkpt>
      <trkpt lat="42.42923" lon="2.13188">
        <ele>2281.6000976562</ele>
        <time>2023-07-18T05:01:17.000Z</time>
      </trkpt>
      <trkpt lat="42.42927" lon="2.13189">
        <ele>2281.6000976562</ele>
        <time>2023-07-18T05:01:23.000Z</time>
      </trkpt>
      <trkpt lat="42.42932" lon="2.13185">
        <ele>2280.8000488281</ele>
        <time>2023-07-18T05:01:31.000Z</time>
      </trkpt>
      <trkpt lat="42.42935" lon="2.13181">
        <ele>2280.6000976562</ele>
        <time>2023-07-18T05:01:33.000Z</time>
      </trkpt>
      <trkpt lat="42.42937" lon="2.13178">
        <ele>2280.3999023438</ele>
        <time>2023-07-18T05:01:37.000Z</time>
      </trkpt>
      <trkpt lat="42.42944" lon="2.13175">
        <ele>2279.6000976562</ele>
        <time>2023-07-18T05:01:45.000Z</time>
      </trkpt>
      <trkpt lat="42.42946" lon="2.13175">
        <ele>2279.3999023438</ele>
        <time>2023-07-18T05:01:48.000Z</time>
      </trkpt>
      <trkpt lat="42.42949" lon="2.13172">
        <ele>2279.3999023438</ele>
        <time>2023-07-18T05:01:52.000Z</time>
      </trkpt>
      <trkpt lat="42.42955" lon="2.13163">
        <ele>2278.3999023438</ele>
        <time>2023-07-18T05:02:02.000Z</time>
      </trkpt>
      <trkpt lat="42.42956" lon="2.13163">
        <ele>2278.3999023438</ele>
        <time>2023-07-18T05:02:03.000Z</time>
      </trkpt>
      <trkpt lat="42.42962" lon="2.1316">
        <ele>2278.3999023438</ele>
        <time>2023-07-18T05:02:10.000Z</time>
      </trkpt>
      <trkpt lat="42.42969" lon="2.13158">
        <ele>2278.8000488281</ele>
        <time>2023-07-18T05:02:19.000Z</time>
      </trkpt>
      <trkpt lat="42.42974" lon="2.13157">
        <ele>2279.3999023438</ele>
        <time>2023-07-18T05:02:25.000Z</time>
      </trkpt>
      <trkpt lat="42.42975" lon="2.13156">
        <ele>2279.3999023438</ele>
        <time>2023-07-18T05:02:26.000Z</time>
      </trkpt>
      <trkpt lat="42.42979" lon="2.13156">
        <ele>2279</ele>
        <time>2023-07-18T05:02:34.000Z</time>
      </trkpt>
      <trkpt lat="42.42982" lon="2.13158">
        <ele>2278.6000976562</ele>
        <time>2023-07-18T05:02:37.000Z</time>
      </trkpt>
      <trkpt lat="42.42986" lon="2.1316">
        <ele>2278</ele>
        <time>2023-07-18T05:02:41.000Z</time>
      </trkpt>
      <trkpt lat="42.42987" lon="2.1316">
        <ele>2277.3999023438</ele>
        <time>2023-07-18T05:02:43.000Z</time>
      </trkpt>
      <trkpt lat="42.42992" lon="2.1316">
        <ele>2277</ele>
        <time>2023-07-18T05:02:47.000Z</time>
      </trkpt>
      <trkpt lat="42.42998" lon="2.13159">
        <ele>2276.1999511719</ele>
        <time>2023-07-18T05:02:53.000Z</time>
      </trkpt>
      <trkpt lat="42.43" lon="2.13158">
        <ele>2276</ele>
        <time>2023-07-18T05:02:56.000Z</time>
      </trkpt>
      <trkpt lat="42.43007" lon="2.13157">
        <ele>2275.6000976562</ele>
        <time>2023-07-18T05:03:02.000Z</time>
      </trkpt>
      <trkpt lat="42.43014" lon="2.13157">
        <ele>2274.8000488281</ele>
        <time>2023-07-18T05:03:06.000Z</time>
      </trkpt>
      <trkpt lat="42.43018" lon="2.13156">
        <ele>2274.3999023438</ele>
        <time>2023-07-18T05:03:10.000Z</time>
      </trkpt>
      <trkpt lat="42.43025" lon="2.13148">
        <ele>2274.1999511719</ele>
        <time>2023-07-18T05:03:18.000Z</time>
      </trkpt>
      <trkpt lat="42.43029" lon="2.13144">
        <ele>2274</ele>
        <time>2023-07-18T05:03:26.000Z</time>
      </trkpt>
      <trkpt lat="42.43031" lon="2.13144">
        <ele>2273.8000488281</ele>
        <time>2023-07-18T05:03:28.000Z</time>
      </trkpt>
      <trkpt lat="42.43037" lon="2.13143">
        <ele>2273.8000488281</ele>
        <time>2023-07-18T05:03:33.000Z</time>
      </trkpt>
      <trkpt lat="42.43046" lon="2.13138">
        <ele>2273.6000976562</ele>
        <time>2023-07-18T05:03:41.000Z</time>
      </trkpt>
      <trkpt lat="42.43053" lon="2.13135">
        <ele>2272.6000976562</ele>
        <time>2023-07-18T05:03:49.000Z</time>
      </trkpt>
      <trkpt lat="42.4306" lon="2.13134">
        <ele>2272.6000976562</ele>
        <time>2023-07-18T05:03:55.000Z</time>
      </trkpt>
      <trkpt lat="42.43066" lon="2.13135">
        <ele>2271.8000488281</ele>
        <time>2023-07-18T05:04:01.000Z</time>
      </trkpt>
      <trkpt lat="42.43068" lon="2.13135">
        <ele>2271.6000976562</ele>
        <time>2023-07-18T05:04:03.000Z</time>
      </trkpt>
      <trkpt lat="42.43072" lon="2.13135">
        <ele>2271.3999023438</ele>
        <time>2023-07-18T05:04:09.000Z</time>
      </trkpt>
      <trkpt lat="42.43083" lon="2.13135">
        <ele>2270.8000488281</ele>
        <time>2023-07-18T05:04:17.000Z</time>
      </trkpt>
      <trkpt lat="42.43086" lon="2.13136">
        <ele>2270.6000976562</ele>
        <time>2023-07-18T05:04:20.000Z</time>
      </trkpt>
      <trkpt lat="42.43089" lon="2.13137">
        <ele>2270.6000976562</ele>
        <time>2023-07-18T05:04:23.000Z</time>
      </trkpt>
      <trkpt lat="42.43093" lon="2.13132">
        <ele>2269.8000488281</ele>
        <time>2023-07-18T05:04:31.000Z</time>
      </trkpt>
      <trkpt lat="42.43094" lon="2.13131">
        <ele>2269.6000976562</ele>
        <time>2023-07-18T05:04:33.000Z</time>
      </trkpt>
      <trkpt lat="42.43097" lon="2.13132">
        <ele>2269</ele>
        <time>2023-07-18T05:04:37.000Z</time>
      </trkpt>
      <trkpt lat="42.43098" lon="2.13132">
        <ele>2268.8000488281</ele>
        <time>2023-07-18T05:04:38.000Z</time>
      </trkpt>
      <trkpt lat="42.43098" lon="2.13132">
        <ele>2268.6000976562</ele>
        <time>2023-07-18T05:04:39.000Z</time>
      </trkpt>
      <trkpt lat="42.43107" lon="2.13129">
        <ele>2267.8000488281</ele>
        <time>2023-07-18T05:04:49.000Z</time>
      </trkpt>
      <trkpt lat="42.43112" lon="2.13129">
        <ele>2268.8000488281</ele>
        <time>2023-07-18T05:04:58.000Z</time>
      </trkpt>
      <trkpt lat="42.43121" lon="2.13134">
        <ele>2269.1999511719</ele>
        <time>2023-07-18T05:05:06.000Z</time>
      </trkpt>
      <trkpt lat="42.4313" lon="2.13135">
        <ele>2268.3999023438</ele>
        <time>2023-07-18T05:05:13.000Z</time>
      </trkpt>
      <trkpt lat="42.43139" lon="2.13133">
        <ele>2267.3999023438</ele>
        <time>2023-07-18T05:05:21.000Z</time>
      </trkpt>
      <trkpt lat="42.43148" lon="2.13127">
        <ele>2266.6000976562</ele>
        <time>2023-07-18T05:05:29.000Z</time>
      </trkpt>
      <trkpt lat="42.43152" lon="2.13126">
        <ele>2266.1999511719</ele>
        <time>2023-07-18T05:05:33.000Z</time>
      </trkpt>
      <trkpt lat="42.43156" lon="2.13124">
        <ele>2266</ele>
        <time>2023-07-18T05:05:37.000Z</time>
      </trkpt>
      <trkpt lat="42.43164" lon="2.13121">
        <ele>2265.1999511719</ele>
        <time>2023-07-18T05:05:45.000Z</time>
      </trkpt>
      <trkpt lat="42.43167" lon="2.13118">
        <ele>2264.1999511719</ele>
        <time>2023-07-18T05:05:51.000Z</time>
      </trkpt>
      <trkpt lat="42.4317" lon="2.13116">
        <ele>2263.8000488281</ele>
        <time>2023-07-18T05:05:53.000Z</time>
      </trkpt>
      <trkpt lat="42.43173" lon="2.13112">
        <ele>2263.1999511719</ele>
        <time>2023-07-18T05:05:57.000Z</time>
      </trkpt>
      <trkpt lat="42.43171" lon="2.13112">
        <ele>2262.8000488281</ele>
        <time>2023-07-18T05:06:00.000Z</time>
      </trkpt>
      <trkpt lat="42.43171" lon="2.13112">
        <ele>2262.6000976562</ele>
        <time>2023-07-18T05:06:06.000Z</time>
      </trkpt>
      <trkpt lat="42.43171" lon="2.13112">
        <ele>2263</ele>
        <time>2023-07-18T05:06:15.000Z</time>
      </trkpt>
      <trkpt lat="42.43168" lon="2.13114">
        <ele>2263.1999511719</ele>
        <time>2023-07-18T05:06:26.000Z</time>
      </trkpt>
      <trkpt lat="42.43173" lon="2.13108">
        <ele>2263.1999511719</ele>
        <time>2023-07-18T05:06:36.000Z</time>
      </trkpt>
      <trkpt lat="42.4318" lon="2.13099">
        <ele>2262.8000488281</ele>
        <time>2023-07-18T05:06:44.000Z</time>
      </trkpt>
      <trkpt lat="42.4319" lon="2.13095">
        <ele>2262.8000488281</ele>
        <time>2023-07-18T05:06:53.000Z</time>
      </trkpt>
      <trkpt lat="42.43197" lon="2.13098">
        <ele>2262.3999023438</ele>
        <time>2023-07-18T05:07:01.000Z</time>
      </trkpt>
      <trkpt lat="42.43202" lon="2.13097">
        <ele>2262</ele>
        <time>2023-07-18T05:07:08.000Z</time>
      </trkpt>
      <trkpt lat="42.43208" lon="2.13097">
        <ele>2261</ele>
        <time>2023-07-18T05:07:17.000Z</time>
      </trkpt>
      <trkpt lat="42.43216" lon="2.13095">
        <ele>2261</ele>
        <time>2023-07-18T05:07:23.000Z</time>
      </trkpt>
      <trkpt lat="42.43223" lon="2.13095">
        <ele>2260.6000976562</ele>
        <time>2023-07-18T05:07:30.000Z</time>
      </trkpt>
      <trkpt lat="42.43227" lon="2.13097">
        <ele>2259.8000488281</ele>
        <time>2023-07-18T05:07:35.000Z</time>
      </trkpt>
      <trkpt lat="42.43228" lon="2.13098">
        <ele>2259.3999023438</ele>
        <time>2023-07-18T05:07:39.000Z</time>
      </trkpt>
      <trkpt lat="42.43231" lon="2.13099">
        <ele>2258.8000488281</ele>
        <time>2023-07-18T05:07:44.000Z</time>
      </trkpt>
      <trkpt lat="42.43234" lon="2.13098">
        <ele>2258.3999023438</ele>
        <time>2023-07-18T05:07:47.000Z</time>
      </trkpt>
      <trkpt lat="42.43241" lon="2.13095">
        <ele>2258.1999511719</ele>
        <time>2023-07-18T05:07:55.000Z</time>
      </trkpt>
      <trkpt lat="42.43246" lon="2.13094">
        <ele>2257.8000488281</ele>
        <time>2023-07-18T05:08:03.000Z</time>
      </trkpt>
      <trkpt lat="42.43254" lon="2.13097">
        <ele>2256.6000976562</ele>
        <time>2023-07-18T05:08:11.000Z</time>
      </trkpt>
      <trkpt lat="42.43258" lon="2.13098">
        <ele>2256.3999023438</ele>
        <time>2023-07-18T05:08:18.000Z</time>
      </trkpt>
      <trkpt lat="42.43259" lon="2.13095">
        <ele>2256.1999511719</ele>
        <time>2023-07-18T05:08:24.000Z</time>
      </trkpt>
      <trkpt lat="42.43265" lon="2.1309">
        <ele>2256</ele>
        <time>2023-07-18T05:08:32.000Z</time>
      </trkpt>
      <trkpt lat="42.43266" lon="2.13093">
        <ele>2255.6000976562</ele>
        <time>2023-07-18T05:08:36.000Z</time>
      </trkpt>
      <trkpt lat="42.43269" lon="2.13095">
        <ele>2255</ele>
        <time>2023-07-18T05:08:39.000Z</time>
      </trkpt>
      <trkpt lat="42.4327" lon="2.13095">
        <ele>2254.3999023438</ele>
        <time>2023-07-18T05:08:42.000Z</time>
      </trkpt>
      <trkpt lat="42.4327" lon="2.13096">
        <ele>2254</ele>
        <time>2023-07-18T05:08:46.000Z</time>
      </trkpt>
      <trkpt lat="42.43275" lon="2.13095">
        <ele>2253.3999023438</ele>
        <time>2023-07-18T05:08:50.000Z</time>
      </trkpt>
      <trkpt lat="42.43277" lon="2.13094">
        <ele>2253</ele>
        <time>2023-07-18T05:08:52.000Z</time>
      </trkpt>
      <trkpt lat="42.43283" lon="2.13092">
        <ele>2252.8000488281</ele>
        <time>2023-07-18T05:09:00.000Z</time>
      </trkpt>
      <trkpt lat="42.43285" lon="2.13092">
        <ele>2252.3999023438</ele>
        <time>2023-07-18T05:09:06.000Z</time>
      </trkpt>
      <trkpt lat="42.43286" lon="2.13093">
        <ele>2252.1999511719</ele>
        <time>2023-07-18T05:09:07.000Z</time>
      </trkpt>
      <trkpt lat="42.43288" lon="2.13092">
        <ele>2251.1999511719</ele>
        <time>2023-07-18T05:09:14.000Z</time>
      </trkpt>
      <trkpt lat="42.43289" lon="2.13092">
        <ele>2250.8000488281</ele>
        <time>2023-07-18T05:09:17.000Z</time>
      </trkpt>
      <trkpt lat="42.43291" lon="2.1309">
        <ele>2250.1999511719</ele>
        <time>2023-07-18T05:09:20.000Z</time>
      </trkpt>
      <trkpt lat="42.43296" lon="2.13087">
        <ele>2250.1999511719</ele>
        <time>2023-07-18T05:09:26.000Z</time>
      </trkpt>
      <trkpt lat="42.433" lon="2.13081">
        <ele>2251.1999511719</ele>
        <time>2023-07-18T05:09:34.000Z</time>
      </trkpt>
      <trkpt lat="42.433" lon="2.13081">
        <ele>2252.3999023438</ele>
        <time>2023-07-18T05:09:40.000Z</time>
      </trkpt>
      <trkpt lat="42.43301" lon="2.1308">
        <ele>2252.8000488281</ele>
        <time>2023-07-18T05:09:42.000Z</time>
      </trkpt>
      <trkpt lat="42.43305" lon="2.13077">
        <ele>2253.6000976562</ele>
        <time>2023-07-18T05:09:45.000Z</time>
      </trkpt>
      <trkpt lat="42.43306" lon="2.13076">
        <ele>2253.8000488281</ele>
        <time>2023-07-18T05:09:49.000Z</time>
      </trkpt>
      <trkpt lat="42.43307" lon="2.13075">
        <ele>2253.8000488281</ele>
        <time>2023-07-18T05:09:55.000Z</time>
      </trkpt>
      <trkpt lat="42.43308" lon="2.13072">
        <ele>2254</ele>
        <time>2023-07-18T05:10:02.000Z</time>
      </trkpt>
      <trkpt lat="42.43309" lon="2.13069">
        <ele>2253.6000976562</ele>
        <time>2023-07-18T05:10:11.000Z</time>
      </trkpt>
      <trkpt lat="42.43311" lon="2.13072">
        <ele>2253</ele>
        <time>2023-07-18T05:10:18.000Z</time>
      </trkpt>
      <trkpt lat="42.43313" lon="2.13073">
        <ele>2252.3999023438</ele>
        <time>2023-07-18T05:10:22.000Z</time>
      </trkpt>
      <trkpt lat="42.43314" lon="2.13074">
        <ele>2252.1999511719</ele>
        <time>2023-07-18T05:10:24.000Z</time>
      </trkpt>
      <trkpt lat="42.43315" lon="2.13072">
        <ele>2251.6000976562</ele>
        <time>2023-07-18T05:10:32.000Z</time>
      </trkpt>
      <trkpt lat="42.43316" lon="2.1307">
        <ele>2251.3999023438</ele>
        <time>2023-07-18T05:10:35.000Z</time>
      </trkpt>
      <trkpt lat="42.43317" lon="2.1307">
        <ele>2250.8000488281</ele>
        <time>2023-07-18T05:10:39.000Z</time>
      </trkpt>
      <trkpt lat="42.43317" lon="2.13071">
        <ele>2250.3999023438</ele>
        <time>2023-07-18T05:10:43.000Z</time>
      </trkpt>
      <trkpt lat="42.43318" lon="2.13073">
        <ele>2249.3999023438</ele>
        <time>2023-07-18T05:10:47.000Z</time>
      </trkpt>
      <trkpt lat="42.43318" lon="2.13073">
        <ele>2249.1999511719</ele>
        <time>2023-07-18T05:10:48.000Z</time>
      </trkpt>
      <trkpt lat="42.43324" lon="2.13076">
        <ele>2248.6000976562</ele>
        <time>2023-07-18T05:10:54.000Z</time>
      </trkpt>
      <trkpt lat="42.43324" lon="2.13077">
        <ele>2248.1999511719</ele>
        <time>2023-07-18T05:10:56.000Z</time>
      </trkpt>
      <trkpt lat="42.43327" lon="2.13077">
        <ele>2247.3999023438</ele>
        <time>2023-07-18T05:11:01.000Z</time>
      </trkpt>
      <trkpt lat="42.43327" lon="2.13078">
        <ele>2247</ele>
        <time>2023-07-18T05:11:03.000Z</time>
      </trkpt>
      <trkpt lat="42.43326" lon="2.1308">
        <ele>2245.8000488281</ele>
        <time>2023-07-18T05:11:08.000Z</time>
      </trkpt>
      <trkpt lat="42.43327" lon="2.13078">
        <ele>2244.3999023438</ele>
        <time>2023-07-18T05:11:14.000Z</time>
      </trkpt>
      <trkpt lat="42.43328" lon="2.13077">
        <ele>2244.1999511719</ele>
        <time>2023-07-18T05:11:15.000Z</time>
      </trkpt>
      <trkpt lat="42.4333" lon="2.13075">
        <ele>2243.3999023438</ele>
        <time>2023-07-18T05:11:20.000Z</time>
      </trkpt>
      <trkpt lat="42.43331" lon="2.13074">
        <ele>2243.1999511719</ele>
        <time>2023-07-18T05:11:21.000Z</time>
      </trkpt>
      <trkpt lat="42.43335" lon="2.13072">
        <ele>2242.3999023438</ele>
        <time>2023-07-18T05:11:26.000Z</time>
      </trkpt>
      <trkpt lat="42.43337" lon="2.1307">
        <ele>2242.1999511719</ele>
        <time>2023-07-18T05:11:30.000Z</time>
      </trkpt>
      <trkpt lat="42.43338" lon="2.13067">
        <ele>2241.1999511719</ele>
        <time>2023-07-18T05:11:37.000Z</time>
      </trkpt>
      <trkpt lat="42.43338" lon="2.13067">
        <ele>2241.1999511719</ele>
        <time>2023-07-18T05:11:38.000Z</time>
      </trkpt>
      <trkpt lat="42.43339" lon="2.13067">
        <ele>2240.1999511719</ele>
        <time>2023-07-18T05:11:44.000Z</time>
      </trkpt>
      <trkpt lat="42.43339" lon="2.13068">
        <ele>2240.1999511719</ele>
        <time>2023-07-18T05:11:46.000Z</time>
      </trkpt>
      <trkpt lat="42.43341" lon="2.1307">
        <ele>2239.1999511719</ele>
        <time>2023-07-18T05:11:52.000Z</time>
      </trkpt>
      <trkpt lat="42.43342" lon="2.13071">
        <ele>2239</ele>
        <time>2023-07-18T05:11:53.000Z</time>
      </trkpt>
      <trkpt lat="42.43341" lon="2.13073">
        <ele>2238</ele>
        <time>2023-07-18T05:11:58.000Z</time>
      </trkpt>
      <trkpt lat="42.43341" lon="2.13073">
        <ele>2237.8000488281</ele>
        <time>2023-07-18T05:12:00.000Z</time>
      </trkpt>
      <trkpt lat="42.43342" lon="2.13074">
        <ele>2236.8000488281</ele>
        <time>2023-07-18T05:12:04.000Z</time>
      </trkpt>
      <trkpt lat="42.43345" lon="2.13074">
        <ele>2236</ele>
        <time>2023-07-18T05:12:08.000Z</time>
      </trkpt>
      <trkpt lat="42.43347" lon="2.13074">
        <ele>2235.8000488281</ele>
        <time>2023-07-18T05:12:09.000Z</time>
      </trkpt>
      <trkpt lat="42.43349" lon="2.13074">
        <ele>2235.3999023438</ele>
        <time>2023-07-18T05:12:14.000Z</time>
      </trkpt>
      <trkpt lat="42.43348" lon="2.13073">
        <ele>2234.8000488281</ele>
        <time>2023-07-18T05:12:20.000Z</time>
      </trkpt>
      <trkpt lat="42.43349" lon="2.13073">
        <ele>2234.8000488281</ele>
        <time>2023-07-18T05:12:21.000Z</time>
      </trkpt>
      <trkpt lat="42.43352" lon="2.13071">
        <ele>2233.3999023438</ele>
        <time>2023-07-18T05:12:28.000Z</time>
      </trkpt>
      <trkpt lat="42.43353" lon="2.13071">
        <ele>2233.3999023438</ele>
        <time>2023-07-18T05:12:29.000Z</time>
      </trkpt>
      <trkpt lat="42.43358" lon="2.13071">
        <ele>2232.3999023438</ele>
        <time>2023-07-18T05:12:36.000Z</time>
      </trkpt>
      <trkpt lat="42.43358" lon="2.1307">
        <ele>2232.1999511719</ele>
        <time>2023-07-18T05:12:37.000Z</time>
      </trkpt>
      <trkpt lat="42.43361" lon="2.13068">
        <ele>2231.1999511719</ele>
        <time>2023-07-18T05:12:42.000Z</time>
      </trkpt>
      <trkpt lat="42.43361" lon="2.13067">
        <ele>2231</ele>
        <time>2023-07-18T05:12:43.000Z</time>
      </trkpt>
      <trkpt lat="42.43365" lon="2.13067">
        <ele>2230.1999511719</ele>
        <time>2023-07-18T05:12:50.000Z</time>
      </trkpt>
      <trkpt lat="42.43366" lon="2.13068">
        <ele>2229.8000488281</ele>
        <time>2023-07-18T05:12:52.000Z</time>
      </trkpt>
      <trkpt lat="42.43367" lon="2.13067">
        <ele>2229</ele>
        <time>2023-07-18T05:12:57.000Z</time>
      </trkpt>
      <trkpt lat="42.43368" lon="2.13067">
        <ele>2228.3999023438</ele>
        <time>2023-07-18T05:13:01.000Z</time>
      </trkpt>
      <trkpt lat="42.43369" lon="2.13067">
        <ele>2228</ele>
        <time>2023-07-18T05:13:04.000Z</time>
      </trkpt>
      <trkpt lat="42.43371" lon="2.13065">
        <ele>2227.1999511719</ele>
        <time>2023-07-18T05:13:09.000Z</time>
      </trkpt>
      <trkpt lat="42.43372" lon="2.13064">
        <ele>2226.8000488281</ele>
        <time>2023-07-18T05:13:11.000Z</time>
      </trkpt>
      <trkpt lat="42.43376" lon="2.1306">
        <ele>2225.8000488281</ele>
        <time>2023-07-18T05:13:19.000Z</time>
      </trkpt>
      <trkpt lat="42.43382" lon="2.13057">
        <ele>2224.6000976562</ele>
        <time>2023-07-18T05:13:28.000Z</time>
      </trkpt>
      <trkpt lat="42.43385" lon="2.13055">
        <ele>2223.3999023438</ele>
        <time>2023-07-18T05:13:34.000Z</time>
      </trkpt>
      <trkpt lat="42.43386" lon="2.13053">
        <ele>2223.1999511719</ele>
        <time>2023-07-18T05:13:37.000Z</time>
      </trkpt>
      <trkpt lat="42.4339" lon="2.13046">
        <ele>2222.3999023438</ele>
        <time>2023-07-18T05:13:43.000Z</time>
      </trkpt>
      <trkpt lat="42.4339" lon="2.13044">
        <ele>2222.1999511719</ele>
        <time>2023-07-18T05:13:45.000Z</time>
      </trkpt>
      <trkpt lat="42.43394" lon="2.1304">
        <ele>2221.6000976562</ele>
        <time>2023-07-18T05:13:52.000Z</time>
      </trkpt>
      <trkpt lat="42.43395" lon="2.13037">
        <ele>2221.3999023438</ele>
        <time>2023-07-18T05:13:54.000Z</time>
      </trkpt>
      <trkpt lat="42.43395" lon="2.13037">
        <ele>2221.1999511719</ele>
        <time>2023-07-18T05:13:55.000Z</time>
      </trkpt>
      <trkpt lat="42.43396" lon="2.13034">
        <ele>2221</ele>
        <time>2023-07-18T05:13:59.000Z</time>
      </trkpt>
      <trkpt lat="42.43401" lon="2.13035">
        <ele>2220.3999023438</ele>
        <time>2023-07-18T05:14:06.000Z</time>
      </trkpt>
      <trkpt lat="42.434" lon="2.13033">
        <ele>2220</ele>
        <time>2023-07-18T05:14:14.000Z</time>
      </trkpt>
      <trkpt lat="42.43399" lon="2.13033">
        <ele>2220.1999511719</ele>
        <time>2023-07-18T05:14:22.000Z</time>
      </trkpt>
      <trkpt lat="42.43399" lon="2.13026">
        <ele>2219.8000488281</ele>
        <time>2023-07-18T05:14:28.000Z</time>
      </trkpt>
      <trkpt lat="42.43399" lon="2.13021">
        <ele>2219.8000488281</ele>
        <time>2023-07-18T05:14:35.000Z</time>
      </trkpt>
      <trkpt lat="42.43402" lon="2.13023">
        <ele>2219.8000488281</ele>
        <time>2023-07-18T05:14:42.000Z</time>
      </trkpt>
      <trkpt lat="42.43399" lon="2.13028">
        <ele>2219.6000976562</ele>
        <time>2023-07-18T05:14:50.000Z</time>
      </trkpt>
      <trkpt lat="42.43399" lon="2.13028">
        <ele>2219.6000976562</ele>
        <time>2023-07-18T05:14:54.000Z</time>
      </trkpt>
      <trkpt lat="42.43398" lon="2.13023">
        <ele>2219.3999023438</ele>
        <time>2023-07-18T05:15:02.000Z</time>
      </trkpt>
      <trkpt lat="42.43399" lon="2.13023">
        <ele>2219.1999511719</ele>
        <time>2023-07-18T05:15:04.000Z</time>
      </trkpt>
      <trkpt lat="42.43401" lon="2.13029">
        <ele>2219.1999511719</ele>
        <time>2023-07-18T05:15:09.000Z</time>
      </trkpt>
      <trkpt lat="42.43401" lon="2.13034">
        <ele>2219</ele>
        <time>2023-07-18T05:15:18.000Z</time>
      </trkpt>
      <trkpt lat="42.43397" lon="2.13031">
        <ele>2219</ele>
        <time>2023-07-18T05:15:26.000Z</time>
      </trkpt>
      <trkpt lat="42.43398" lon="2.1303">
        <ele>2219</ele>
        <time>2023-07-18T05:15:34.000Z</time>
      </trkpt>
      <trkpt lat="42.43399" lon="2.13029">
        <ele>2219</ele>
        <time>2023-07-18T05:15:42.000Z</time>
      </trkpt>
      <trkpt lat="42.43399" lon="2.13027">
        <ele>2219</ele>
        <time>2023-07-18T05:15:50.000Z</time>
      </trkpt>
      <trkpt lat="42.43398" lon="2.13025">
        <ele>2219.3999023438</ele>
        <time>2023-07-18T05:15:57.000Z</time>
      </trkpt>
      <trkpt lat="42.43397" lon="2.13025">
        <ele>2219.6000976562</ele>
        <time>2023-07-18T05:16:04.000Z</time>
      </trkpt>
      <trkpt lat="42.43397" lon="2.13022">
        <ele>2219.8000488281</ele>
        <time>2023-07-18T05:16:12.000Z</time>
      </trkpt>
      <trkpt lat="42.43397" lon="2.13016">
        <ele>2220</ele>
        <time>2023-07-18T05:16:20.000Z</time>
      </trkpt>
      <trkpt lat="42.43399" lon="2.13019">
        <ele>2220</ele>
        <time>2023-07-18T05:16:27.000Z</time>
      </trkpt>
      <trkpt lat="42.43401" lon="2.13026">
        <ele>2220</ele>
        <time>2023-07-18T05:16:32.000Z</time>
      </trkpt>
      <trkpt lat="42.43402" lon="2.13025">
        <ele>2220</ele>
        <time>2023-07-18T05:16:39.000Z</time>
      </trkpt>
      <trkpt lat="42.43401" lon="2.13026">
        <ele>2220.3999023438</ele>
        <time>2023-07-18T05:16:45.000Z</time>
      </trkpt>
      <trkpt lat="42.43399" lon="2.13026">
        <ele>2220.3999023438</ele>
        <time>2023-07-18T05:16:48.000Z</time>
      </trkpt>
      <trkpt lat="42.434" lon="2.13022">
        <ele>2219.6000976562</ele>
        <time>2023-07-18T05:17:02.000Z</time>
      </trkpt>
      <trkpt lat="42.43399" lon="2.13019">
        <ele>2219</ele>
        <time>2023-07-18T05:17:06.000Z</time>
      </trkpt>
      <trkpt lat="42.43403" lon="2.1302">
        <ele>2218.8000488281</ele>
        <time>2023-07-18T05:17:10.000Z</time>
      </trkpt>
      <trkpt lat="42.43408" lon="2.13016">
        <ele>2218</ele>
        <time>2023-07-18T05:17:17.000Z</time>
      </trkpt>
      <trkpt lat="42.43409" lon="2.13015">
        <ele>2217.8000488281</ele>
        <time>2023-07-18T05:17:18.000Z</time>
      </trkpt>
      <trkpt lat="42.4341" lon="2.1301">
        <ele>2217</ele>
        <time>2023-07-18T05:17:22.000Z</time>
      </trkpt>
      <trkpt lat="42.43411" lon="2.13006">
        <ele>2216.3999023438</ele>
        <time>2023-07-18T05:17:26.000Z</time>
      </trkpt>
      <trkpt lat="42.43411" lon="2.13001">
        <ele>2216</ele>
        <time>2023-07-18T05:17:31.000Z</time>
      </trkpt>
      <trkpt lat="42.43411" lon="2.13">
        <ele>2215.8000488281</ele>
        <time>2023-07-18T05:17:32.000Z</time>
      </trkpt>
      <trkpt lat="42.43411" lon="2.12997">
        <ele>2214.6000976562</ele>
        <time>2023-07-18T05:17:36.000Z</time>
      </trkpt>
      <trkpt lat="42.43412" lon="2.12995">
        <ele>2213.8000488281</ele>
        <time>2023-07-18T05:17:40.000Z</time>
      </trkpt>
      <trkpt lat="42.43413" lon="2.12995">
        <ele>2213.6000976562</ele>
        <time>2023-07-18T05:17:41.000Z</time>
      </trkpt>
      <trkpt lat="42.43415" lon="2.12994">
        <ele>2212.3999023438</ele>
        <time>2023-07-18T05:17:44.000Z</time>
      </trkpt>
      <trkpt lat="42.43415" lon="2.12993">
        <ele>2211.6000976562</ele>
        <time>2023-07-18T05:17:47.000Z</time>
      </trkpt>
      <trkpt lat="42.43416" lon="2.12992">
        <ele>2211.1999511719</ele>
        <time>2023-07-18T05:17:48.000Z</time>
      </trkpt>
      <trkpt lat="42.43416" lon="2.12989">
        <ele>2210</ele>
        <time>2023-07-18T05:17:52.000Z</time>
      </trkpt>
      <trkpt lat="42.43418" lon="2.12986">
        <ele>2209.3999023438</ele>
        <time>2023-07-18T05:17:55.000Z</time>
      </trkpt>
      <trkpt lat="42.43419" lon="2.12985">
        <ele>2209</ele>
        <time>2023-07-18T05:17:57.000Z</time>
      </trkpt>
      <trkpt lat="42.43423" lon="2.12986">
        <ele>2208.3999023438</ele>
        <time>2023-07-18T05:18:02.000Z</time>
      </trkpt>
      <trkpt lat="42.43424" lon="2.12987">
        <ele>2208.1999511719</ele>
        <time>2023-07-18T05:18:03.000Z</time>
      </trkpt>
      <trkpt lat="42.43425" lon="2.12987">
        <ele>2208</ele>
        <time>2023-07-18T05:18:04.000Z</time>
      </trkpt>
      <trkpt lat="42.43427" lon="2.12986">
        <ele>2206.8000488281</ele>
        <time>2023-07-18T05:18:09.000Z</time>
      </trkpt>
      <trkpt lat="42.43427" lon="2.12986">
        <ele>2206.6000976562</ele>
        <time>2023-07-18T05:18:10.000Z</time>
      </trkpt>
      <trkpt lat="42.43425" lon="2.12984">
        <ele>2206.1999511719</ele>
        <time>2023-07-18T05:18:12.000Z</time>
      </trkpt>
      <trkpt lat="42.43423" lon="2.12983">
        <ele>2205.6000976562</ele>
        <time>2023-07-18T05:18:14.000Z</time>
      </trkpt>
      <trkpt lat="42.43424" lon="2.12982">
        <ele>2205</ele>
        <time>2023-07-18T05:18:16.000Z</time>
      </trkpt>
      <trkpt lat="42.43424" lon="2.12981">
        <ele>2204.6000976562</ele>
        <time>2023-07-18T05:18:18.000Z</time>
      </trkpt>
      <trkpt lat="42.43425" lon="2.12977">
        <ele>2203.6000976562</ele>
        <time>2023-07-18T05:18:23.000Z</time>
      </trkpt>
      <trkpt lat="42.43424" lon="2.12975">
        <ele>2203.3999023438</ele>
        <time>2023-07-18T05:18:24.000Z</time>
      </trkpt>
      <trkpt lat="42.43423" lon="2.12967">
        <ele>2202.3999023438</ele>
        <time>2023-07-18T05:18:31.000Z</time>
      </trkpt>
      <trkpt lat="42.4342" lon="2.12962">
        <ele>2201.3999023438</ele>
        <time>2023-07-18T05:18:37.000Z</time>
      </trkpt>
      <trkpt lat="42.4342" lon="2.12961">
        <ele>2201.1999511719</ele>
        <time>2023-07-18T05:18:38.000Z</time>
      </trkpt>
      <trkpt lat="42.43421" lon="2.1296">
        <ele>2200.1999511719</ele>
        <time>2023-07-18T05:18:44.000Z</time>
      </trkpt>
      <trkpt lat="42.43422" lon="2.12961">
        <ele>2199.8000488281</ele>
        <time>2023-07-18T05:18:45.000Z</time>
      </trkpt>
      <trkpt lat="42.43426" lon="2.12961">
        <ele>2198.8000488281</ele>
        <time>2023-07-18T05:18:49.000Z</time>
      </trkpt>
      <trkpt lat="42.43429" lon="2.1296">
        <ele>2198.3999023438</ele>
        <time>2023-07-18T05:18:51.000Z</time>
      </trkpt>
      <trkpt lat="42.43431" lon="2.12958">
        <ele>2197.6000976562</ele>
        <time>2023-07-18T05:18:54.000Z</time>
      </trkpt>
      <trkpt lat="42.43431" lon="2.12954">
        <ele>2196.8000488281</ele>
        <time>2023-07-18T05:18:58.000Z</time>
      </trkpt>
      <trkpt lat="42.43431" lon="2.12953">
        <ele>2196.6000976562</ele>
        <time>2023-07-18T05:18:59.000Z</time>
      </trkpt>
      <trkpt lat="42.4343" lon="2.12949">
        <ele>2195.6000976562</ele>
        <time>2023-07-18T05:19:05.000Z</time>
      </trkpt>
      <trkpt lat="42.43432" lon="2.12944">
        <ele>2194.1999511719</ele>
        <time>2023-07-18T05:19:11.000Z</time>
      </trkpt>
      <trkpt lat="42.43432" lon="2.12942">
        <ele>2193.8000488281</ele>
        <time>2023-07-18T05:19:15.000Z</time>
      </trkpt>
      <trkpt lat="42.43433" lon="2.12939">
        <ele>2193.1999511719</ele>
        <time>2023-07-18T05:19:19.000Z</time>
      </trkpt>
      <trkpt lat="42.43433" lon="2.12936">
        <ele>2192.8000488281</ele>
        <time>2023-07-18T05:19:22.000Z</time>
      </trkpt>
      <trkpt lat="42.43434" lon="2.12934">
        <ele>2192.1999511719</ele>
        <time>2023-07-18T05:19:25.000Z</time>
      </trkpt>
      <trkpt lat="42.43437" lon="2.12927">
        <ele>2191.1999511719</ele>
        <time>2023-07-18T05:19:30.000Z</time>
      </trkpt>
      <trkpt lat="42.43438" lon="2.12924">
        <ele>2191</ele>
        <time>2023-07-18T05:19:32.000Z</time>
      </trkpt>
      <trkpt lat="42.43436" lon="2.1292">
        <ele>2190.1999511719</ele>
        <time>2023-07-18T05:19:39.000Z</time>
      </trkpt>
      <trkpt lat="42.43437" lon="2.12919">
        <ele>2189.8000488281</ele>
        <time>2023-07-18T05:19:40.000Z</time>
      </trkpt>
      <trkpt lat="42.4344" lon="2.12916">
        <ele>2188.8000488281</ele>
        <time>2023-07-18T05:19:46.000Z</time>
      </trkpt>
      <trkpt lat="42.43445" lon="2.12907">
        <ele>2187.8000488281</ele>
        <time>2023-07-18T05:19:54.000Z</time>
      </trkpt>
      <trkpt lat="42.43446" lon="2.12906">
        <ele>2187.8000488281</ele>
        <time>2023-07-18T05:19:57.000Z</time>
      </trkpt>
      <trkpt lat="42.43448" lon="2.12903">
        <ele>2187.3999023438</ele>
        <time>2023-07-18T05:20:01.000Z</time>
      </trkpt>
      <trkpt lat="42.4345" lon="2.12897">
        <ele>2186.8000488281</ele>
        <time>2023-07-18T05:20:06.000Z</time>
      </trkpt>
      <trkpt lat="42.43451" lon="2.12896">
        <ele>2186.6000976562</ele>
        <time>2023-07-18T05:20:08.000Z</time>
      </trkpt>
      <trkpt lat="42.43456" lon="2.12891">
        <ele>2185.8000488281</ele>
        <time>2023-07-18T05:20:14.000Z</time>
      </trkpt>
      <trkpt lat="42.43457" lon="2.12891">
        <ele>2185.3999023438</ele>
        <time>2023-07-18T05:20:15.000Z</time>
      </trkpt>
      <trkpt lat="42.43455" lon="2.12888">
        <ele>2184.6000976562</ele>
        <time>2023-07-18T05:20:19.000Z</time>
      </trkpt>
      <trkpt lat="42.43455" lon="2.12885">
        <ele>2184.3999023438</ele>
        <time>2023-07-18T05:20:23.000Z</time>
      </trkpt>
      <trkpt lat="42.43455" lon="2.12885">
        <ele>2183.3999023438</ele>
        <time>2023-07-18T05:20:27.000Z</time>
      </trkpt>
      <trkpt lat="42.43457" lon="2.12886">
        <ele>2182.6000976562</ele>
        <time>2023-07-18T05:20:31.000Z</time>
      </trkpt>
      <trkpt lat="42.43459" lon="2.12884">
        <ele>2182.1999511719</ele>
        <time>2023-07-18T05:20:33.000Z</time>
      </trkpt>
      <trkpt lat="42.43461" lon="2.12877">
        <ele>2181.3999023438</ele>
        <time>2023-07-18T05:20:37.000Z</time>
      </trkpt>
      <trkpt lat="42.43461" lon="2.12875">
        <ele>2181.1999511719</ele>
        <time>2023-07-18T05:20:38.000Z</time>
      </trkpt>
      <trkpt lat="42.4346" lon="2.12867">
        <ele>2180.1999511719</ele>
        <time>2023-07-18T05:20:44.000Z</time>
      </trkpt>
      <trkpt lat="42.4346" lon="2.12866">
        <ele>2180.1999511719</ele>
        <time>2023-07-18T05:20:45.000Z</time>
      </trkpt>
      <trkpt lat="42.4346" lon="2.12852">
        <ele>2179.1999511719</ele>
        <time>2023-07-18T05:20:54.000Z</time>
      </trkpt>
      <trkpt lat="42.4346" lon="2.12842">
        <ele>2178.3999023438</ele>
        <time>2023-07-18T05:21:02.000Z</time>
      </trkpt>
      <trkpt lat="42.43461" lon="2.12838">
        <ele>2178</ele>
        <time>2023-07-18T05:21:04.000Z</time>
      </trkpt>
      <trkpt lat="42.43461" lon="2.12829">
        <ele>2177.3999023438</ele>
        <time>2023-07-18T05:21:10.000Z</time>
      </trkpt>
      <trkpt lat="42.43462" lon="2.12828">
        <ele>2177.1999511719</ele>
        <time>2023-07-18T05:21:17.000Z</time>
      </trkpt>
      <trkpt lat="42.43465" lon="2.12829">
        <ele>2176.8000488281</ele>
        <time>2023-07-18T05:21:20.000Z</time>
      </trkpt>
      <trkpt lat="42.43469" lon="2.12828">
        <ele>2176.1999511719</ele>
        <time>2023-07-18T05:21:24.000Z</time>
      </trkpt>
      <trkpt lat="42.4347" lon="2.12824">
        <ele>2175.8000488281</ele>
        <time>2023-07-18T05:21:27.000Z</time>
      </trkpt>
      <trkpt lat="42.4347" lon="2.12817">
        <ele>2175.3999023438</ele>
        <time>2023-07-18T05:21:31.000Z</time>
      </trkpt>
      <trkpt lat="42.43469" lon="2.12809">
        <ele>2175</ele>
        <time>2023-07-18T05:21:39.000Z</time>
      </trkpt>
      <trkpt lat="42.43471" lon="2.12804">
        <ele>2174.6000976562</ele>
        <time>2023-07-18T05:21:43.000Z</time>
      </trkpt>
      <trkpt lat="42.43473" lon="2.128">
        <ele>2174.1999511719</ele>
        <time>2023-07-18T05:21:46.000Z</time>
      </trkpt>
      <trkpt lat="42.43474" lon="2.12792">
        <ele>2173.3999023438</ele>
        <time>2023-07-18T05:21:52.000Z</time>
      </trkpt>
      <trkpt lat="42.43475" lon="2.12788">
        <ele>2173.1999511719</ele>
        <time>2023-07-18T05:21:55.000Z</time>
      </trkpt>
      <trkpt lat="42.43476" lon="2.12783">
        <ele>2173</ele>
        <time>2023-07-18T05:22:01.000Z</time>
      </trkpt>
      <trkpt lat="42.43477" lon="2.12776">
        <ele>2172.8000488281</ele>
        <time>2023-07-18T05:22:07.000Z</time>
      </trkpt>
      <trkpt lat="42.43479" lon="2.12769">
        <ele>2172.3999023438</ele>
        <time>2023-07-18T05:22:13.000Z</time>
      </trkpt>
      <trkpt lat="42.43481" lon="2.12767">
        <ele>2172.1999511719</ele>
        <time>2023-07-18T05:22:17.000Z</time>
      </trkpt>
      <trkpt lat="42.43484" lon="2.12762">
        <ele>2171.3999023438</ele>
        <time>2023-07-18T05:22:22.000Z</time>
      </trkpt>
      <trkpt lat="42.43486" lon="2.12756">
        <ele>2171</ele>
        <time>2023-07-18T05:22:26.000Z</time>
      </trkpt>
      <trkpt lat="42.43488" lon="2.12745">
        <ele>2170.6000976562</ele>
        <time>2023-07-18T05:22:34.000Z</time>
      </trkpt>
      <trkpt lat="42.43489" lon="2.12743">
        <ele>2170.3999023438</ele>
        <time>2023-07-18T05:22:35.000Z</time>
      </trkpt>
      <trkpt lat="42.4349" lon="2.12738">
        <ele>2169.6000976562</ele>
        <time>2023-07-18T05:22:40.000Z</time>
      </trkpt>
      <trkpt lat="42.43491" lon="2.12737">
        <ele>2169.3999023438</ele>
        <time>2023-07-18T05:22:42.000Z</time>
      </trkpt>
      <trkpt lat="42.43494" lon="2.1273">
        <ele>2168.6000976562</ele>
        <time>2023-07-18T05:22:48.000Z</time>
      </trkpt>
      <trkpt lat="42.43495" lon="2.12726">
        <ele>2168.3999023438</ele>
        <time>2023-07-18T05:22:51.000Z</time>
      </trkpt>
      <trkpt lat="42.43497" lon="2.12716">
        <ele>2167.6000976562</ele>
        <time>2023-07-18T05:22:57.000Z</time>
      </trkpt>
      <trkpt lat="42.43497" lon="2.12714">
        <ele>2167.1999511719</ele>
        <time>2023-07-18T05:22:59.000Z</time>
      </trkpt>
      <trkpt lat="42.43498" lon="2.12705">
        <ele>2166.3999023438</ele>
        <time>2023-07-18T05:23:06.000Z</time>
      </trkpt>
      <trkpt lat="42.43498" lon="2.12703">
        <ele>2166.1999511719</ele>
        <time>2023-07-18T05:23:07.000Z</time>
      </trkpt>
      <trkpt lat="42.43501" lon="2.12694">
        <ele>2165.8000488281</ele>
        <time>2023-07-18T05:23:14.000Z</time>
      </trkpt>
      <trkpt lat="42.43503" lon="2.12686">
        <ele>2166</ele>
        <time>2023-07-18T05:23:22.000Z</time>
      </trkpt>
      <trkpt lat="42.43508" lon="2.12679">
        <ele>2165.1999511719</ele>
        <time>2023-07-18T05:23:29.000Z</time>
      </trkpt>
      <trkpt lat="42.43509" lon="2.12678">
        <ele>2164.8000488281</ele>
        <time>2023-07-18T05:23:30.000Z</time>
      </trkpt>
      <trkpt lat="42.43511" lon="2.12674">
        <ele>2164.1999511719</ele>
        <time>2023-07-18T05:23:33.000Z</time>
      </trkpt>
      <trkpt lat="42.43515" lon="2.12666">
        <ele>2164</ele>
        <time>2023-07-18T05:23:39.000Z</time>
      </trkpt>
      <trkpt lat="42.43525" lon="2.12657">
        <ele>2165</ele>
        <time>2023-07-18T05:23:49.000Z</time>
      </trkpt>
      <trkpt lat="42.43529" lon="2.12651">
        <ele>2165.1999511719</ele>
        <time>2023-07-18T05:23:56.000Z</time>
      </trkpt>
      <trkpt lat="42.4353" lon="2.12651">
        <ele>2165.3999023438</ele>
        <time>2023-07-18T05:23:57.000Z</time>
      </trkpt>
      <trkpt lat="42.43533" lon="2.12648">
        <ele>2165.3999023438</ele>
        <time>2023-07-18T05:24:03.000Z</time>
      </trkpt>
      <trkpt lat="42.43542" lon="2.12641">
        <ele>2164.6000976562</ele>
        <time>2023-07-18T05:24:11.000Z</time>
      </trkpt>
      <trkpt lat="42.43548" lon="2.12627">
        <ele>2164.1999511719</ele>
        <time>2023-07-18T05:24:21.000Z</time>
      </trkpt>
      <trkpt lat="42.43554" lon="2.12619">
        <ele>2163.3999023438</ele>
        <time>2023-07-18T05:24:29.000Z</time>
      </trkpt>
      <trkpt lat="42.43555" lon="2.12617">
        <ele>2163.1999511719</ele>
        <time>2023-07-18T05:24:31.000Z</time>
      </trkpt>
      <trkpt lat="42.43559" lon="2.12611">
        <ele>2162.6000976562</ele>
        <time>2023-07-18T05:24:36.000Z</time>
      </trkpt>
      <trkpt lat="42.43566" lon="2.12602">
        <ele>2162.1999511719</ele>
        <time>2023-07-18T05:24:44.000Z</time>
      </trkpt>
      <trkpt lat="42.43567" lon="2.12601">
        <ele>2162.1999511719</ele>
        <time>2023-07-18T05:24:45.000Z</time>
      </trkpt>
      <trkpt lat="42.43574" lon="2.12592">
        <ele>2161.3999023438</ele>
        <time>2023-07-18T05:24:53.000Z</time>
      </trkpt>
      <trkpt lat="42.43578" lon="2.12587">
        <ele>2161.1999511719</ele>
        <time>2023-07-18T05:24:58.000Z</time>
      </trkpt>
      <trkpt lat="42.4358" lon="2.12584">
        <ele>2161.3999023438</ele>
        <time>2023-07-18T05:25:02.000Z</time>
      </trkpt>
      <trkpt lat="42.43583" lon="2.12576">
        <ele>2160.6000976562</ele>
        <time>2023-07-18T05:25:10.000Z</time>
      </trkpt>
      <trkpt lat="42.43586" lon="2.12569">
        <ele>2160</ele>
        <time>2023-07-18T05:25:15.000Z</time>
      </trkpt>
      <trkpt lat="42.43586" lon="2.12563">
        <ele>2159.6000976562</ele>
        <time>2023-07-18T05:25:19.000Z</time>
      </trkpt>
      <trkpt lat="42.43591" lon="2.12557">
        <ele>2160</ele>
        <time>2023-07-18T05:25:28.000Z</time>
      </trkpt>
      <trkpt lat="42.43596" lon="2.12555">
        <ele>2159</ele>
        <time>2023-07-18T05:25:34.000Z</time>
      </trkpt>
      <trkpt lat="42.43597" lon="2.12554">
        <ele>2158.8000488281</ele>
        <time>2023-07-18T05:25:36.000Z</time>
      </trkpt>
      <trkpt lat="42.436" lon="2.12552">
        <ele>2157.8000488281</ele>
        <time>2023-07-18T05:25:40.000Z</time>
      </trkpt>
      <trkpt lat="42.43607" lon="2.12547">
        <ele>2157</ele>
        <time>2023-07-18T05:25:46.000Z</time>
      </trkpt>
      <trkpt lat="42.4361" lon="2.12546">
        <ele>2156.6000976562</ele>
        <time>2023-07-18T05:25:48.000Z</time>
      </trkpt>
      <trkpt lat="42.43618" lon="2.12543">
        <ele>2156.6000976562</ele>
        <time>2023-07-18T05:25:56.000Z</time>
      </trkpt>
      <trkpt lat="42.43627" lon="2.12537">
        <ele>2156</ele>
        <time>2023-07-18T05:26:05.000Z</time>
      </trkpt>
      <trkpt lat="42.43634" lon="2.12531">
        <ele>2155.8000488281</ele>
        <time>2023-07-18T05:26:13.000Z</time>
      </trkpt>
      <trkpt lat="42.43634" lon="2.1253">
        <ele>2155.6000976562</ele>
        <time>2023-07-18T05:26:14.000Z</time>
      </trkpt>
      <trkpt lat="42.43641" lon="2.12523">
        <ele>2154.6000976562</ele>
        <time>2023-07-18T05:26:22.000Z</time>
      </trkpt>
      <trkpt lat="42.43642" lon="2.12522">
        <ele>2154.6000976562</ele>
        <time>2023-07-18T05:26:23.000Z</time>
      </trkpt>
      <trkpt lat="42.43648" lon="2.12513">
        <ele>2153.3999023438</ele>
        <time>2023-07-18T05:26:30.000Z</time>
      </trkpt>
      <trkpt lat="42.43651" lon="2.12506">
        <ele>2152.1999511719</ele>
        <time>2023-07-18T05:26:36.000Z</time>
      </trkpt>
      <trkpt lat="42.43652" lon="2.12504">
        <ele>2151.6000976562</ele>
        <time>2023-07-18T05:26:38.000Z</time>
      </trkpt>
      <trkpt lat="42.43654" lon="2.12499">
        <ele>2151</ele>
        <time>2023-07-18T05:26:42.000Z</time>
      </trkpt>
      <trkpt lat="42.43657" lon="2.12496">
        <ele>2150.1999511719</ele>
        <time>2023-07-18T05:26:46.000Z</time>
      </trkpt>
      <trkpt lat="42.43658" lon="2.12495">
        <ele>2149.8000488281</ele>
        <time>2023-07-18T05:26:48.000Z</time>
      </trkpt>
      <trkpt lat="42.43663" lon="2.12487">
        <ele>2149.1999511719</ele>
        <time>2023-07-18T05:26:54.000Z</time>
      </trkpt>
      <trkpt lat="42.43663" lon="2.12485">
        <ele>2148.8000488281</ele>
        <time>2023-07-18T05:26:56.000Z</time>
      </trkpt>
      <trkpt lat="42.43664" lon="2.12476">
        <ele>2148.3999023438</ele>
        <time>2023-07-18T05:27:03.000Z</time>
      </trkpt>
      <trkpt lat="42.43664" lon="2.12472">
        <ele>2148.1999511719</ele>
        <time>2023-07-18T05:27:09.000Z</time>
      </trkpt>
      <trkpt lat="42.43659" lon="2.12469">
        <ele>2148.1999511719</ele>
        <time>2023-07-18T05:27:20.000Z</time>
      </trkpt>
      <trkpt lat="42.43659" lon="2.1247">
        <ele>2148.1999511719</ele>
        <time>2023-07-18T05:27:27.000Z</time>
      </trkpt>
      <trkpt lat="42.43667" lon="2.12462">
        <ele>2148</ele>
        <time>2023-07-18T05:27:33.000Z</time>
      </trkpt>
      <trkpt lat="42.43669" lon="2.12458">
        <ele>2147.6000976562</ele>
        <time>2023-07-18T05:27:36.000Z</time>
      </trkpt>
      <trkpt lat="42.4367" lon="2.12454">
        <ele>2147.1999511719</ele>
        <time>2023-07-18T05:27:39.000Z</time>
      </trkpt>
      <trkpt lat="42.43674" lon="2.12442">
        <ele>2146.8000488281</ele>
        <time>2023-07-18T05:27:48.000Z</time>
      </trkpt>
      <trkpt lat="42.43678" lon="2.12443">
        <ele>2146.6000976562</ele>
        <time>2023-07-18T05:27:53.000Z</time>
      </trkpt>
      <trkpt lat="42.43679" lon="2.12441">
        <ele>2146.1999511719</ele>
        <time>2023-07-18T05:27:55.000Z</time>
      </trkpt>
      <trkpt lat="42.43685" lon="2.12431">
        <ele>2145.6000976562</ele>
        <time>2023-07-18T05:28:04.000Z</time>
      </trkpt>
      <trkpt lat="42.4369" lon="2.1242">
        <ele>2145.8000488281</ele>
        <time>2023-07-18T05:28:14.000Z</time>
      </trkpt>
      <trkpt lat="42.43693" lon="2.12417">
        <ele>2145.3999023438</ele>
        <time>2023-07-18T05:28:17.000Z</time>
      </trkpt>
      <trkpt lat="42.437" lon="2.1241">
        <ele>2144.6000976562</ele>
        <time>2023-07-18T05:28:24.000Z</time>
      </trkpt>
      <trkpt lat="42.43711" lon="2.12406">
        <ele>2144.6000976562</ele>
        <time>2023-07-18T05:28:31.000Z</time>
      </trkpt>
      <trkpt lat="42.43717" lon="2.12397">
        <ele>2145.1999511719</ele>
        <time>2023-07-18T05:28:40.000Z</time>
      </trkpt>
      <trkpt lat="42.43719" lon="2.12387">
        <ele>2145</ele>
        <time>2023-07-18T05:28:48.000Z</time>
      </trkpt>
      <trkpt lat="42.43723" lon="2.12373">
        <ele>2144.6000976562</ele>
        <time>2023-07-18T05:28:56.000Z</time>
      </trkpt>
      <trkpt lat="42.43723" lon="2.12366">
        <ele>2144.3999023438</ele>
        <time>2023-07-18T05:29:01.000Z</time>
      </trkpt>
      <trkpt lat="42.43726" lon="2.12361">
        <ele>2143.8000488281</ele>
        <time>2023-07-18T05:29:05.000Z</time>
      </trkpt>
      <trkpt lat="42.43732" lon="2.12354">
        <ele>2143.8000488281</ele>
        <time>2023-07-18T05:29:12.000Z</time>
      </trkpt>
      <trkpt lat="42.43735" lon="2.12346">
        <ele>2144.8000488281</ele>
        <time>2023-07-18T05:29:19.000Z</time>
      </trkpt>
      <trkpt lat="42.43738" lon="2.12337">
        <ele>2145</ele>
        <time>2023-07-18T05:29:28.000Z</time>
      </trkpt>
      <trkpt lat="42.43743" lon="2.1233">
        <ele>2143.6000976562</ele>
        <time>2023-07-18T05:29:36.000Z</time>
      </trkpt>
      <trkpt lat="42.43747" lon="2.12329">
        <ele>2143.3999023438</ele>
        <time>2023-07-18T05:29:39.000Z</time>
      </trkpt>
      <trkpt lat="42.43751" lon="2.12324">
        <ele>2142.1999511719</ele>
        <time>2023-07-18T05:29:45.000Z</time>
      </trkpt>
      <trkpt lat="42.43754" lon="2.12317">
        <ele>2141.1999511719</ele>
        <time>2023-07-18T05:29:51.000Z</time>
      </trkpt>
      <trkpt lat="42.43756" lon="2.12316">
        <ele>2141.1999511719</ele>
        <time>2023-07-18T05:29:53.000Z</time>
      </trkpt>
      <trkpt lat="42.43762" lon="2.12307">
        <ele>2140.1999511719</ele>
        <time>2023-07-18T05:30:01.000Z</time>
      </trkpt>
      <trkpt lat="42.43763" lon="2.12305">
        <ele>2140.1999511719</ele>
        <time>2023-07-18T05:30:02.000Z</time>
      </trkpt>
      <trkpt lat="42.43767" lon="2.12297">
        <ele>2139.6000976562</ele>
        <time>2023-07-18T05:30:09.000Z</time>
      </trkpt>
      <trkpt lat="42.43773" lon="2.12285">
        <ele>2139.3999023438</ele>
        <time>2023-07-18T05:30:18.000Z</time>
      </trkpt>
      <trkpt lat="42.43777" lon="2.12279">
        <ele>2139.1999511719</ele>
        <time>2023-07-18T05:30:22.000Z</time>
      </trkpt>
      <trkpt lat="42.43781" lon="2.12273">
        <ele>2139.1999511719</ele>
        <time>2023-07-18T05:30:27.000Z</time>
      </trkpt>
      <trkpt lat="42.43782" lon="2.12273">
        <ele>2139</ele>
        <time>2023-07-18T05:30:33.000Z</time>
      </trkpt>
      <trkpt lat="42.43782" lon="2.12273">
        <ele>2139</ele>
        <time>2023-07-18T05:30:35.000Z</time>
      </trkpt>
      <trkpt lat="42.43781" lon="2.12273">
        <ele>2139</ele>
        <time>2023-07-18T05:30:39.000Z</time>
      </trkpt>
      <trkpt lat="42.4378" lon="2.12269">
        <ele>2139</ele>
        <time>2023-07-18T05:30:46.000Z</time>
      </trkpt>
      <trkpt lat="42.43781" lon="2.12266">
        <ele>2139</ele>
        <time>2023-07-18T05:30:54.000Z</time>
      </trkpt>
      <trkpt lat="42.43782" lon="2.12266">
        <ele>2139</ele>
        <time>2023-07-18T05:31:01.000Z</time>
      </trkpt>
      <trkpt lat="42.4378" lon="2.12268">
        <ele>2139</ele>
        <time>2023-07-18T05:31:08.000Z</time>
      </trkpt>
      <trkpt lat="42.4378" lon="2.12266">
        <ele>2139.1999511719</ele>
        <time>2023-07-18T05:31:13.000Z</time>
      </trkpt>
      <trkpt lat="42.43779" lon="2.12262">
        <ele>2139.1999511719</ele>
        <time>2023-07-18T05:31:21.000Z</time>
      </trkpt>
      <trkpt lat="42.43779" lon="2.12264">
        <ele>2139.3999023438</ele>
        <time>2023-07-18T05:31:30.000Z</time>
      </trkpt>
      <trkpt lat="42.43782" lon="2.12268">
        <ele>2139.3999023438</ele>
        <time>2023-07-18T05:31:36.000Z</time>
      </trkpt>
      <trkpt lat="42.43787" lon="2.12268">
        <ele>2139.3999023438</ele>
        <time>2023-07-18T05:31:44.000Z</time>
      </trkpt>
      <trkpt lat="42.4379" lon="2.12264">
        <ele>2139.1999511719</ele>
        <time>2023-07-18T05:31:51.000Z</time>
      </trkpt>
      <trkpt lat="42.43787" lon="2.12262">
        <ele>2139.3999023438</ele>
        <time>2023-07-18T05:31:59.000Z</time>
      </trkpt>
      <trkpt lat="42.43786" lon="2.12261">
        <ele>2139.6000976562</ele>
        <time>2023-07-18T05:32:09.000Z</time>
      </trkpt>
      <trkpt lat="42.43784" lon="2.12259">
        <ele>2140</ele>
        <time>2023-07-18T05:32:17.000Z</time>
      </trkpt>
      <trkpt lat="42.43784" lon="2.12259">
        <ele>2140</ele>
        <time>2023-07-18T05:32:22.000Z</time>
      </trkpt>
      <trkpt lat="42.43785" lon="2.12259">
        <ele>2140.1999511719</ele>
        <time>2023-07-18T05:32:32.000Z</time>
      </trkpt>
      <trkpt lat="42.43785" lon="2.12259">
        <ele>2140.1999511719</ele>
        <time>2023-07-18T05:32:37.000Z</time>
      </trkpt>
      <trkpt lat="42.43785" lon="2.12261">
        <ele>2140.3999023438</ele>
        <time>2023-07-18T05:32:42.000Z</time>
      </trkpt>
      <trkpt lat="42.43783" lon="2.12261">
        <ele>2140.3999023438</ele>
        <time>2023-07-18T05:32:50.000Z</time>
      </trkpt>
      <trkpt lat="42.43784" lon="2.12259">
        <ele>2140.3999023438</ele>
        <time>2023-07-18T05:32:56.000Z</time>
      </trkpt>
      <trkpt lat="42.43786" lon="2.1226">
        <ele>2139.8000488281</ele>
        <time>2023-07-18T05:33:04.000Z</time>
      </trkpt>
      <trkpt lat="42.43795" lon="2.12259">
        <ele>2139.6000976562</ele>
        <time>2023-07-18T05:33:12.000Z</time>
      </trkpt>
      <trkpt lat="42.43797" lon="2.12258">
        <ele>2139.1999511719</ele>
        <time>2023-07-18T05:33:15.000Z</time>
      </trkpt>
      <trkpt lat="42.43803" lon="2.12259">
        <ele>2138.6000976562</ele>
        <time>2023-07-18T05:33:21.000Z</time>
      </trkpt>
      <trkpt lat="42.43809" lon="2.12258">
        <ele>2138.3999023438</ele>
        <time>2023-07-18T05:33:28.000Z</time>
      </trkpt>
      <trkpt lat="42.43818" lon="2.12258">
        <ele>2138.1999511719</ele>
        <time>2023-07-18T05:33:36.000Z</time>
      </trkpt>
      <trkpt lat="42.43828" lon="2.12255">
        <ele>2137.1999511719</ele>
        <time>2023-07-18T05:33:46.000Z</time>
      </trkpt>
      <trkpt lat="42.43832" lon="2.12252">
        <ele>2137</ele>
        <time>2023-07-18T05:33:51.000Z</time>
      </trkpt>
      <trkpt lat="42.43833" lon="2.12252">
        <ele>2136.8000488281</ele>
        <time>2023-07-18T05:33:52.000Z</time>
      </trkpt>
      <trkpt lat="42.43843" lon="2.12249">
        <ele>2136.3999023438</ele>
        <time>2023-07-18T05:34:01.000Z</time>
      </trkpt>
      <trkpt lat="42.43846" lon="2.12249">
        <ele>2136</ele>
        <time>2023-07-18T05:34:05.000Z</time>
      </trkpt>
      <trkpt lat="42.43852" lon="2.12246">
        <ele>2135.8000488281</ele>
        <time>2023-07-18T05:34:10.000Z</time>
      </trkpt>
      <trkpt lat="42.43858" lon="2.1224">
        <ele>2135.6000976562</ele>
        <time>2023-07-18T05:34:18.000Z</time>
      </trkpt>
      <trkpt lat="42.43865" lon="2.12237">
        <ele>2135.3999023438</ele>
        <time>2023-07-18T05:34:26.000Z</time>
      </trkpt>
      <trkpt lat="42.43869" lon="2.12236">
        <ele>2135</ele>
        <time>2023-07-18T05:34:30.000Z</time>
      </trkpt>
      <trkpt lat="42.43874" lon="2.12235">
        <ele>2134.3999023438</ele>
        <time>2023-07-18T05:34:34.000Z</time>
      </trkpt>
      <trkpt lat="42.43878" lon="2.12232">
        <ele>2134</ele>
        <time>2023-07-18T05:34:38.000Z</time>
      </trkpt>
      <trkpt lat="42.43881" lon="2.12228">
        <ele>2134</ele>
        <time>2023-07-18T05:34:43.000Z</time>
      </trkpt>
      <trkpt lat="42.43887" lon="2.12222">
        <ele>2133.8000488281</ele>
        <time>2023-07-18T05:34:52.000Z</time>
      </trkpt>
      <trkpt lat="42.43895" lon="2.12215">
        <ele>2133.3999023438</ele>
        <time>2023-07-18T05:35:00.000Z</time>
      </trkpt>
      <trkpt lat="42.43902" lon="2.12209">
        <ele>2133.3999023438</ele>
        <time>2023-07-18T05:35:08.000Z</time>
      </trkpt>
      <trkpt lat="42.43908" lon="2.12201">
        <ele>2133</ele>
        <time>2023-07-18T05:35:15.000Z</time>
      </trkpt>
      <trkpt lat="42.43909" lon="2.122">
        <ele>2132.8000488281</ele>
        <time>2023-07-18T05:35:16.000Z</time>
      </trkpt>
      <trkpt lat="42.43914" lon="2.12189">
        <ele>2132.3999023438</ele>
        <time>2023-07-18T05:35:25.000Z</time>
      </trkpt>
      <trkpt lat="42.43922" lon="2.12178">
        <ele>2132.1999511719</ele>
        <time>2023-07-18T05:35:34.000Z</time>
      </trkpt>
      <trkpt lat="42.43927" lon="2.12167">
        <ele>2132.1999511719</ele>
        <time>2023-07-18T05:35:43.000Z</time>
      </trkpt>
      <trkpt lat="42.43935" lon="2.12159">
        <ele>2132</ele>
        <time>2023-07-18T05:35:52.000Z</time>
      </trkpt>
      <trkpt lat="42.43942" lon="2.12148">
        <ele>2131.6000976562</ele>
        <time>2023-07-18T05:36:00.000Z</time>
      </trkpt>
      <trkpt lat="42.43946" lon="2.12138">
        <ele>2131.3999023438</ele>
        <time>2023-07-18T05:36:07.000Z</time>
      </trkpt>
      <trkpt lat="42.43955" lon="2.12129">
        <ele>2131.6000976562</ele>
        <time>2023-07-18T05:36:17.000Z</time>
      </trkpt>
      <trkpt lat="42.43968" lon="2.12127">
        <ele>2132.3999023438</ele>
        <time>2023-07-18T05:36:27.000Z</time>
      </trkpt>
      <trkpt lat="42.43974" lon="2.12121">
        <ele>2132.8000488281</ele>
        <time>2023-07-18T05:36:36.000Z</time>
      </trkpt>
      <trkpt lat="42.43977" lon="2.12115">
        <ele>2133</ele>
        <time>2023-07-18T05:36:41.000Z</time>
      </trkpt>
      <trkpt lat="42.43979" lon="2.12111">
        <ele>2133</ele>
        <time>2023-07-18T05:36:44.000Z</time>
      </trkpt>
      <trkpt lat="42.43983" lon="2.12103">
        <ele>2133.1999511719</ele>
        <time>2023-07-18T05:36:52.000Z</time>
      </trkpt>
      <trkpt lat="42.43992" lon="2.1209">
        <ele>2133.1999511719</ele>
        <time>2023-07-18T05:37:02.000Z</time>
      </trkpt>
      <trkpt lat="42.44" lon="2.12084">
        <ele>2133.3999023438</ele>
        <time>2023-07-18T05:37:11.000Z</time>
      </trkpt>
      <trkpt lat="42.44008" lon="2.12077">
        <ele>2133.3999023438</ele>
        <time>2023-07-18T05:37:20.000Z</time>
      </trkpt>
      <trkpt lat="42.44014" lon="2.12072">
        <ele>2133.3999023438</ele>
        <time>2023-07-18T05:37:28.000Z</time>
      </trkpt>
      <trkpt lat="42.4402" lon="2.1207">
        <ele>2133.3999023438</ele>
        <time>2023-07-18T05:37:35.000Z</time>
      </trkpt>
      <trkpt lat="42.44027" lon="2.12064">
        <ele>2133</ele>
        <time>2023-07-18T05:37:42.000Z</time>
      </trkpt>
      <trkpt lat="42.44028" lon="2.12055">
        <ele>2133.1999511719</ele>
        <time>2023-07-18T05:37:50.000Z</time>
      </trkpt>
      <trkpt lat="42.44032" lon="2.12047">
        <ele>2132.8000488281</ele>
        <time>2023-07-18T05:37:57.000Z</time>
      </trkpt>
      <trkpt lat="42.44032" lon="2.12044">
        <ele>2132</ele>
        <time>2023-07-18T05:38:02.000Z</time>
      </trkpt>
      <trkpt lat="42.44033" lon="2.12044">
        <ele>2131.3999023438</ele>
        <time>2023-07-18T05:38:05.000Z</time>
      </trkpt>
      <trkpt lat="42.44034" lon="2.12044">
        <ele>2130.8000488281</ele>
        <time>2023-07-18T05:38:08.000Z</time>
      </trkpt>
      <trkpt lat="42.44036" lon="2.12043">
        <ele>2129.8000488281</ele>
        <time>2023-07-18T05:38:13.000Z</time>
      </trkpt>
      <trkpt lat="42.44041" lon="2.12039">
        <ele>2128.6000976562</ele>
        <time>2023-07-18T05:38:18.000Z</time>
      </trkpt>
      <trkpt lat="42.44042" lon="2.12038">
        <ele>2128.3999023438</ele>
        <time>2023-07-18T05:38:20.000Z</time>
      </trkpt>
      <trkpt lat="42.44045" lon="2.12035">
        <ele>2127.6000976562</ele>
        <time>2023-07-18T05:38:24.000Z</time>
      </trkpt>
      <trkpt lat="42.44047" lon="2.1203">
        <ele>2126.6000976562</ele>
        <time>2023-07-18T05:38:30.000Z</time>
      </trkpt>
      <trkpt lat="42.44048" lon="2.12029">
        <ele>2126.3999023438</ele>
        <time>2023-07-18T05:38:31.000Z</time>
      </trkpt>
      <trkpt lat="42.44051" lon="2.12023">
        <ele>2125.3999023438</ele>
        <time>2023-07-18T05:38:38.000Z</time>
      </trkpt>
      <trkpt lat="42.44054" lon="2.12018">
        <ele>2124.3999023438</ele>
        <time>2023-07-18T05:38:45.000Z</time>
      </trkpt>
      <trkpt lat="42.44055" lon="2.12017">
        <ele>2124</ele>
        <time>2023-07-18T05:38:47.000Z</time>
      </trkpt>
      <trkpt lat="42.4406" lon="2.12015">
        <ele>2123.3999023438</ele>
        <time>2023-07-18T05:38:53.000Z</time>
      </trkpt>
      <trkpt lat="42.44061" lon="2.12016">
        <ele>2123.1999511719</ele>
        <time>2023-07-18T05:38:54.000Z</time>
      </trkpt>
      <trkpt lat="42.44067" lon="2.12015">
        <ele>2122.1999511719</ele>
        <time>2023-07-18T05:38:59.000Z</time>
      </trkpt>
      <trkpt lat="42.44071" lon="2.12014">
        <ele>2121.6000976562</ele>
        <time>2023-07-18T05:39:02.000Z</time>
      </trkpt>
      <trkpt lat="42.44074" lon="2.12012">
        <ele>2121.1999511719</ele>
        <time>2023-07-18T05:39:05.000Z</time>
      </trkpt>
      <trkpt lat="42.44077" lon="2.12008">
        <ele>2120.3999023438</ele>
        <time>2023-07-18T05:39:10.000Z</time>
      </trkpt>
      <trkpt lat="42.44078" lon="2.12007">
        <ele>2120</ele>
        <time>2023-07-18T05:39:12.000Z</time>
      </trkpt>
      <trkpt lat="42.44081" lon="2.12002">
        <ele>2119</ele>
        <time>2023-07-18T05:39:18.000Z</time>
      </trkpt>
      <trkpt lat="42.44081" lon="2.12001">
        <ele>2118.8000488281</ele>
        <time>2023-07-18T05:39:19.000Z</time>
      </trkpt>
      <trkpt lat="42.44086" lon="2.11999">
        <ele>2118</ele>
        <time>2023-07-18T05:39:25.000Z</time>
      </trkpt>
      <trkpt lat="42.44089" lon="2.11997">
        <ele>2117.3999023438</ele>
        <time>2023-07-18T05:39:28.000Z</time>
      </trkpt>
      <trkpt lat="42.44091" lon="2.11992">
        <ele>2116.8000488281</ele>
        <time>2023-07-18T05:39:32.000Z</time>
      </trkpt>
      <trkpt lat="42.44094" lon="2.11986">
        <ele>2116.1999511719</ele>
        <time>2023-07-18T05:39:37.000Z</time>
      </trkpt>
      <trkpt lat="42.44101" lon="2.11979">
        <ele>2115.8000488281</ele>
        <time>2023-07-18T05:39:45.000Z</time>
      </trkpt>
      <trkpt lat="42.44102" lon="2.11978">
        <ele>2115.8000488281</ele>
        <time>2023-07-18T05:39:46.000Z</time>
      </trkpt>
      <trkpt lat="42.44108" lon="2.11972">
        <ele>2115.3999023438</ele>
        <time>2023-07-18T05:39:52.000Z</time>
      </trkpt>
      <trkpt lat="42.44111" lon="2.11965">
        <ele>2114.6000976562</ele>
        <time>2023-07-18T05:39:59.000Z</time>
      </trkpt>
      <trkpt lat="42.44113" lon="2.11962">
        <ele>2114.3999023438</ele>
        <time>2023-07-18T05:40:01.000Z</time>
      </trkpt>
      <trkpt lat="42.44118" lon="2.11957">
        <ele>2113.6000976562</ele>
        <time>2023-07-18T05:40:09.000Z</time>
      </trkpt>
      <trkpt lat="42.44118" lon="2.11956">
        <ele>2113.3999023438</ele>
        <time>2023-07-18T05:40:10.000Z</time>
      </trkpt>
      <trkpt lat="42.44127" lon="2.11946">
        <ele>2112.6000976562</ele>
        <time>2023-07-18T05:40:19.000Z</time>
      </trkpt>
      <trkpt lat="42.44128" lon="2.11945">
        <ele>2112.3999023438</ele>
        <time>2023-07-18T05:40:20.000Z</time>
      </trkpt>
      <trkpt lat="42.4413" lon="2.11933">
        <ele>2112</ele>
        <time>2023-07-18T05:40:29.000Z</time>
      </trkpt>
      <trkpt lat="42.44133" lon="2.11923">
        <ele>2112.3999023438</ele>
        <time>2023-07-18T05:40:38.000Z</time>
      </trkpt>
      <trkpt lat="42.44139" lon="2.11918">
        <ele>2111.8000488281</ele>
        <time>2023-07-18T05:40:46.000Z</time>
      </trkpt>
      <trkpt lat="42.44141" lon="2.11917">
        <ele>2111.3999023438</ele>
        <time>2023-07-18T05:40:49.000Z</time>
      </trkpt>
      <trkpt lat="42.44142" lon="2.11914">
        <ele>2110.8000488281</ele>
        <time>2023-07-18T05:40:54.000Z</time>
      </trkpt>
      <trkpt lat="42.44139" lon="2.11914">
        <ele>2110.6000976562</ele>
        <time>2023-07-18T05:41:00.000Z</time>
      </trkpt>
      <trkpt lat="42.44139" lon="2.11914">
        <ele>2110.6000976562</ele>
        <time>2023-07-18T05:41:03.000Z</time>
      </trkpt>
      <trkpt lat="42.44141" lon="2.11913">
        <ele>2110.6000976562</ele>
        <time>2023-07-18T05:41:16.000Z</time>
      </trkpt>
      <trkpt lat="42.44143" lon="2.11912">
        <ele>2110.3999023438</ele>
        <time>2023-07-18T05:41:20.000Z</time>
      </trkpt>
      <trkpt lat="42.44146" lon="2.11909">
        <ele>2109.8000488281</ele>
        <time>2023-07-18T05:41:25.000Z</time>
      </trkpt>
      <trkpt lat="42.44146" lon="2.11907">
        <ele>2109.3999023438</ele>
        <time>2023-07-18T05:41:28.000Z</time>
      </trkpt>
      <trkpt lat="42.44146" lon="2.11907">
        <ele>2109.1999511719</ele>
        <time>2023-07-18T05:41:32.000Z</time>
      </trkpt>
      <trkpt lat="42.44148" lon="2.11906">
        <ele>2109</ele>
        <time>2023-07-18T05:41:39.000Z</time>
      </trkpt>
      <trkpt lat="42.44153" lon="2.11902">
        <ele>2108.3999023438</ele>
        <time>2023-07-18T05:41:48.000Z</time>
      </trkpt>
      <trkpt lat="42.44153" lon="2.11901">
        <ele>2108.1999511719</ele>
        <time>2023-07-18T05:41:49.000Z</time>
      </trkpt>
      <trkpt lat="42.4415" lon="2.11904">
        <ele>2108</ele>
        <time>2023-07-18T05:41:55.000Z</time>
      </trkpt>
      <trkpt lat="42.44153" lon="2.11903">
        <ele>2108</ele>
        <time>2023-07-18T05:42:04.000Z</time>
      </trkpt>
      <trkpt lat="42.44156" lon="2.11903">
        <ele>2108</ele>
        <time>2023-07-18T05:42:13.000Z</time>
      </trkpt>
      <trkpt lat="42.44156" lon="2.119">
        <ele>2107.8000488281</ele>
        <time>2023-07-18T05:42:28.000Z</time>
      </trkpt>
      <trkpt lat="42.44157" lon="2.11892">
        <ele>2107.3999023438</ele>
        <time>2023-07-18T05:42:35.000Z</time>
      </trkpt>
      <trkpt lat="42.44157" lon="2.11892">
        <ele>2107.1999511719</ele>
        <time>2023-07-18T05:42:37.000Z</time>
      </trkpt>
      <trkpt lat="42.44158" lon="2.11891">
        <ele>2107</ele>
        <time>2023-07-18T05:42:42.000Z</time>
      </trkpt>
      <trkpt lat="42.44154" lon="2.11893">
        <ele>2106.8000488281</ele>
        <time>2023-07-18T05:42:50.000Z</time>
      </trkpt>
      <trkpt lat="42.44156" lon="2.11893">
        <ele>2107</ele>
        <time>2023-07-18T05:42:54.000Z</time>
      </trkpt>
      <trkpt lat="42.44164" lon="2.11885">
        <ele>2106.6000976562</ele>
        <time>2023-07-18T05:43:01.000Z</time>
      </trkpt>
      <trkpt lat="42.44167" lon="2.11877">
        <ele>2106.6000976562</ele>
        <time>2023-07-18T05:43:10.000Z</time>
      </trkpt>
      <trkpt lat="42.44168" lon="2.11875">
        <ele>2106.1999511719</ele>
        <time>2023-07-18T05:43:12.000Z</time>
      </trkpt>
      <trkpt lat="42.44169" lon="2.11872">
        <ele>2105.3999023438</ele>
        <time>2023-07-18T05:43:17.000Z</time>
      </trkpt>
      <trkpt lat="42.4417" lon="2.11871">
        <ele>2105.1999511719</ele>
        <time>2023-07-18T05:43:18.000Z</time>
      </trkpt>
      <trkpt lat="42.44172" lon="2.11869">
        <ele>2104</ele>
        <time>2023-07-18T05:43:23.000Z</time>
      </trkpt>
      <trkpt lat="42.44172" lon="2.11869">
        <ele>2103.1999511719</ele>
        <time>2023-07-18T05:43:27.000Z</time>
      </trkpt>
      <trkpt lat="42.44172" lon="2.1187">
        <ele>2102.8000488281</ele>
        <time>2023-07-18T05:43:28.000Z</time>
      </trkpt>
      <trkpt lat="42.44173" lon="2.11867">
        <ele>2101.6000976562</ele>
        <time>2023-07-18T05:43:37.000Z</time>
      </trkpt>
      <trkpt lat="42.44175" lon="2.11861">
        <ele>2100.3999023438</ele>
        <time>2023-07-18T05:43:44.000Z</time>
      </trkpt>
      <trkpt lat="42.44175" lon="2.11861">
        <ele>2100.1999511719</ele>
        <time>2023-07-18T05:43:45.000Z</time>
      </trkpt>
      <trkpt lat="42.44176" lon="2.1186">
        <ele>2099.3999023438</ele>
        <time>2023-07-18T05:43:48.000Z</time>
      </trkpt>
      <trkpt lat="42.44176" lon="2.11859">
        <ele>2098.6000976562</ele>
        <time>2023-07-18T05:43:52.000Z</time>
      </trkpt>
      <trkpt lat="42.44176" lon="2.11859">
        <ele>2098.3999023438</ele>
        <time>2023-07-18T05:43:54.000Z</time>
      </trkpt>
      <trkpt lat="42.44178" lon="2.11854">
        <ele>2097.1999511719</ele>
        <time>2023-07-18T05:44:02.000Z</time>
      </trkpt>
      <trkpt lat="42.4418" lon="2.11851">
        <ele>2096</ele>
        <time>2023-07-18T05:44:08.000Z</time>
      </trkpt>
      <trkpt lat="42.4418" lon="2.11851">
        <ele>2095</ele>
        <time>2023-07-18T05:44:12.000Z</time>
      </trkpt>
      <trkpt lat="42.4418" lon="2.11851">
        <ele>2094.8000488281</ele>
        <time>2023-07-18T05:44:13.000Z</time>
      </trkpt>
      <trkpt lat="42.44181" lon="2.11851">
        <ele>2093.8000488281</ele>
        <time>2023-07-18T05:44:17.000Z</time>
      </trkpt>
      <trkpt lat="42.44182" lon="2.1185">
        <ele>2093.3999023438</ele>
        <time>2023-07-18T05:44:19.000Z</time>
      </trkpt>
      <trkpt lat="42.44184" lon="2.11846">
        <ele>2092.6000976562</ele>
        <time>2023-07-18T05:44:26.000Z</time>
      </trkpt>
      <trkpt lat="42.44185" lon="2.11843">
        <ele>2092.1999511719</ele>
        <time>2023-07-18T05:44:29.000Z</time>
      </trkpt>
      <trkpt lat="42.44186" lon="2.11844">
        <ele>2091.6000976562</ele>
        <time>2023-07-18T05:44:32.000Z</time>
      </trkpt>
      <trkpt lat="42.44197" lon="2.1184">
        <ele>2085.1999511719</ele>
        <time>2023-07-18T05:45:12.000Z</time>
      </trkpt>
      <trkpt lat="42.44198" lon="2.11839">
        <ele>2085</ele>
        <time>2023-07-18T05:45:14.000Z</time>
      </trkpt>
      <trkpt lat="42.44199" lon="2.11838">
        <ele>2084.6000976562</ele>
        <time>2023-07-18T05:45:17.000Z</time>
      </trkpt>
      <trkpt lat="42.44199" lon="2.11839">
        <ele>2083.6000976562</ele>
        <time>2023-07-18T05:45:22.000Z</time>
      </trkpt>
      <trkpt lat="42.44212" lon="2.11831">
        <ele>2078.3999023438</ele>
        <time>2023-07-18T05:45:46.000Z</time>
      </trkpt>
      <trkpt lat="42.44213" lon="2.11831">
        <ele>2078.1999511719</ele>
        <time>2023-07-18T05:45:47.000Z</time>
      </trkpt>
      <trkpt lat="42.44214" lon="2.11831">
        <ele>2078</ele>
        <time>2023-07-18T05:45:48.000Z</time>
      </trkpt>
      <trkpt lat="42.44215" lon="2.1183">
        <ele>2077.1999511719</ele>
        <time>2023-07-18T05:45:53.000Z</time>
      </trkpt>
      <trkpt lat="42.44216" lon="2.1183">
        <ele>2076.8000488281</ele>
        <time>2023-07-18T05:45:55.000Z</time>
      </trkpt>
      <trkpt lat="42.44219" lon="2.11826">
        <ele>2076</ele>
        <time>2023-07-18T05:46:00.000Z</time>
      </trkpt>
      <trkpt lat="42.44221" lon="2.11827">
        <ele>2075.8000488281</ele>
        <time>2023-07-18T05:46:01.000Z</time>
      </trkpt>
      <trkpt lat="42.44224" lon="2.11818">
        <ele>2073.8000488281</ele>
        <time>2023-07-18T05:46:15.000Z</time>
      </trkpt>
      <trkpt lat="42.44225" lon="2.11817">
        <ele>2073.3999023438</ele>
        <time>2023-07-18T05:46:17.000Z</time>
      </trkpt>
      <trkpt lat="42.44227" lon="2.11816">
        <ele>2072.8000488281</ele>
        <time>2023-07-18T05:46:21.000Z</time>
      </trkpt>
      <trkpt lat="42.4424" lon="2.11817">
        <ele>2068.1999511719</ele>
        <time>2023-07-18T05:46:40.000Z</time>
      </trkpt>
      <trkpt lat="42.44241" lon="2.11818">
        <ele>2068</ele>
        <time>2023-07-18T05:46:41.000Z</time>
      </trkpt>
      <trkpt lat="42.44241" lon="2.11819">
        <ele>2067.1999511719</ele>
        <time>2023-07-18T05:46:44.000Z</time>
      </trkpt>
      <trkpt lat="42.44244" lon="2.1182">
        <ele>2066</ele>
        <time>2023-07-18T05:46:48.000Z</time>
      </trkpt>
      <trkpt lat="42.44258" lon="2.11818">
        <ele>2061.6000976562</ele>
        <time>2023-07-18T05:47:08.000Z</time>
      </trkpt>
      <trkpt lat="42.44259" lon="2.11816">
        <ele>2061.3999023438</ele>
        <time>2023-07-18T05:47:10.000Z</time>
      </trkpt>
      <trkpt lat="42.44261" lon="2.11815">
        <ele>2061</ele>
        <time>2023-07-18T05:47:13.000Z</time>
      </trkpt>
      <trkpt lat="42.44266" lon="2.11811">
        <ele>2060.1999511719</ele>
        <time>2023-07-18T05:47:19.000Z</time>
      </trkpt>
      <trkpt lat="42.44267" lon="2.11811">
        <ele>2060</ele>
        <time>2023-07-18T05:47:21.000Z</time>
      </trkpt>
      <trkpt lat="42.44277" lon="2.11805">
        <ele>2057</ele>
        <time>2023-07-18T05:47:38.000Z</time>
      </trkpt>
      <trkpt lat="42.44279" lon="2.11806">
        <ele>2056.8000488281</ele>
        <time>2023-07-18T05:47:39.000Z</time>
      </trkpt>
      <trkpt lat="42.44281" lon="2.11802">
        <ele>2055</ele>
        <time>2023-07-18T05:47:50.000Z</time>
      </trkpt>
      <trkpt lat="42.44283" lon="2.11798">
        <ele>2054</ele>
        <time>2023-07-18T05:47:56.000Z</time>
      </trkpt>
      <trkpt lat="42.44284" lon="2.11796">
        <ele>2053.8000488281</ele>
        <time>2023-07-18T05:47:58.000Z</time>
      </trkpt>
      <trkpt lat="42.44286" lon="2.11792">
        <ele>2052.8000488281</ele>
        <time>2023-07-18T05:48:03.000Z</time>
      </trkpt>
      <trkpt lat="42.44287" lon="2.11789">
        <ele>2052.3999023438</ele>
        <time>2023-07-18T05:48:06.000Z</time>
      </trkpt>
      <trkpt lat="42.4429" lon="2.11783">
        <ele>2051.6000976562</ele>
        <time>2023-07-18T05:48:12.000Z</time>
      </trkpt>
      <trkpt lat="42.44291" lon="2.11783">
        <ele>2051.3999023438</ele>
        <time>2023-07-18T05:48:13.000Z</time>
      </trkpt>
      <trkpt lat="42.44295" lon="2.1178">
        <ele>2050.6000976562</ele>
        <time>2023-07-18T05:48:20.000Z</time>
      </trkpt>
      <trkpt lat="42.44297" lon="2.11777">
        <ele>2050</ele>
        <time>2023-07-18T05:48:23.000Z</time>
      </trkpt>
      <trkpt lat="42.443" lon="2.11776">
        <ele>2049.3999023438</ele>
        <time>2023-07-18T05:48:29.000Z</time>
      </trkpt>
      <trkpt lat="42.44301" lon="2.11775">
        <ele>2049.3999023438</ele>
        <time>2023-07-18T05:48:31.000Z</time>
      </trkpt>
      <trkpt lat="42.44305" lon="2.11769">
        <ele>2048.3999023438</ele>
        <time>2023-07-18T05:48:38.000Z</time>
      </trkpt>
      <trkpt lat="42.44306" lon="2.11766">
        <ele>2048.1999511719</ele>
        <time>2023-07-18T05:48:40.000Z</time>
      </trkpt>
      <trkpt lat="42.44308" lon="2.11761">
        <ele>2047.1999511719</ele>
        <time>2023-07-18T05:48:47.000Z</time>
      </trkpt>
      <trkpt lat="42.44308" lon="2.1176">
        <ele>2046.8000488281</ele>
        <time>2023-07-18T05:48:49.000Z</time>
      </trkpt>
      <trkpt lat="42.44311" lon="2.11752">
        <ele>2046.1999511719</ele>
        <time>2023-07-18T05:48:56.000Z</time>
      </trkpt>
      <trkpt lat="42.44313" lon="2.11748">
        <ele>2046</ele>
        <time>2023-07-18T05:48:58.000Z</time>
      </trkpt>
      <trkpt lat="42.44318" lon="2.11742">
        <ele>2045.1999511719</ele>
        <time>2023-07-18T05:49:04.000Z</time>
      </trkpt>
      <trkpt lat="42.4432" lon="2.1174">
        <ele>2045</ele>
        <time>2023-07-18T05:49:06.000Z</time>
      </trkpt>
      <trkpt lat="42.44325" lon="2.11737">
        <ele>2044.1999511719</ele>
        <time>2023-07-18T05:49:16.000Z</time>
      </trkpt>
      <trkpt lat="42.44326" lon="2.11736">
        <ele>2044</ele>
        <time>2023-07-18T05:49:17.000Z</time>
      </trkpt>
      <trkpt lat="42.4433" lon="2.1173">
        <ele>2043.1999511719</ele>
        <time>2023-07-18T05:49:24.000Z</time>
      </trkpt>
      <trkpt lat="42.44329" lon="2.11729">
        <ele>2043</ele>
        <time>2023-07-18T05:49:26.000Z</time>
      </trkpt>
      <trkpt lat="42.44326" lon="2.11722">
        <ele>2042.4000244141</ele>
        <time>2023-07-18T05:49:32.000Z</time>
      </trkpt>
      <trkpt lat="42.44326" lon="2.11719">
        <ele>2042.1999511719</ele>
        <time>2023-07-18T05:49:37.000Z</time>
      </trkpt>
      <trkpt lat="42.4433" lon="2.11715">
        <ele>2042</ele>
        <time>2023-07-18T05:49:43.000Z</time>
      </trkpt>
      <trkpt lat="42.44331" lon="2.11713">
        <ele>2041.8000488281</ele>
        <time>2023-07-18T05:49:44.000Z</time>
      </trkpt>
      <trkpt lat="42.44339" lon="2.11706">
        <ele>2041</ele>
        <time>2023-07-18T05:49:52.000Z</time>
      </trkpt>
      <trkpt lat="42.4434" lon="2.11706">
        <ele>2040.8000488281</ele>
        <time>2023-07-18T05:49:53.000Z</time>
      </trkpt>
      <trkpt lat="42.44351" lon="2.11702">
        <ele>2039.5999755859</ele>
        <time>2023-07-18T05:50:06.000Z</time>
      </trkpt>
      <trkpt lat="42.44355" lon="2.11699">
        <ele>2038.8000488281</ele>
        <time>2023-07-18T05:50:12.000Z</time>
      </trkpt>
      <trkpt lat="42.44355" lon="2.11698">
        <ele>2038.5999755859</ele>
        <time>2023-07-18T05:50:13.000Z</time>
      </trkpt>
      <trkpt lat="42.44359" lon="2.11691">
        <ele>2037.8000488281</ele>
        <time>2023-07-18T05:50:18.000Z</time>
      </trkpt>
      <trkpt lat="42.44361" lon="2.11685">
        <ele>2037.5999755859</ele>
        <time>2023-07-18T05:50:22.000Z</time>
      </trkpt>
      <trkpt lat="42.44368" lon="2.11673">
        <ele>2036.8000488281</ele>
        <time>2023-07-18T05:50:30.000Z</time>
      </trkpt>
      <trkpt lat="42.4437" lon="2.1167">
        <ele>2036.8000488281</ele>
        <time>2023-07-18T05:50:32.000Z</time>
      </trkpt>
      <trkpt lat="42.44372" lon="2.11666">
        <ele>2036.4000244141</ele>
        <time>2023-07-18T05:50:37.000Z</time>
      </trkpt>
      <trkpt lat="42.44378" lon="2.11658">
        <ele>2035.8000488281</ele>
        <time>2023-07-18T05:50:46.000Z</time>
      </trkpt>
      <trkpt lat="42.44378" lon="2.11657">
        <ele>2035.5999755859</ele>
        <time>2023-07-18T05:50:47.000Z</time>
      </trkpt>
      <trkpt lat="42.44382" lon="2.11649">
        <ele>2034.8000488281</ele>
        <time>2023-07-18T05:50:53.000Z</time>
      </trkpt>
      <trkpt lat="42.44383" lon="2.11648">
        <ele>2034.4000244141</ele>
        <time>2023-07-18T05:50:54.000Z</time>
      </trkpt>
      <trkpt lat="42.44386" lon="2.11635">
        <ele>2033.5999755859</ele>
        <time>2023-07-18T05:51:02.000Z</time>
      </trkpt>
      <trkpt lat="42.4439" lon="2.11623">
        <ele>2034.4000244141</ele>
        <time>2023-07-18T05:51:10.000Z</time>
      </trkpt>
      <trkpt lat="42.44397" lon="2.1161">
        <ele>2034</ele>
        <time>2023-07-18T05:51:19.000Z</time>
      </trkpt>
      <trkpt lat="42.44401" lon="2.11598">
        <ele>2033.8000488281</ele>
        <time>2023-07-18T05:51:29.000Z</time>
      </trkpt>
      <trkpt lat="42.44401" lon="2.11595">
        <ele>2033.4000244141</ele>
        <time>2023-07-18T05:51:31.000Z</time>
      </trkpt>
      <trkpt lat="42.44402" lon="2.11589">
        <ele>2032.4000244141</ele>
        <time>2023-07-18T05:51:36.000Z</time>
      </trkpt>
      <trkpt lat="42.44402" lon="2.11588">
        <ele>2032.1999511719</ele>
        <time>2023-07-18T05:51:37.000Z</time>
      </trkpt>
      <trkpt lat="42.44405" lon="2.11578">
        <ele>2031.4000244141</ele>
        <time>2023-07-18T05:51:45.000Z</time>
      </trkpt>
      <trkpt lat="42.44406" lon="2.11576">
        <ele>2031.4000244141</ele>
        <time>2023-07-18T05:51:47.000Z</time>
      </trkpt>
      <trkpt lat="42.44407" lon="2.11572">
        <ele>2030.8000488281</ele>
        <time>2023-07-18T05:51:52.000Z</time>
      </trkpt>
      <trkpt lat="42.44408" lon="2.11569">
        <ele>2030.5999755859</ele>
        <time>2023-07-18T05:52:00.000Z</time>
      </trkpt>
      <trkpt lat="42.44413" lon="2.11559">
        <ele>2030.1999511719</ele>
        <time>2023-07-18T05:52:08.000Z</time>
      </trkpt>
      <trkpt lat="42.44413" lon="2.11557">
        <ele>2030.1999511719</ele>
        <time>2023-07-18T05:52:09.000Z</time>
      </trkpt>
      <trkpt lat="42.44419" lon="2.11549">
        <ele>2029.5999755859</ele>
        <time>2023-07-18T05:52:18.000Z</time>
      </trkpt>
      <trkpt lat="42.44422" lon="2.11543">
        <ele>2029</ele>
        <time>2023-07-18T05:52:22.000Z</time>
      </trkpt>
      <trkpt lat="42.44424" lon="2.11539">
        <ele>2028.4000244141</ele>
        <time>2023-07-18T05:52:27.000Z</time>
      </trkpt>
      <trkpt lat="42.44425" lon="2.11533">
        <ele>2027.8000488281</ele>
        <time>2023-07-18T05:52:31.000Z</time>
      </trkpt>
      <trkpt lat="42.44427" lon="2.11529">
        <ele>2027.4000244141</ele>
        <time>2023-07-18T05:52:34.000Z</time>
      </trkpt>
      <trkpt lat="42.44434" lon="2.1152">
        <ele>2026.5999755859</ele>
        <time>2023-07-18T05:52:43.000Z</time>
      </trkpt>
      <trkpt lat="42.44437" lon="2.11514">
        <ele>2026.8000488281</ele>
        <time>2023-07-18T05:52:51.000Z</time>
      </trkpt>
      <trkpt lat="42.44437" lon="2.1151">
        <ele>2027.1999511719</ele>
        <time>2023-07-18T05:52:58.000Z</time>
      </trkpt>
      <trkpt lat="42.44442" lon="2.11498">
        <ele>2027.4000244141</ele>
        <time>2023-07-18T05:53:08.000Z</time>
      </trkpt>
      <trkpt lat="42.44448" lon="2.11488">
        <ele>2026.1999511719</ele>
        <time>2023-07-18T05:53:17.000Z</time>
      </trkpt>
      <trkpt lat="42.44452" lon="2.11479">
        <ele>2026.1999511719</ele>
        <time>2023-07-18T05:53:25.000Z</time>
      </trkpt>
      <trkpt lat="42.44453" lon="2.11481">
        <ele>2025.5999755859</ele>
        <time>2023-07-18T05:53:28.000Z</time>
      </trkpt>
      <trkpt lat="42.44455" lon="2.11479">
        <ele>2025</ele>
        <time>2023-07-18T05:53:32.000Z</time>
      </trkpt>
      <trkpt lat="42.44463" lon="2.1147">
        <ele>2023.4000244141</ele>
        <time>2023-07-18T05:53:40.000Z</time>
      </trkpt>
      <trkpt lat="42.44464" lon="2.11469">
        <ele>2023.1999511719</ele>
        <time>2023-07-18T05:53:41.000Z</time>
      </trkpt>
      <trkpt lat="42.44467" lon="2.11465">
        <ele>2022</ele>
        <time>2023-07-18T05:53:47.000Z</time>
      </trkpt>
      <trkpt lat="42.44469" lon="2.11462">
        <ele>2021.5999755859</ele>
        <time>2023-07-18T05:53:50.000Z</time>
      </trkpt>
      <trkpt lat="42.44473" lon="2.11459">
        <ele>2021</ele>
        <time>2023-07-18T05:53:54.000Z</time>
      </trkpt>
      <trkpt lat="42.44475" lon="2.11457">
        <ele>2020.5999755859</ele>
        <time>2023-07-18T05:53:57.000Z</time>
      </trkpt>
      <trkpt lat="42.44476" lon="2.11455">
        <ele>2019.8000488281</ele>
        <time>2023-07-18T05:54:02.000Z</time>
      </trkpt>
      <trkpt lat="42.44478" lon="2.11448">
        <ele>2018.8000488281</ele>
        <time>2023-07-18T05:54:07.000Z</time>
      </trkpt>
      <trkpt lat="42.44479" lon="2.11447">
        <ele>2018.5999755859</ele>
        <time>2023-07-18T05:54:08.000Z</time>
      </trkpt>
      <trkpt lat="42.44484" lon="2.11437">
        <ele>2017.8000488281</ele>
        <time>2023-07-18T05:54:15.000Z</time>
      </trkpt>
      <trkpt lat="42.44484" lon="2.11437">
        <ele>2017.5999755859</ele>
        <time>2023-07-18T05:54:16.000Z</time>
      </trkpt>
      <trkpt lat="42.44488" lon="2.11434">
        <ele>2016.8000488281</ele>
        <time>2023-07-18T05:54:22.000Z</time>
      </trkpt>
      <trkpt lat="42.44488" lon="2.11433">
        <ele>2016.5999755859</ele>
        <time>2023-07-18T05:54:23.000Z</time>
      </trkpt>
      <trkpt lat="42.44491" lon="2.11425">
        <ele>2015.8000488281</ele>
        <time>2023-07-18T05:54:30.000Z</time>
      </trkpt>
      <trkpt lat="42.44492" lon="2.11424">
        <ele>2015.5999755859</ele>
        <time>2023-07-18T05:54:31.000Z</time>
      </trkpt>
      <trkpt lat="42.44495" lon="2.11415">
        <ele>2014.5999755859</ele>
        <time>2023-07-18T05:54:39.000Z</time>
      </trkpt>
      <trkpt lat="42.44496" lon="2.11413">
        <ele>2014.5999755859</ele>
        <time>2023-07-18T05:54:40.000Z</time>
      </trkpt>
      <trkpt lat="42.44501" lon="2.11407">
        <ele>2013.5999755859</ele>
        <time>2023-07-18T05:54:48.000Z</time>
      </trkpt>
      <trkpt lat="42.44501" lon="2.11407">
        <ele>2013.5999755859</ele>
        <time>2023-07-18T05:54:49.000Z</time>
      </trkpt>
      <trkpt lat="42.44504" lon="2.11404">
        <ele>2012.5999755859</ele>
        <time>2023-07-18T05:54:56.000Z</time>
      </trkpt>
      <trkpt lat="42.44509" lon="2.11399">
        <ele>2011.8000488281</ele>
        <time>2023-07-18T05:55:04.000Z</time>
      </trkpt>
      <trkpt lat="42.4451" lon="2.11396">
        <ele>2011.4000244141</ele>
        <time>2023-07-18T05:55:06.000Z</time>
      </trkpt>
      <trkpt lat="42.44513" lon="2.11385">
        <ele>2010.4000244141</ele>
        <time>2023-07-18T05:55:12.000Z</time>
      </trkpt>
      <trkpt lat="42.44519" lon="2.11379">
        <ele>2009.5999755859</ele>
        <time>2023-07-18T05:55:18.000Z</time>
      </trkpt>
      <trkpt lat="42.44519" lon="2.11378">
        <ele>2009.4000244141</ele>
        <time>2023-07-18T05:55:19.000Z</time>
      </trkpt>
      <trkpt lat="42.44522" lon="2.11369">
        <ele>2008.4000244141</ele>
        <time>2023-07-18T05:55:27.000Z</time>
      </trkpt>
      <trkpt lat="42.44523" lon="2.11368">
        <ele>2008.1999511719</ele>
        <time>2023-07-18T05:55:28.000Z</time>
      </trkpt>
      <trkpt lat="42.44529" lon="2.11363">
        <ele>2007.1999511719</ele>
        <time>2023-07-18T05:55:35.000Z</time>
      </trkpt>
      <trkpt lat="42.44535" lon="2.11359">
        <ele>2006.1999511719</ele>
        <time>2023-07-18T05:55:43.000Z</time>
      </trkpt>
      <trkpt lat="42.44535" lon="2.11359">
        <ele>2006</ele>
        <time>2023-07-18T05:55:44.000Z</time>
      </trkpt>
      <trkpt lat="42.44539" lon="2.1135">
        <ele>2005.8000488281</ele>
        <time>2023-07-18T05:55:50.000Z</time>
      </trkpt>
      <trkpt lat="42.44542" lon="2.11341">
        <ele>2005.4000244141</ele>
        <time>2023-07-18T05:56:00.000Z</time>
      </trkpt>
      <trkpt lat="42.44544" lon="2.11337">
        <ele>2005</ele>
        <time>2023-07-18T05:56:03.000Z</time>
      </trkpt>
      <trkpt lat="42.44547" lon="2.11332">
        <ele>2004.5999755859</ele>
        <time>2023-07-18T05:56:07.000Z</time>
      </trkpt>
      <trkpt lat="42.44549" lon="2.11325">
        <ele>2004</ele>
        <time>2023-07-18T05:56:11.000Z</time>
      </trkpt>
      <trkpt lat="42.4455" lon="2.11324">
        <ele>2003.8000488281</ele>
        <time>2023-07-18T05:56:12.000Z</time>
      </trkpt>
      <trkpt lat="42.44553" lon="2.11319">
        <ele>2002.8000488281</ele>
        <time>2023-07-18T05:56:19.000Z</time>
      </trkpt>
      <trkpt lat="42.44554" lon="2.11321">
        <ele>2002.5999755859</ele>
        <time>2023-07-18T05:56:20.000Z</time>
      </trkpt>
      <trkpt lat="42.44555" lon="2.11311">
        <ele>2001.8000488281</ele>
        <time>2023-07-18T05:56:28.000Z</time>
      </trkpt>
      <trkpt lat="42.44559" lon="2.113">
        <ele>2002.4000244141</ele>
        <time>2023-07-18T05:56:38.000Z</time>
      </trkpt>
      <trkpt lat="42.44566" lon="2.11293">
        <ele>2002.1999511719</ele>
        <time>2023-07-18T05:56:47.000Z</time>
      </trkpt>
      <trkpt lat="42.44576" lon="2.11279">
        <ele>2000.8000488281</ele>
        <time>2023-07-18T05:57:04.000Z</time>
      </trkpt>
      <trkpt lat="42.44576" lon="2.11276">
        <ele>2000.5999755859</ele>
        <time>2023-07-18T05:57:07.000Z</time>
      </trkpt>
      <trkpt lat="42.44579" lon="2.11273">
        <ele>1999.8000488281</ele>
        <time>2023-07-18T05:57:15.000Z</time>
      </trkpt>
      <trkpt lat="42.4458" lon="2.11273">
        <ele>1999.5999755859</ele>
        <time>2023-07-18T05:57:16.000Z</time>
      </trkpt>
      <trkpt lat="42.44586" lon="2.11267">
        <ele>1998.4000244141</ele>
        <time>2023-07-18T05:57:22.000Z</time>
      </trkpt>
      <trkpt lat="42.44589" lon="2.11264">
        <ele>1998</ele>
        <time>2023-07-18T05:57:25.000Z</time>
      </trkpt>
      <trkpt lat="42.44592" lon="2.11261">
        <ele>1997.4000244141</ele>
        <time>2023-07-18T05:57:29.000Z</time>
      </trkpt>
      <trkpt lat="42.44598" lon="2.11256">
        <ele>1996.5999755859</ele>
        <time>2023-07-18T05:57:34.000Z</time>
      </trkpt>
      <trkpt lat="42.44601" lon="2.11254">
        <ele>1996.4000244141</ele>
        <time>2023-07-18T05:57:36.000Z</time>
      </trkpt>
      <trkpt lat="42.44608" lon="2.11249">
        <ele>1995.8000488281</ele>
        <time>2023-07-18T05:57:41.000Z</time>
      </trkpt>
      <trkpt lat="42.44615" lon="2.11246">
        <ele>1995.4000244141</ele>
        <time>2023-07-18T05:57:45.000Z</time>
      </trkpt>
      <trkpt lat="42.44616" lon="2.11244">
        <ele>1995.1999511719</ele>
        <time>2023-07-18T05:57:48.000Z</time>
      </trkpt>
      <trkpt lat="42.44618" lon="2.1124">
        <ele>1994.1999511719</ele>
        <time>2023-07-18T05:57:53.000Z</time>
      </trkpt>
      <trkpt lat="42.44622" lon="2.11237">
        <ele>1993.8000488281</ele>
        <time>2023-07-18T05:57:57.000Z</time>
      </trkpt>
      <trkpt lat="42.44624" lon="2.11235">
        <ele>1993.8000488281</ele>
        <time>2023-07-18T05:58:05.000Z</time>
      </trkpt>
      <trkpt lat="42.44622" lon="2.11232">
        <ele>1993.5999755859</ele>
        <time>2023-07-18T05:58:14.000Z</time>
      </trkpt>
      <trkpt lat="42.44624" lon="2.11228">
        <ele>1993.1999511719</ele>
        <time>2023-07-18T05:58:18.000Z</time>
      </trkpt>
      <trkpt lat="42.44626" lon="2.11224">
        <ele>1992.5999755859</ele>
        <time>2023-07-18T05:58:21.000Z</time>
      </trkpt>
      <trkpt lat="42.44636" lon="2.11215">
        <ele>1992.5999755859</ele>
        <time>2023-07-18T05:58:30.000Z</time>
      </trkpt>
      <trkpt lat="42.44639" lon="2.11213">
        <ele>1992</ele>
        <time>2023-07-18T05:58:37.000Z</time>
      </trkpt>
      <trkpt lat="42.4464" lon="2.1121">
        <ele>1990.8000488281</ele>
        <time>2023-07-18T05:58:42.000Z</time>
      </trkpt>
      <trkpt lat="42.44642" lon="2.11206">
        <ele>1989.8000488281</ele>
        <time>2023-07-18T05:58:48.000Z</time>
      </trkpt>
      <trkpt lat="42.44642" lon="2.11205">
        <ele>1989.5999755859</ele>
        <time>2023-07-18T05:58:49.000Z</time>
      </trkpt>
      <trkpt lat="42.44642" lon="2.11195">
        <ele>1988.4000244141</ele>
        <time>2023-07-18T05:58:56.000Z</time>
      </trkpt>
      <trkpt lat="42.44643" lon="2.11195">
        <ele>1988.1999511719</ele>
        <time>2023-07-18T05:58:57.000Z</time>
      </trkpt>
      <trkpt lat="42.44647" lon="2.1119">
        <ele>1987.4000244141</ele>
        <time>2023-07-18T05:59:03.000Z</time>
      </trkpt>
      <trkpt lat="42.44648" lon="2.11183">
        <ele>1986.4000244141</ele>
        <time>2023-07-18T05:59:09.000Z</time>
      </trkpt>
      <trkpt lat="42.44649" lon="2.1118">
        <ele>1986</ele>
        <time>2023-07-18T05:59:11.000Z</time>
      </trkpt>
      <trkpt lat="42.44651" lon="2.11178">
        <ele>1985.1999511719</ele>
        <time>2023-07-18T05:59:15.000Z</time>
      </trkpt>
      <trkpt lat="42.44652" lon="2.11179">
        <ele>1984.8000488281</ele>
        <time>2023-07-18T05:59:17.000Z</time>
      </trkpt>
      <trkpt lat="42.44656" lon="2.11177">
        <ele>1984.1999511719</ele>
        <time>2023-07-18T05:59:21.000Z</time>
      </trkpt>
      <trkpt lat="42.44657" lon="2.11173">
        <ele>1983.4000244141</ele>
        <time>2023-07-18T05:59:25.000Z</time>
      </trkpt>
      <trkpt lat="42.44658" lon="2.11172">
        <ele>1983.1999511719</ele>
        <time>2023-07-18T05:59:26.000Z</time>
      </trkpt>
      <trkpt lat="42.4466" lon="2.11165">
        <ele>1982.4000244141</ele>
        <time>2023-07-18T05:59:31.000Z</time>
      </trkpt>
      <trkpt lat="42.4466" lon="2.11164">
        <ele>1982.1999511719</ele>
        <time>2023-07-18T05:59:32.000Z</time>
      </trkpt>
      <trkpt lat="42.44663" lon="2.11152">
        <ele>1981.1999511719</ele>
        <time>2023-07-18T05:59:38.000Z</time>
      </trkpt>
      <trkpt lat="42.44663" lon="2.1115">
        <ele>1981</ele>
        <time>2023-07-18T05:59:39.000Z</time>
      </trkpt>
      <trkpt lat="42.44666" lon="2.11121">
        <ele>1978.8000488281</ele>
        <time>2023-07-18T06:00:00.000Z</time>
      </trkpt>
      <trkpt lat="42.44668" lon="2.11117">
        <ele>1978.1999511719</ele>
        <time>2023-07-18T06:00:07.000Z</time>
      </trkpt>
      <trkpt lat="42.44669" lon="2.11115">
        <ele>1977.8000488281</ele>
        <time>2023-07-18T06:00:11.000Z</time>
      </trkpt>
      <trkpt lat="42.44671" lon="2.11112">
        <ele>1977.5999755859</ele>
        <time>2023-07-18T06:00:14.000Z</time>
      </trkpt>
      <trkpt lat="42.44674" lon="2.111">
        <ele>1976.8000488281</ele>
        <time>2023-07-18T06:00:20.000Z</time>
      </trkpt>
      <trkpt lat="42.44675" lon="2.11099">
        <ele>1976.5999755859</ele>
        <time>2023-07-18T06:00:21.000Z</time>
      </trkpt>
      <trkpt lat="42.44677" lon="2.11091">
        <ele>1976.1999511719</ele>
        <time>2023-07-18T06:00:28.000Z</time>
      </trkpt>
      <trkpt lat="42.44681" lon="2.11087">
        <ele>1976.1999511719</ele>
        <time>2023-07-18T06:00:36.000Z</time>
      </trkpt>
      <trkpt lat="42.44689" lon="2.11077">
        <ele>1975.8000488281</ele>
        <time>2023-07-18T06:00:45.000Z</time>
      </trkpt>
      <trkpt lat="42.4469" lon="2.11075">
        <ele>1975.8000488281</ele>
        <time>2023-07-18T06:00:46.000Z</time>
      </trkpt>
      <trkpt lat="42.44693" lon="2.11067">
        <ele>1975</ele>
        <time>2023-07-18T06:00:54.000Z</time>
      </trkpt>
      <trkpt lat="42.44692" lon="2.11066">
        <ele>1974.5999755859</ele>
        <time>2023-07-18T06:00:58.000Z</time>
      </trkpt>
      <trkpt lat="42.44693" lon="2.11064">
        <ele>1974.5999755859</ele>
        <time>2023-07-18T06:01:01.000Z</time>
      </trkpt>
      <trkpt lat="42.44698" lon="2.11056">
        <ele>1973.5999755859</ele>
        <time>2023-07-18T06:01:08.000Z</time>
      </trkpt>
      <trkpt lat="42.44699" lon="2.11055">
        <ele>1973.4000244141</ele>
        <time>2023-07-18T06:01:09.000Z</time>
      </trkpt>
      <trkpt lat="42.44706" lon="2.11048">
        <ele>1972.4000244141</ele>
        <time>2023-07-18T06:01:16.000Z</time>
      </trkpt>
      <trkpt lat="42.44707" lon="2.11047">
        <ele>1972.1999511719</ele>
        <time>2023-07-18T06:01:17.000Z</time>
      </trkpt>
      <trkpt lat="42.44713" lon="2.11038">
        <ele>1971.1999511719</ele>
        <time>2023-07-18T06:01:24.000Z</time>
      </trkpt>
      <trkpt lat="42.44714" lon="2.11036">
        <ele>1971.1999511719</ele>
        <time>2023-07-18T06:01:25.000Z</time>
      </trkpt>
      <trkpt lat="42.44717" lon="2.11027">
        <ele>1970.5999755859</ele>
        <time>2023-07-18T06:01:32.000Z</time>
      </trkpt>
      <trkpt lat="42.44723" lon="2.1102">
        <ele>1970.4000244141</ele>
        <time>2023-07-18T06:01:39.000Z</time>
      </trkpt>
      <trkpt lat="42.44724" lon="2.11019">
        <ele>1970.1999511719</ele>
        <time>2023-07-18T06:01:41.000Z</time>
      </trkpt>
      <trkpt lat="42.44728" lon="2.11016">
        <ele>1969.4000244141</ele>
        <time>2023-07-18T06:01:48.000Z</time>
      </trkpt>
      <trkpt lat="42.44729" lon="2.11016">
        <ele>1969.1999511719</ele>
        <time>2023-07-18T06:01:50.000Z</time>
      </trkpt>
      <trkpt lat="42.4473" lon="2.11015">
        <ele>1968.1999511719</ele>
        <time>2023-07-18T06:01:55.000Z</time>
      </trkpt>
      <trkpt lat="42.44731" lon="2.11014">
        <ele>1968</ele>
        <time>2023-07-18T06:01:56.000Z</time>
      </trkpt>
      <trkpt lat="42.44739" lon="2.11009">
        <ele>1967.4000244141</ele>
        <time>2023-07-18T06:02:04.000Z</time>
      </trkpt>
      <trkpt lat="42.44744" lon="2.11004">
        <ele>1966</ele>
        <time>2023-07-18T06:02:15.000Z</time>
      </trkpt>
      <trkpt lat="42.44752" lon="2.10996">
        <ele>1965.1999511719</ele>
        <time>2023-07-18T06:02:22.000Z</time>
      </trkpt>
      <trkpt lat="42.44755" lon="2.10995">
        <ele>1965</ele>
        <time>2023-07-18T06:02:24.000Z</time>
      </trkpt>
      <trkpt lat="42.44765" lon="2.10994">
        <ele>1964.1999511719</ele>
        <time>2023-07-18T06:02:33.000Z</time>
      </trkpt>
      <trkpt lat="42.44773" lon="2.10991">
        <ele>1963.8000488281</ele>
        <time>2023-07-18T06:02:41.000Z</time>
      </trkpt>
      <trkpt lat="42.44784" lon="2.10987">
        <ele>1962.1999511719</ele>
        <time>2023-07-18T06:02:57.000Z</time>
      </trkpt>
      <trkpt lat="42.44785" lon="2.10986">
        <ele>1961.8000488281</ele>
        <time>2023-07-18T06:03:00.000Z</time>
      </trkpt>
      <trkpt lat="42.44787" lon="2.10985">
        <ele>1961.4000244141</ele>
        <time>2023-07-18T06:03:02.000Z</time>
      </trkpt>
      <trkpt lat="42.44795" lon="2.10973">
        <ele>1959.8000488281</ele>
        <time>2023-07-18T06:03:16.000Z</time>
      </trkpt>
      <trkpt lat="42.44796" lon="2.10971">
        <ele>1959.5999755859</ele>
        <time>2023-07-18T06:03:19.000Z</time>
      </trkpt>
      <trkpt lat="42.44798" lon="2.10967">
        <ele>1959.4000244141</ele>
        <time>2023-07-18T06:03:22.000Z</time>
      </trkpt>
      <trkpt lat="42.44803" lon="2.10958">
        <ele>1958.8000488281</ele>
        <time>2023-07-18T06:03:30.000Z</time>
      </trkpt>
      <trkpt lat="42.44809" lon="2.10952">
        <ele>1958.5999755859</ele>
        <time>2023-07-18T06:03:36.000Z</time>
      </trkpt>
      <trkpt lat="42.44811" lon="2.10949">
        <ele>1958.4000244141</ele>
        <time>2023-07-18T06:03:38.000Z</time>
      </trkpt>
      <trkpt lat="42.44817" lon="2.10943">
        <ele>1958.1999511719</ele>
        <time>2023-07-18T06:03:44.000Z</time>
      </trkpt>
      <trkpt lat="42.44823" lon="2.10938">
        <ele>1957.5999755859</ele>
        <time>2023-07-18T06:03:51.000Z</time>
      </trkpt>
      <trkpt lat="42.44825" lon="2.10936">
        <ele>1957.1999511719</ele>
        <time>2023-07-18T06:03:53.000Z</time>
      </trkpt>
      <trkpt lat="42.44837" lon="2.1093">
        <ele>1954.1999511719</ele>
        <time>2023-07-18T06:04:10.000Z</time>
      </trkpt>
      <trkpt lat="42.44839" lon="2.10929">
        <ele>1953</ele>
        <time>2023-07-18T06:04:17.000Z</time>
      </trkpt>
      <trkpt lat="42.44841" lon="2.10928">
        <ele>1952.5999755859</ele>
        <time>2023-07-18T06:04:20.000Z</time>
      </trkpt>
      <trkpt lat="42.44859" lon="2.10915">
        <ele>1948.4000244141</ele>
        <time>2023-07-18T06:04:43.000Z</time>
      </trkpt>
      <trkpt lat="42.44862" lon="2.10912">
        <ele>1948</ele>
        <time>2023-07-18T06:04:47.000Z</time>
      </trkpt>
      <trkpt lat="42.44863" lon="2.10909">
        <ele>1947.5999755859</ele>
        <time>2023-07-18T06:04:51.000Z</time>
      </trkpt>
      <trkpt lat="42.44863" lon="2.10908">
        <ele>1947.4000244141</ele>
        <time>2023-07-18T06:04:54.000Z</time>
      </trkpt>
      <trkpt lat="42.44863" lon="2.10907">
        <ele>1947.1999511719</ele>
        <time>2023-07-18T06:04:56.000Z</time>
      </trkpt>
      <trkpt lat="42.44866" lon="2.10898">
        <ele>1946.8000488281</ele>
        <time>2023-07-18T06:05:02.000Z</time>
      </trkpt>
      <trkpt lat="42.44868" lon="2.10892">
        <ele>1946.1999511719</ele>
        <time>2023-07-18T06:05:07.000Z</time>
      </trkpt>
      <trkpt lat="42.44873" lon="2.10881">
        <ele>1945.4000244141</ele>
        <time>2023-07-18T06:05:15.000Z</time>
      </trkpt>
      <trkpt lat="42.44874" lon="2.10879">
        <ele>1945.1999511719</ele>
        <time>2023-07-18T06:05:16.000Z</time>
      </trkpt>
      <trkpt lat="42.44882" lon="2.10866">
        <ele>1944.1999511719</ele>
        <time>2023-07-18T06:05:26.000Z</time>
      </trkpt>
      <trkpt lat="42.44883" lon="2.10865">
        <ele>1944</ele>
        <time>2023-07-18T06:05:27.000Z</time>
      </trkpt>
      <trkpt lat="42.4489" lon="2.10857">
        <ele>1943</ele>
        <time>2023-07-18T06:05:35.000Z</time>
      </trkpt>
      <trkpt lat="42.44891" lon="2.10857">
        <ele>1943</ele>
        <time>2023-07-18T06:05:36.000Z</time>
      </trkpt>
      <trkpt lat="42.44897" lon="2.10857">
        <ele>1942.4000244141</ele>
        <time>2023-07-18T06:05:41.000Z</time>
      </trkpt>
      <trkpt lat="42.44902" lon="2.1085">
        <ele>1942</ele>
        <time>2023-07-18T06:05:47.000Z</time>
      </trkpt>
      <trkpt lat="42.44904" lon="2.10849">
        <ele>1941.8000488281</ele>
        <time>2023-07-18T06:05:50.000Z</time>
      </trkpt>
      <trkpt lat="42.44912" lon="2.10842">
        <ele>1941</ele>
        <time>2023-07-18T06:05:57.000Z</time>
      </trkpt>
      <trkpt lat="42.44914" lon="2.1084">
        <ele>1940.8000488281</ele>
        <time>2023-07-18T06:05:59.000Z</time>
      </trkpt>
      <trkpt lat="42.44918" lon="2.10833">
        <ele>1940.5999755859</ele>
        <time>2023-07-18T06:06:03.000Z</time>
      </trkpt>
      <trkpt lat="42.44926" lon="2.10827">
        <ele>1940.1999511719</ele>
        <time>2023-07-18T06:06:12.000Z</time>
      </trkpt>
      <trkpt lat="42.4493" lon="2.10823">
        <ele>1939.8000488281</ele>
        <time>2023-07-18T06:06:17.000Z</time>
      </trkpt>
      <trkpt lat="42.44933" lon="2.10821">
        <ele>1939.8000488281</ele>
        <time>2023-07-18T06:06:20.000Z</time>
      </trkpt>
      <trkpt lat="42.44942" lon="2.10812">
        <ele>1938.8000488281</ele>
        <time>2023-07-18T06:06:29.000Z</time>
      </trkpt>
      <trkpt lat="42.44943" lon="2.10811">
        <ele>1938.5999755859</ele>
        <time>2023-07-18T06:06:30.000Z</time>
      </trkpt>
      <trkpt lat="42.44947" lon="2.10806">
        <ele>1937.8000488281</ele>
        <time>2023-07-18T06:06:39.000Z</time>
      </trkpt>
      <trkpt lat="42.44948" lon="2.10805">
        <ele>1937.5999755859</ele>
        <time>2023-07-18T06:06:41.000Z</time>
      </trkpt>
      <trkpt lat="42.44951" lon="2.10801">
        <ele>1937.1999511719</ele>
        <time>2023-07-18T06:06:45.000Z</time>
      </trkpt>
      <trkpt lat="42.44956" lon="2.10791">
        <ele>1936.5999755859</ele>
        <time>2023-07-18T06:06:52.000Z</time>
      </trkpt>
      <trkpt lat="42.44966" lon="2.10783">
        <ele>1935.4000244141</ele>
        <time>2023-07-18T06:07:01.000Z</time>
      </trkpt>
      <trkpt lat="42.44967" lon="2.10782">
        <ele>1935.4000244141</ele>
        <time>2023-07-18T06:07:02.000Z</time>
      </trkpt>
      <trkpt lat="42.45002" lon="2.10747">
        <ele>1930.8000488281</ele>
        <time>2023-07-18T06:07:58.000Z</time>
      </trkpt>
      <trkpt lat="42.45015" lon="2.10713">
        <ele>1928</ele>
        <time>2023-07-18T06:08:26.000Z</time>
      </trkpt>
      <trkpt lat="42.45015" lon="2.1071">
        <ele>1927.8000488281</ele>
        <time>2023-07-18T06:08:28.000Z</time>
      </trkpt>
      <trkpt lat="42.45023" lon="2.10703">
        <ele>1927</ele>
        <time>2023-07-18T06:08:37.000Z</time>
      </trkpt>
      <trkpt lat="42.45026" lon="2.10702">
        <ele>1927</ele>
        <time>2023-07-18T06:08:40.000Z</time>
      </trkpt>
      <trkpt lat="42.45029" lon="2.10701">
        <ele>1926.5999755859</ele>
        <time>2023-07-18T06:08:46.000Z</time>
      </trkpt>
      <trkpt lat="42.45032" lon="2.10698">
        <ele>1926.4000244141</ele>
        <time>2023-07-18T06:08:52.000Z</time>
      </trkpt>
      <trkpt lat="42.45033" lon="2.10694">
        <ele>1926.4000244141</ele>
        <time>2023-07-18T06:08:58.000Z</time>
      </trkpt>
      <trkpt lat="42.45043" lon="2.10695">
        <ele>1925.5999755859</ele>
        <time>2023-07-18T06:09:10.000Z</time>
      </trkpt>
      <trkpt lat="42.45054" lon="2.10698">
        <ele>1925</ele>
        <time>2023-07-18T06:09:17.000Z</time>
      </trkpt>
      <trkpt lat="42.45055" lon="2.10698">
        <ele>1924.8000488281</ele>
        <time>2023-07-18T06:09:18.000Z</time>
      </trkpt>
      <trkpt lat="42.45053" lon="2.10691">
        <ele>1924</ele>
        <time>2023-07-18T06:09:25.000Z</time>
      </trkpt>
      <trkpt lat="42.45054" lon="2.10687">
        <ele>1923.8000488281</ele>
        <time>2023-07-18T06:09:27.000Z</time>
      </trkpt>
      <trkpt lat="42.45053" lon="2.10683">
        <ele>1923.4000244141</ele>
        <time>2023-07-18T06:09:30.000Z</time>
      </trkpt>
      <trkpt lat="42.45056" lon="2.10682">
        <ele>1922.8000488281</ele>
        <time>2023-07-18T06:09:35.000Z</time>
      </trkpt>
      <trkpt lat="42.45057" lon="2.10682">
        <ele>1922.5999755859</ele>
        <time>2023-07-18T06:09:36.000Z</time>
      </trkpt>
      <trkpt lat="42.45059" lon="2.10665">
        <ele>1922.4000244141</ele>
        <time>2023-07-18T06:09:50.000Z</time>
      </trkpt>
      <trkpt lat="42.45082" lon="2.10642">
        <ele>1922</ele>
        <time>2023-07-18T06:10:16.000Z</time>
      </trkpt>
      <trkpt lat="42.45086" lon="2.10638">
        <ele>1921.5999755859</ele>
        <time>2023-07-18T06:10:20.000Z</time>
      </trkpt>
      <trkpt lat="42.45087" lon="2.10637">
        <ele>1921.5999755859</ele>
        <time>2023-07-18T06:10:22.000Z</time>
      </trkpt>
      <trkpt lat="42.45089" lon="2.10634">
        <ele>1921.1999511719</ele>
        <time>2023-07-18T06:10:27.000Z</time>
      </trkpt>
      <trkpt lat="42.45093" lon="2.10629">
        <ele>1920.4000244141</ele>
        <time>2023-07-18T06:10:32.000Z</time>
      </trkpt>
      <trkpt lat="42.45098" lon="2.10625">
        <ele>1919.8000488281</ele>
        <time>2023-07-18T06:10:39.000Z</time>
      </trkpt>
      <trkpt lat="42.451" lon="2.10621">
        <ele>1919.4000244141</ele>
        <time>2023-07-18T06:10:42.000Z</time>
      </trkpt>
      <trkpt lat="42.45102" lon="2.10619">
        <ele>1918.8000488281</ele>
        <time>2023-07-18T06:10:46.000Z</time>
      </trkpt>
      <trkpt lat="42.45103" lon="2.10618">
        <ele>1918.4000244141</ele>
        <time>2023-07-18T06:10:50.000Z</time>
      </trkpt>
      <trkpt lat="42.45104" lon="2.10612">
        <ele>1918</ele>
        <time>2023-07-18T06:10:54.000Z</time>
      </trkpt>
      <trkpt lat="42.45104" lon="2.10605">
        <ele>1917.1999511719</ele>
        <time>2023-07-18T06:11:00.000Z</time>
      </trkpt>
      <trkpt lat="42.45105" lon="2.10604">
        <ele>1916.8000488281</ele>
        <time>2023-07-18T06:11:02.000Z</time>
      </trkpt>
      <trkpt lat="42.45107" lon="2.10599">
        <ele>1916</ele>
        <time>2023-07-18T06:11:08.000Z</time>
      </trkpt>
      <trkpt lat="42.45108" lon="2.10598">
        <ele>1916</ele>
        <time>2023-07-18T06:11:09.000Z</time>
      </trkpt>
      <trkpt lat="42.45113" lon="2.10593">
        <ele>1915.5999755859</ele>
        <time>2023-07-18T06:11:16.000Z</time>
      </trkpt>
      <trkpt lat="42.45116" lon="2.10588">
        <ele>1915</ele>
        <time>2023-07-18T06:11:22.000Z</time>
      </trkpt>
      <trkpt lat="42.45121" lon="2.1058">
        <ele>1914.5999755859</ele>
        <time>2023-07-18T06:11:30.000Z</time>
      </trkpt>
      <trkpt lat="42.45123" lon="2.10577">
        <ele>1914.4000244141</ele>
        <time>2023-07-18T06:11:37.000Z</time>
      </trkpt>
      <trkpt lat="42.45127" lon="2.10574">
        <ele>1914</ele>
        <time>2023-07-18T06:11:43.000Z</time>
      </trkpt>
      <trkpt lat="42.45127" lon="2.10573">
        <ele>1913.8000488281</ele>
        <time>2023-07-18T06:11:45.000Z</time>
      </trkpt>
      <trkpt lat="42.45134" lon="2.10565">
        <ele>1913</ele>
        <time>2023-07-18T06:11:54.000Z</time>
      </trkpt>
      <trkpt lat="42.45136" lon="2.10564">
        <ele>1913</ele>
        <time>2023-07-18T06:11:57.000Z</time>
      </trkpt>
      <trkpt lat="42.45138" lon="2.10562">
        <ele>1912.5999755859</ele>
        <time>2023-07-18T06:12:01.000Z</time>
      </trkpt>
      <trkpt lat="42.45141" lon="2.10559">
        <ele>1912</ele>
        <time>2023-07-18T06:12:06.000Z</time>
      </trkpt>
      <trkpt lat="42.45142" lon="2.10558">
        <ele>1911.8000488281</ele>
        <time>2023-07-18T06:12:07.000Z</time>
      </trkpt>
      <trkpt lat="42.45145" lon="2.10557">
        <ele>1911.4000244141</ele>
        <time>2023-07-18T06:12:11.000Z</time>
      </trkpt>
      <trkpt lat="42.45149" lon="2.10555">
        <ele>1911</ele>
        <time>2023-07-18T06:12:17.000Z</time>
      </trkpt>
      <trkpt lat="42.45149" lon="2.10554">
        <ele>1910.8000488281</ele>
        <time>2023-07-18T06:12:18.000Z</time>
      </trkpt>
      <trkpt lat="42.45151" lon="2.1055">
        <ele>1910</ele>
        <time>2023-07-18T06:12:25.000Z</time>
      </trkpt>
      <trkpt lat="42.45151" lon="2.1055">
        <ele>1909.8000488281</ele>
        <time>2023-07-18T06:12:26.000Z</time>
      </trkpt>
      <trkpt lat="42.45153" lon="2.10547">
        <ele>1909.4000244141</ele>
        <time>2023-07-18T06:12:31.000Z</time>
      </trkpt>
      <trkpt lat="42.45156" lon="2.10546">
        <ele>1908.8000488281</ele>
        <time>2023-07-18T06:12:35.000Z</time>
      </trkpt>
      <trkpt lat="42.45158" lon="2.10544">
        <ele>1908.4000244141</ele>
        <time>2023-07-18T06:12:38.000Z</time>
      </trkpt>
      <trkpt lat="42.45161" lon="2.10541">
        <ele>1907.8000488281</ele>
        <time>2023-07-18T06:12:41.000Z</time>
      </trkpt>
      <trkpt lat="42.45164" lon="2.10537">
        <ele>1906.8000488281</ele>
        <time>2023-07-18T06:12:47.000Z</time>
      </trkpt>
      <trkpt lat="42.45165" lon="2.10536">
        <ele>1906.5999755859</ele>
        <time>2023-07-18T06:12:48.000Z</time>
      </trkpt>
      <trkpt lat="42.45168" lon="2.10529">
        <ele>1905.4000244141</ele>
        <time>2023-07-18T06:12:54.000Z</time>
      </trkpt>
      <trkpt lat="42.45168" lon="2.10528">
        <ele>1905.1999511719</ele>
        <time>2023-07-18T06:12:55.000Z</time>
      </trkpt>
      <trkpt lat="42.45171" lon="2.10522">
        <ele>1904.4000244141</ele>
        <time>2023-07-18T06:13:03.000Z</time>
      </trkpt>
      <trkpt lat="42.45172" lon="2.10521">
        <ele>1904.1999511719</ele>
        <time>2023-07-18T06:13:05.000Z</time>
      </trkpt>
      <trkpt lat="42.45177" lon="2.10518">
        <ele>1903.4000244141</ele>
        <time>2023-07-18T06:13:12.000Z</time>
      </trkpt>
      <trkpt lat="42.45178" lon="2.10518">
        <ele>1903.1999511719</ele>
        <time>2023-07-18T06:13:13.000Z</time>
      </trkpt>
      <trkpt lat="42.45185" lon="2.1052">
        <ele>1901.8000488281</ele>
        <time>2023-07-18T06:13:22.000Z</time>
      </trkpt>
      <trkpt lat="42.45189" lon="2.10516">
        <ele>1901.1999511719</ele>
        <time>2023-07-18T06:13:26.000Z</time>
      </trkpt>
      <trkpt lat="42.45191" lon="2.10515">
        <ele>1900.5999755859</ele>
        <time>2023-07-18T06:13:30.000Z</time>
      </trkpt>
      <trkpt lat="42.45192" lon="2.10513">
        <ele>1900.1999511719</ele>
        <time>2023-07-18T06:13:33.000Z</time>
      </trkpt>
      <trkpt lat="42.45196" lon="2.10508">
        <ele>1899.5999755859</ele>
        <time>2023-07-18T06:13:37.000Z</time>
      </trkpt>
      <trkpt lat="42.45199" lon="2.10505">
        <ele>1899.1999511719</ele>
        <time>2023-07-18T06:13:41.000Z</time>
      </trkpt>
      <trkpt lat="42.45202" lon="2.10502">
        <ele>1898.5999755859</ele>
        <time>2023-07-18T06:13:45.000Z</time>
      </trkpt>
      <trkpt lat="42.45205" lon="2.10495">
        <ele>1898.1999511719</ele>
        <time>2023-07-18T06:13:50.000Z</time>
      </trkpt>
      <trkpt lat="42.45207" lon="2.10489">
        <ele>1897.8000488281</ele>
        <time>2023-07-18T06:13:54.000Z</time>
      </trkpt>
      <trkpt lat="42.45211" lon="2.10487">
        <ele>1897.1999511719</ele>
        <time>2023-07-18T06:13:59.000Z</time>
      </trkpt>
      <trkpt lat="42.45213" lon="2.10485">
        <ele>1896.5999755859</ele>
        <time>2023-07-18T06:14:01.000Z</time>
      </trkpt>
      <trkpt lat="42.45214" lon="2.10483">
        <ele>1896</ele>
        <time>2023-07-18T06:14:04.000Z</time>
      </trkpt>
      <trkpt lat="42.45215" lon="2.10481">
        <ele>1895.5999755859</ele>
        <time>2023-07-18T06:14:09.000Z</time>
      </trkpt>
      <trkpt lat="42.45216" lon="2.10479">
        <ele>1895</ele>
        <time>2023-07-18T06:14:12.000Z</time>
      </trkpt>
      <trkpt lat="42.45218" lon="2.10475">
        <ele>1894.8000488281</ele>
        <time>2023-07-18T06:14:17.000Z</time>
      </trkpt>
      <trkpt lat="42.45219" lon="2.1047">
        <ele>1894.1999511719</ele>
        <time>2023-07-18T06:14:24.000Z</time>
      </trkpt>
      <trkpt lat="42.4522" lon="2.10469">
        <ele>1894</ele>
        <time>2023-07-18T06:14:25.000Z</time>
      </trkpt>
      <trkpt lat="42.45223" lon="2.10462">
        <ele>1893</ele>
        <time>2023-07-18T06:14:31.000Z</time>
      </trkpt>
      <trkpt lat="42.45224" lon="2.1046">
        <ele>1892.8000488281</ele>
        <time>2023-07-18T06:14:33.000Z</time>
      </trkpt>
      <trkpt lat="42.45226" lon="2.10455">
        <ele>1892</ele>
        <time>2023-07-18T06:14:39.000Z</time>
      </trkpt>
      <trkpt lat="42.45226" lon="2.10454">
        <ele>1891.5999755859</ele>
        <time>2023-07-18T06:14:41.000Z</time>
      </trkpt>
      <trkpt lat="42.45225" lon="2.10445">
        <ele>1890.8000488281</ele>
        <time>2023-07-18T06:14:47.000Z</time>
      </trkpt>
      <trkpt lat="42.45226" lon="2.10443">
        <ele>1890.4000244141</ele>
        <time>2023-07-18T06:14:49.000Z</time>
      </trkpt>
      <trkpt lat="42.45228" lon="2.10436">
        <ele>1889.5999755859</ele>
        <time>2023-07-18T06:14:53.000Z</time>
      </trkpt>
      <trkpt lat="42.4523" lon="2.10432">
        <ele>1889.4000244141</ele>
        <time>2023-07-18T06:14:56.000Z</time>
      </trkpt>
      <trkpt lat="42.45231" lon="2.10431">
        <ele>1888.5999755859</ele>
        <time>2023-07-18T06:15:01.000Z</time>
      </trkpt>
      <trkpt lat="42.45232" lon="2.10429">
        <ele>1888.4000244141</ele>
        <time>2023-07-18T06:15:03.000Z</time>
      </trkpt>
      <trkpt lat="42.45234" lon="2.10425">
        <ele>1887.5999755859</ele>
        <time>2023-07-18T06:15:10.000Z</time>
      </trkpt>
      <trkpt lat="42.45237" lon="2.10422">
        <ele>1887</ele>
        <time>2023-07-18T06:15:13.000Z</time>
      </trkpt>
      <trkpt lat="42.45239" lon="2.10417">
        <ele>1886.5999755859</ele>
        <time>2023-07-18T06:15:21.000Z</time>
      </trkpt>
      <trkpt lat="42.45241" lon="2.10411">
        <ele>1886.4000244141</ele>
        <time>2023-07-18T06:15:28.000Z</time>
      </trkpt>
      <trkpt lat="42.45242" lon="2.1041">
        <ele>1886.4000244141</ele>
        <time>2023-07-18T06:15:30.000Z</time>
      </trkpt>
      <trkpt lat="42.45243" lon="2.10402">
        <ele>1886</ele>
        <time>2023-07-18T06:15:38.000Z</time>
      </trkpt>
      <trkpt lat="42.45244" lon="2.10395">
        <ele>1885.8000488281</ele>
        <time>2023-07-18T06:15:46.000Z</time>
      </trkpt>
      <trkpt lat="42.45247" lon="2.1039">
        <ele>1885.5999755859</ele>
        <time>2023-07-18T06:15:55.000Z</time>
      </trkpt>
      <trkpt lat="42.45248" lon="2.1039">
        <ele>1885.4000244141</ele>
        <time>2023-07-18T06:15:56.000Z</time>
      </trkpt>
      <trkpt lat="42.45249" lon="2.10385">
        <ele>1884.8000488281</ele>
        <time>2023-07-18T06:16:04.000Z</time>
      </trkpt>
      <trkpt lat="42.4525" lon="2.10382">
        <ele>1884.4000244141</ele>
        <time>2023-07-18T06:16:10.000Z</time>
      </trkpt>
      <trkpt lat="42.45251" lon="2.10378">
        <ele>1884.1999511719</ele>
        <time>2023-07-18T06:16:13.000Z</time>
      </trkpt>
      <trkpt lat="42.45254" lon="2.10375">
        <ele>1883.4000244141</ele>
        <time>2023-07-18T06:16:20.000Z</time>
      </trkpt>
      <trkpt lat="42.45256" lon="2.10368">
        <ele>1883</ele>
        <time>2023-07-18T06:16:28.000Z</time>
      </trkpt>
      <trkpt lat="42.45262" lon="2.10363">
        <ele>1882.1999511719</ele>
        <time>2023-07-18T06:16:34.000Z</time>
      </trkpt>
      <trkpt lat="42.45263" lon="2.10363">
        <ele>1882.1999511719</ele>
        <time>2023-07-18T06:16:35.000Z</time>
      </trkpt>
      <trkpt lat="42.45264" lon="2.10362">
        <ele>1882</ele>
        <time>2023-07-18T06:16:36.000Z</time>
      </trkpt>
      <trkpt lat="42.45271" lon="2.10355">
        <ele>1881.1999511719</ele>
        <time>2023-07-18T06:16:43.000Z</time>
      </trkpt>
      <trkpt lat="42.45273" lon="2.10354">
        <ele>1881.1999511719</ele>
        <time>2023-07-18T06:16:44.000Z</time>
      </trkpt>
      <trkpt lat="42.45279" lon="2.1035">
        <ele>1881</ele>
        <time>2023-07-18T06:16:50.000Z</time>
      </trkpt>
      <trkpt lat="42.45283" lon="2.10345">
        <ele>1880</ele>
        <time>2023-07-18T06:16:59.000Z</time>
      </trkpt>
      <trkpt lat="42.45285" lon="2.10344">
        <ele>1879.8000488281</ele>
        <time>2023-07-18T06:17:01.000Z</time>
      </trkpt>
      <trkpt lat="42.45291" lon="2.10342">
        <ele>1879</ele>
        <time>2023-07-18T06:17:08.000Z</time>
      </trkpt>
      <trkpt lat="42.45293" lon="2.1034">
        <ele>1878.5999755859</ele>
        <time>2023-07-18T06:17:11.000Z</time>
      </trkpt>
      <trkpt lat="42.45294" lon="2.10335">
        <ele>1877.8000488281</ele>
        <time>2023-07-18T06:17:15.000Z</time>
      </trkpt>
      <trkpt lat="42.45295" lon="2.10331">
        <ele>1877.1999511719</ele>
        <time>2023-07-18T06:17:19.000Z</time>
      </trkpt>
      <trkpt lat="42.45297" lon="2.10329">
        <ele>1876.8000488281</ele>
        <time>2023-07-18T06:17:22.000Z</time>
      </trkpt>
      <trkpt lat="42.45298" lon="2.10327">
        <ele>1876.1999511719</ele>
        <time>2023-07-18T06:17:26.000Z</time>
      </trkpt>
      <trkpt lat="42.453" lon="2.10327">
        <ele>1875.8000488281</ele>
        <time>2023-07-18T06:17:29.000Z</time>
      </trkpt>
      <trkpt lat="42.45303" lon="2.10324">
        <ele>1875</ele>
        <time>2023-07-18T06:17:34.000Z</time>
      </trkpt>
      <trkpt lat="42.45305" lon="2.10321">
        <ele>1874.5999755859</ele>
        <time>2023-07-18T06:17:37.000Z</time>
      </trkpt>
      <trkpt lat="42.4531" lon="2.10314">
        <ele>1874</ele>
        <time>2023-07-18T06:17:42.000Z</time>
      </trkpt>
      <trkpt lat="42.45314" lon="2.10305">
        <ele>1873.5999755859</ele>
        <time>2023-07-18T06:17:50.000Z</time>
      </trkpt>
      <trkpt lat="42.45314" lon="2.10305">
        <ele>1873.5999755859</ele>
        <time>2023-07-18T06:17:51.000Z</time>
      </trkpt>
      <trkpt lat="42.45316" lon="2.103">
        <ele>1873.1999511719</ele>
        <time>2023-07-18T06:17:57.000Z</time>
      </trkpt>
      <trkpt lat="42.45317" lon="2.10297">
        <ele>1872.5999755859</ele>
        <time>2023-07-18T06:18:01.000Z</time>
      </trkpt>
      <trkpt lat="42.45319" lon="2.10293">
        <ele>1872.1999511719</ele>
        <time>2023-07-18T06:18:04.000Z</time>
      </trkpt>
      <trkpt lat="42.45323" lon="2.10291">
        <ele>1871.5999755859</ele>
        <time>2023-07-18T06:18:11.000Z</time>
      </trkpt>
      <trkpt lat="42.45324" lon="2.1029">
        <ele>1871.4000244141</ele>
        <time>2023-07-18T06:18:12.000Z</time>
      </trkpt>
      <trkpt lat="42.45333" lon="2.10285">
        <ele>1869.8000488281</ele>
        <time>2023-07-18T06:18:21.000Z</time>
      </trkpt>
      <trkpt lat="42.45334" lon="2.10284">
        <ele>1869.5999755859</ele>
        <time>2023-07-18T06:18:22.000Z</time>
      </trkpt>
      <trkpt lat="42.45333" lon="2.10281">
        <ele>1869.4000244141</ele>
        <time>2023-07-18T06:18:24.000Z</time>
      </trkpt>
      <trkpt lat="42.45334" lon="2.10275">
        <ele>1869.1999511719</ele>
        <time>2023-07-18T06:18:29.000Z</time>
      </trkpt>
      <trkpt lat="42.45336" lon="2.10269">
        <ele>1868.1999511719</ele>
        <time>2023-07-18T06:18:36.000Z</time>
      </trkpt>
      <trkpt lat="42.45337" lon="2.10268">
        <ele>1868</ele>
        <time>2023-07-18T06:18:39.000Z</time>
      </trkpt>
      <trkpt lat="42.45338" lon="2.10262">
        <ele>1867.1999511719</ele>
        <time>2023-07-18T06:18:46.000Z</time>
      </trkpt>
      <trkpt lat="42.45341" lon="2.10263">
        <ele>1866.8000488281</ele>
        <time>2023-07-18T06:18:49.000Z</time>
      </trkpt>
      <trkpt lat="42.45353" lon="2.10255">
        <ele>1865.5999755859</ele>
        <time>2023-07-18T06:19:00.000Z</time>
      </trkpt>
      <trkpt lat="42.45354" lon="2.10254">
        <ele>1865</ele>
        <time>2023-07-18T06:19:03.000Z</time>
      </trkpt>
      <trkpt lat="42.45354" lon="2.10249">
        <ele>1864.4000244141</ele>
        <time>2023-07-18T06:19:08.000Z</time>
      </trkpt>
      <trkpt lat="42.45354" lon="2.10247">
        <ele>1864</ele>
        <time>2023-07-18T06:19:11.000Z</time>
      </trkpt>
      <trkpt lat="42.45358" lon="2.10241">
        <ele>1863</ele>
        <time>2023-07-18T06:19:17.000Z</time>
      </trkpt>
      <trkpt lat="42.45359" lon="2.1024">
        <ele>1862.8000488281</ele>
        <time>2023-07-18T06:19:19.000Z</time>
      </trkpt>
      <trkpt lat="42.45364" lon="2.10237">
        <ele>1862.1999511719</ele>
        <time>2023-07-18T06:19:24.000Z</time>
      </trkpt>
      <trkpt lat="42.45367" lon="2.10234">
        <ele>1861.8000488281</ele>
        <time>2023-07-18T06:19:26.000Z</time>
      </trkpt>
      <trkpt lat="42.4537" lon="2.10226">
        <ele>1861</ele>
        <time>2023-07-18T06:19:31.000Z</time>
      </trkpt>
      <trkpt lat="42.45372" lon="2.10222">
        <ele>1860.5999755859</ele>
        <time>2023-07-18T06:19:36.000Z</time>
      </trkpt>
      <trkpt lat="42.45373" lon="2.10219">
        <ele>1860.4000244141</ele>
        <time>2023-07-18T06:19:39.000Z</time>
      </trkpt>
      <trkpt lat="42.45376" lon="2.10214">
        <ele>1859.5999755859</ele>
        <time>2023-07-18T06:19:46.000Z</time>
      </trkpt>
      <trkpt lat="42.45377" lon="2.10211">
        <ele>1859.1999511719</ele>
        <time>2023-07-18T06:19:49.000Z</time>
      </trkpt>
      <trkpt lat="42.4538" lon="2.10208">
        <ele>1858.5999755859</ele>
        <time>2023-07-18T06:19:53.000Z</time>
      </trkpt>
      <trkpt lat="42.45382" lon="2.10204">
        <ele>1858.1999511719</ele>
        <time>2023-07-18T06:19:56.000Z</time>
      </trkpt>
      <trkpt lat="42.45386" lon="2.10193">
        <ele>1857.5999755859</ele>
        <time>2023-07-18T06:20:03.000Z</time>
      </trkpt>
      <trkpt lat="42.45393" lon="2.10179">
        <ele>1857.5999755859</ele>
        <time>2023-07-18T06:20:12.000Z</time>
      </trkpt>
      <trkpt lat="42.45395" lon="2.10174">
        <ele>1857.5999755859</ele>
        <time>2023-07-18T06:20:19.000Z</time>
      </trkpt>
      <trkpt lat="42.45399" lon="2.10172">
        <ele>1856.5999755859</ele>
        <time>2023-07-18T06:20:27.000Z</time>
      </trkpt>
      <trkpt lat="42.454" lon="2.10171">
        <ele>1856.4000244141</ele>
        <time>2023-07-18T06:20:30.000Z</time>
      </trkpt>
      <trkpt lat="42.45405" lon="2.10168">
        <ele>1855.4000244141</ele>
        <time>2023-07-18T06:20:36.000Z</time>
      </trkpt>
      <trkpt lat="42.45407" lon="2.10167">
        <ele>1855</ele>
        <time>2023-07-18T06:20:39.000Z</time>
      </trkpt>
      <trkpt lat="42.45433" lon="2.10153">
        <ele>1851</ele>
        <time>2023-07-18T06:21:06.000Z</time>
      </trkpt>
      <trkpt lat="42.45434" lon="2.10151">
        <ele>1850.5999755859</ele>
        <time>2023-07-18T06:21:09.000Z</time>
      </trkpt>
      <trkpt lat="42.45438" lon="2.10145">
        <ele>1850</ele>
        <time>2023-07-18T06:21:14.000Z</time>
      </trkpt>
      <trkpt lat="42.45441" lon="2.10141">
        <ele>1849.5999755859</ele>
        <time>2023-07-18T06:21:18.000Z</time>
      </trkpt>
      <trkpt lat="42.45449" lon="2.10129">
        <ele>1849.5999755859</ele>
        <time>2023-07-18T06:21:28.000Z</time>
      </trkpt>
      <trkpt lat="42.45457" lon="2.10122">
        <ele>1850</ele>
        <time>2023-07-18T06:21:37.000Z</time>
      </trkpt>
      <trkpt lat="42.45464" lon="2.10114">
        <ele>1850.1999511719</ele>
        <time>2023-07-18T06:21:44.000Z</time>
      </trkpt>
      <trkpt lat="42.45469" lon="2.10108">
        <ele>1849.5999755859</ele>
        <time>2023-07-18T06:21:53.000Z</time>
      </trkpt>
      <trkpt lat="42.45471" lon="2.10105">
        <ele>1848.8000488281</ele>
        <time>2023-07-18T06:21:57.000Z</time>
      </trkpt>
      <trkpt lat="42.45473" lon="2.101">
        <ele>1848.4000244141</ele>
        <time>2023-07-18T06:22:01.000Z</time>
      </trkpt>
      <trkpt lat="42.45473" lon="2.10094">
        <ele>1847.8000488281</ele>
        <time>2023-07-18T06:22:07.000Z</time>
      </trkpt>
      <trkpt lat="42.45472" lon="2.10092">
        <ele>1847.5999755859</ele>
        <time>2023-07-18T06:22:09.000Z</time>
      </trkpt>
      <trkpt lat="42.45473" lon="2.1009">
        <ele>1846.8000488281</ele>
        <time>2023-07-18T06:22:13.000Z</time>
      </trkpt>
      <trkpt lat="42.45475" lon="2.10087">
        <ele>1846</ele>
        <time>2023-07-18T06:22:17.000Z</time>
      </trkpt>
      <trkpt lat="42.45479" lon="2.10084">
        <ele>1845.5999755859</ele>
        <time>2023-07-18T06:22:21.000Z</time>
      </trkpt>
      <trkpt lat="42.45488" lon="2.10079">
        <ele>1844.5999755859</ele>
        <time>2023-07-18T06:22:27.000Z</time>
      </trkpt>
      <trkpt lat="42.45495" lon="2.10075">
        <ele>1843.5999755859</ele>
        <time>2023-07-18T06:22:32.000Z</time>
      </trkpt>
      <trkpt lat="42.45497" lon="2.10073">
        <ele>1843.1999511719</ele>
        <time>2023-07-18T06:22:34.000Z</time>
      </trkpt>
      <trkpt lat="42.45502" lon="2.10064">
        <ele>1843</ele>
        <time>2023-07-18T06:22:40.000Z</time>
      </trkpt>
      <trkpt lat="42.45505" lon="2.10059">
        <ele>1842.8000488281</ele>
        <time>2023-07-18T06:22:47.000Z</time>
      </trkpt>
      <trkpt lat="42.45504" lon="2.10059">
        <ele>1842.5999755859</ele>
        <time>2023-07-18T06:22:48.000Z</time>
      </trkpt>
      <trkpt lat="42.45503" lon="2.10059">
        <ele>1842.5999755859</ele>
        <time>2023-07-18T06:22:53.000Z</time>
      </trkpt>
      <trkpt lat="42.45502" lon="2.1006">
        <ele>1842.4000244141</ele>
        <time>2023-07-18T06:22:57.000Z</time>
      </trkpt>
      <trkpt lat="42.45505" lon="2.1005">
        <ele>1842</ele>
        <time>2023-07-18T06:23:08.000Z</time>
      </trkpt>
      <trkpt lat="42.45505" lon="2.10042">
        <ele>1841.8000488281</ele>
        <time>2023-07-18T06:23:14.000Z</time>
      </trkpt>
      <trkpt lat="42.45509" lon="2.10036">
        <ele>1842.1999511719</ele>
        <time>2023-07-18T06:23:21.000Z</time>
      </trkpt>
      <trkpt lat="42.4551" lon="2.10026">
        <ele>1841.8000488281</ele>
        <time>2023-07-18T06:23:29.000Z</time>
      </trkpt>
      <trkpt lat="42.45515" lon="2.1002">
        <ele>1841.4000244141</ele>
        <time>2023-07-18T06:23:34.000Z</time>
      </trkpt>
      <trkpt lat="42.45516" lon="2.10016">
        <ele>1840.4000244141</ele>
        <time>2023-07-18T06:23:37.000Z</time>
      </trkpt>
      <trkpt lat="42.45517" lon="2.10013">
        <ele>1840</ele>
        <time>2023-07-18T06:23:39.000Z</time>
      </trkpt>
      <trkpt lat="42.45518" lon="2.10005">
        <ele>1839.1999511719</ele>
        <time>2023-07-18T06:23:43.000Z</time>
      </trkpt>
      <trkpt lat="42.45519" lon="2.1">
        <ele>1839</ele>
        <time>2023-07-18T06:23:46.000Z</time>
      </trkpt>
      <trkpt lat="42.45522" lon="2.1">
        <ele>1838</ele>
        <time>2023-07-18T06:23:52.000Z</time>
      </trkpt>
      <trkpt lat="42.45529" lon="2.09996">
        <ele>1837.4000244141</ele>
        <time>2023-07-18T06:24:02.000Z</time>
      </trkpt>
      <trkpt lat="42.45529" lon="2.09995">
        <ele>1837</ele>
        <time>2023-07-18T06:24:04.000Z</time>
      </trkpt>
      <trkpt lat="42.4553" lon="2.09995">
        <ele>1836.1999511719</ele>
        <time>2023-07-18T06:24:08.000Z</time>
      </trkpt>
      <trkpt lat="42.45531" lon="2.09994">
        <ele>1835.8000488281</ele>
        <time>2023-07-18T06:24:10.000Z</time>
      </trkpt>
      <trkpt lat="42.45532" lon="2.09992">
        <ele>1834.8000488281</ele>
        <time>2023-07-18T06:24:15.000Z</time>
      </trkpt>
      <trkpt lat="42.45533" lon="2.09991">
        <ele>1834.5999755859</ele>
        <time>2023-07-18T06:24:16.000Z</time>
      </trkpt>
      <trkpt lat="42.45533" lon="2.09988">
        <ele>1833.4000244141</ele>
        <time>2023-07-18T06:24:22.000Z</time>
      </trkpt>
      <trkpt lat="42.45538" lon="2.09978">
        <ele>1832.8000488281</ele>
        <time>2023-07-18T06:24:29.000Z</time>
      </trkpt>
      <trkpt lat="42.45538" lon="2.09976">
        <ele>1832.4000244141</ele>
        <time>2023-07-18T06:24:30.000Z</time>
      </trkpt>
      <trkpt lat="42.45543" lon="2.09968">
        <ele>1831.1999511719</ele>
        <time>2023-07-18T06:24:36.000Z</time>
      </trkpt>
      <trkpt lat="42.45545" lon="2.09965">
        <ele>1831</ele>
        <time>2023-07-18T06:24:38.000Z</time>
      </trkpt>
      <trkpt lat="42.45552" lon="2.09956">
        <ele>1830</ele>
        <time>2023-07-18T06:24:46.000Z</time>
      </trkpt>
      <trkpt lat="42.45554" lon="2.09953">
        <ele>1829.8000488281</ele>
        <time>2023-07-18T06:24:48.000Z</time>
      </trkpt>
      <trkpt lat="42.45557" lon="2.09952">
        <ele>1828.8000488281</ele>
        <time>2023-07-18T06:24:53.000Z</time>
      </trkpt>
      <trkpt lat="42.4556" lon="2.0995">
        <ele>1828.4000244141</ele>
        <time>2023-07-18T06:24:57.000Z</time>
      </trkpt>
      <trkpt lat="42.45565" lon="2.09945">
        <ele>1827.8000488281</ele>
        <time>2023-07-18T06:25:02.000Z</time>
      </trkpt>
      <trkpt lat="42.45575" lon="2.09936">
        <ele>1825.8000488281</ele>
        <time>2023-07-18T06:25:16.000Z</time>
      </trkpt>
      <trkpt lat="42.45576" lon="2.09934">
        <ele>1825.5999755859</ele>
        <time>2023-07-18T06:25:17.000Z</time>
      </trkpt>
      <trkpt lat="42.45585" lon="2.09923">
        <ele>1824.8000488281</ele>
        <time>2023-07-18T06:25:24.000Z</time>
      </trkpt>
      <trkpt lat="42.45587" lon="2.0992">
        <ele>1824.5999755859</ele>
        <time>2023-07-18T06:25:26.000Z</time>
      </trkpt>
      <trkpt lat="42.4559" lon="2.09913">
        <ele>1824.4000244141</ele>
        <time>2023-07-18T06:25:32.000Z</time>
      </trkpt>
      <trkpt lat="42.45594" lon="2.09909">
        <ele>1823.5999755859</ele>
        <time>2023-07-18T06:25:39.000Z</time>
      </trkpt>
      <trkpt lat="42.456" lon="2.09904">
        <ele>1822.8000488281</ele>
        <time>2023-07-18T06:25:46.000Z</time>
      </trkpt>
      <trkpt lat="42.45602" lon="2.09903">
        <ele>1822.4000244141</ele>
        <time>2023-07-18T06:25:48.000Z</time>
      </trkpt>
      <trkpt lat="42.45619" lon="2.09891">
        <ele>1818.5999755859</ele>
        <time>2023-07-18T06:26:10.000Z</time>
      </trkpt>
      <trkpt lat="42.45621" lon="2.09889">
        <ele>1818</ele>
        <time>2023-07-18T06:26:14.000Z</time>
      </trkpt>
      <trkpt lat="42.45622" lon="2.09881">
        <ele>1804.2</ele>
        <time>2023-07-18T06:26:40Z</time>
      </trkpt>
      <trkpt lat="42.45645" lon="2.09838">
        <ele>1799.6</ele>
        <time>2023-07-18T06:27:06Z</time>
      </trkpt>
      <trkpt lat="42.45664" lon="2.09805">
        <ele>1793.5</ele>
        <time>2023-07-18T06:27:32Z</time>
      </trkpt>
      <trkpt lat="42.45689" lon="2.09762">
        <ele>1788.4</ele>
        <time>2023-07-18T06:27:58Z</time>
      </trkpt>
      <trkpt lat="42.45704" lon="2.09743">
        <ele>1785.8</ele>
        <time>2023-07-18T06:28:24Z</time>
      </trkpt>
      <trkpt lat="42.45714" lon="2.09732">
        <ele>1784.2</ele>
        <time>2023-07-18T06:28:50Z</time>
      </trkpt>
      <trkpt lat="42.45721" lon="2.09717">
        <ele>1783.9</ele>
        <time>2023-07-18T06:29:16Z</time>
      </trkpt>
      <trkpt lat="42.4573" lon="2.0969">
        <ele>1783.3</ele>
        <time>2023-07-18T06:29:42Z</time>
      </trkpt>
      <trkpt lat="42.45738" lon="2.09683">
        <ele>1781.9</ele>
        <time>2023-07-18T06:30:08Z</time>
      </trkpt>
      <trkpt lat="42.45748" lon="2.09669">
        <ele>1781.1</ele>
        <time>2023-07-18T06:30:34Z</time>
      </trkpt>
      <trkpt lat="42.45759" lon="2.09668">
        <ele>1778.8</ele>
        <time>2023-07-18T06:31:00Z</time>
      </trkpt>
      <trkpt lat="42.45767" lon="2.09656">
        <ele>1778.9</ele>
        <time>2023-07-18T06:31:26Z</time>
      </trkpt>
      <trkpt lat="42.45778" lon="2.09651">
        <ele>1776.7</ele>
        <time>2023-07-18T06:31:52Z</time>
      </trkpt>
      <trkpt lat="42.4579" lon="2.09652">
        <ele>1774.2</ele>
        <time>2023-07-18T06:32:18Z</time>
      </trkpt>
      <trkpt lat="42.45796" lon="2.09651">
        <ele>1773.1</ele>
        <time>2023-07-18T06:32:44Z</time>
      </trkpt>
      <trkpt lat="42.4581" lon="2.09642">
        <ele>1771.5</ele>
        <time>2023-07-18T06:33:10Z</time>
      </trkpt>
      <trkpt lat="42.45817" lon="2.09636">
        <ele>1770.3</ele>
        <time>2023-07-18T06:33:36Z</time>
      </trkpt>
      <trkpt lat="42.45828" lon="2.09608">
        <ele>1770.3</ele>
        <time>2023-07-18T06:34:02Z</time>
      </trkpt>
      <trkpt lat="42.45853" lon="2.09569">
        <ele>1766.3</ele>
        <time>2023-07-18T06:34:28Z</time>
      </trkpt>
      <trkpt lat="42.45874" lon="2.09554">
        <ele>1762.6</ele>
        <time>2023-07-18T06:34:54Z</time>
      </trkpt>
      <trkpt lat="42.45898" lon="2.09521">
        <ele>1760.5</ele>
        <time>2023-07-18T06:35:20Z</time>
      </trkpt>
      <trkpt lat="42.45939" lon="2.09438">
        <ele>1758.3</ele>
        <time>2023-07-18T06:35:46Z</time>
      </trkpt>
      <trkpt lat="42.45964" lon="2.09403">
        <ele>1756.7</ele>
        <time>2023-07-18T06:36:12Z</time>
      </trkpt>
      <trkpt lat="42.45985" lon="2.09373">
        <ele>1757.3</ele>
        <time>2023-07-18T06:36:38Z</time>
      </trkpt>
      <trkpt lat="42.46005" lon="2.09358">
        <ele>1754.3</ele>
        <time>2023-07-18T06:37:04Z</time>
      </trkpt>
      <trkpt lat="42.46049" lon="2.09264">
        <ele>1753</ele>
        <time>2023-07-18T06:37:30Z</time>
      </trkpt>
      <trkpt lat="42.46094" lon="2.09191">
        <ele>1744.3</ele>
        <time>2023-07-18T06:37:56Z</time>
      </trkpt>
      <trkpt lat="42.46121" lon="2.0915">
        <ele>1740.9</ele>
        <time>2023-07-18T06:38:22Z</time>
      </trkpt>
      <trkpt lat="42.46127" lon="2.09148">
        <ele>1752.1999511719</ele>
        <time>2023-07-18T06:38:54.000Z</time>
      </trkpt>
      <trkpt lat="42.46127" lon="2.09149">
        <ele>1752</ele>
        <time>2023-07-18T06:38:55.000Z</time>
      </trkpt>
      <trkpt lat="42.46168" lon="2.09121">
        <ele>1746</ele>
        <time>2023-07-18T06:39:33.000Z</time>
      </trkpt>
      <trkpt lat="42.46198" lon="2.0911">
        <ele>1741.5999755859</ele>
        <time>2023-07-18T06:40:00.000Z</time>
      </trkpt>
      <trkpt lat="42.46203" lon="2.09107">
        <ele>1741.1999511719</ele>
        <time>2023-07-18T06:40:04.000Z</time>
      </trkpt>
      <trkpt lat="42.46207" lon="2.09103">
        <ele>1740.5999755859</ele>
        <time>2023-07-18T06:40:09.000Z</time>
      </trkpt>
      <trkpt lat="42.46209" lon="2.09099">
        <ele>1739.8000488281</ele>
        <time>2023-07-18T06:40:15.000Z</time>
      </trkpt>
      <trkpt lat="42.4621" lon="2.09098">
        <ele>1739.5999755859</ele>
        <time>2023-07-18T06:40:17.000Z</time>
      </trkpt>
      <trkpt lat="42.46212" lon="2.09094">
        <ele>1739</ele>
        <time>2023-07-18T06:40:23.000Z</time>
      </trkpt>
      <trkpt lat="42.46217" lon="2.09092">
        <ele>1738.5999755859</ele>
        <time>2023-07-18T06:40:30.000Z</time>
      </trkpt>
      <trkpt lat="42.46221" lon="2.09089">
        <ele>1738.4000244141</ele>
        <time>2023-07-18T06:40:38.000Z</time>
      </trkpt>
      <trkpt lat="42.46224" lon="2.09061">
        <ele>1738.4000244141</ele>
        <time>2023-07-18T06:40:53.000Z</time>
      </trkpt>
      <trkpt lat="42.46238" lon="2.09064">
        <ele>1736.4000244141</ele>
        <time>2023-07-18T06:41:08.000Z</time>
      </trkpt>
      <trkpt lat="42.46239" lon="2.09064">
        <ele>1736.1999511719</ele>
        <time>2023-07-18T06:41:09.000Z</time>
      </trkpt>
      <trkpt lat="42.46244" lon="2.09055">
        <ele>1735.4000244141</ele>
        <time>2023-07-18T06:41:16.000Z</time>
      </trkpt>
      <trkpt lat="42.46245" lon="2.09051">
        <ele>1735</ele>
        <time>2023-07-18T06:41:18.000Z</time>
      </trkpt>
      <trkpt lat="42.46254" lon="2.09051">
        <ele>1734</ele>
        <time>2023-07-18T06:41:26.000Z</time>
      </trkpt>
      <trkpt lat="42.46259" lon="2.09051">
        <ele>1733.4000244141</ele>
        <time>2023-07-18T06:41:30.000Z</time>
      </trkpt>
      <trkpt lat="42.46265" lon="2.09052">
        <ele>1733.1999511719</ele>
        <time>2023-07-18T06:41:32.000Z</time>
      </trkpt>
      <trkpt lat="42.46271" lon="2.0905">
        <ele>1733</ele>
        <time>2023-07-18T06:41:34.000Z</time>
      </trkpt>
      <trkpt lat="42.46281" lon="2.09041">
        <ele>1732.1999511719</ele>
        <time>2023-07-18T06:41:42.000Z</time>
      </trkpt>
      <trkpt lat="42.46283" lon="2.09041">
        <ele>1732</ele>
        <time>2023-07-18T06:41:43.000Z</time>
      </trkpt>
      <trkpt lat="42.46288" lon="2.09037">
        <ele>1731.4000244141</ele>
        <time>2023-07-18T06:41:49.000Z</time>
      </trkpt>
      <trkpt lat="42.46292" lon="2.09026">
        <ele>1731</ele>
        <time>2023-07-18T06:41:56.000Z</time>
      </trkpt>
      <trkpt lat="42.46292" lon="2.09025">
        <ele>1730.8000488281</ele>
        <time>2023-07-18T06:41:57.000Z</time>
      </trkpt>
      <trkpt lat="42.463" lon="2.09019">
        <ele>1730</ele>
        <time>2023-07-18T06:42:05.000Z</time>
      </trkpt>
      <trkpt lat="42.46302" lon="2.09017">
        <ele>1730</ele>
        <time>2023-07-18T06:42:07.000Z</time>
      </trkpt>
      <trkpt lat="42.46312" lon="2.09008">
        <ele>1729.8000488281</ele>
        <time>2023-07-18T06:42:15.000Z</time>
      </trkpt>
      <trkpt lat="42.46325" lon="2.08998">
        <ele>1729.5999755859</ele>
        <time>2023-07-18T06:42:25.000Z</time>
      </trkpt>
      <trkpt lat="42.46332" lon="2.08992">
        <ele>1729</ele>
        <time>2023-07-18T06:42:31.000Z</time>
      </trkpt>
      <trkpt lat="42.46335" lon="2.08985">
        <ele>1728.1999511719</ele>
        <time>2023-07-18T06:42:35.000Z</time>
      </trkpt>
      <trkpt lat="42.46337" lon="2.0898">
        <ele>1727.8000488281</ele>
        <time>2023-07-18T06:42:39.000Z</time>
      </trkpt>
      <trkpt lat="42.46338" lon="2.08971">
        <ele>1727.1999511719</ele>
        <time>2023-07-18T06:42:44.000Z</time>
      </trkpt>
      <trkpt lat="42.46342" lon="2.08956">
        <ele>1726.4000244141</ele>
        <time>2023-07-18T06:42:54.000Z</time>
      </trkpt>
      <trkpt lat="42.46345" lon="2.08946">
        <ele>1726.4000244141</ele>
        <time>2023-07-18T06:43:01.000Z</time>
      </trkpt>
      <trkpt lat="42.46352" lon="2.08933">
        <ele>1726.1999511719</ele>
        <time>2023-07-18T06:43:11.000Z</time>
      </trkpt>
      <trkpt lat="42.46356" lon="2.08918">
        <ele>1726.1999511719</ele>
        <time>2023-07-18T06:43:19.000Z</time>
      </trkpt>
      <trkpt lat="42.46361" lon="2.0891">
        <ele>1725.8000488281</ele>
        <time>2023-07-18T06:43:26.000Z</time>
      </trkpt>
      <trkpt lat="42.46363" lon="2.08906">
        <ele>1725.5999755859</ele>
        <time>2023-07-18T06:43:29.000Z</time>
      </trkpt>
      <trkpt lat="42.46366" lon="2.08902">
        <ele>1725.4000244141</ele>
        <time>2023-07-18T06:43:32.000Z</time>
      </trkpt>
      <trkpt lat="42.46374" lon="2.08899">
        <ele>1725.1999511719</ele>
        <time>2023-07-18T06:43:38.000Z</time>
      </trkpt>
      <trkpt lat="42.46378" lon="2.08895">
        <ele>1724.5999755859</ele>
        <time>2023-07-18T06:43:43.000Z</time>
      </trkpt>
      <trkpt lat="42.46381" lon="2.0889">
        <ele>1724.1999511719</ele>
        <time>2023-07-18T06:43:47.000Z</time>
      </trkpt>
      <trkpt lat="42.46389" lon="2.08884">
        <ele>1723.4000244141</ele>
        <time>2023-07-18T06:43:54.000Z</time>
      </trkpt>
      <trkpt lat="42.4639" lon="2.08882">
        <ele>1723.1999511719</ele>
        <time>2023-07-18T06:43:57.000Z</time>
      </trkpt>
      <trkpt lat="42.46393" lon="2.08879">
        <ele>1722.5999755859</ele>
        <time>2023-07-18T06:44:02.000Z</time>
      </trkpt>
      <trkpt lat="42.46393" lon="2.08876">
        <ele>1722.4000244141</ele>
        <time>2023-07-18T06:44:04.000Z</time>
      </trkpt>
      <trkpt lat="42.46398" lon="2.08862">
        <ele>1721.1999511719</ele>
        <time>2023-07-18T06:44:14.000Z</time>
      </trkpt>
      <trkpt lat="42.46425" lon="2.08839">
        <ele>1720</ele>
        <time>2023-07-18T06:44:34.000Z</time>
      </trkpt>
      <trkpt lat="42.46428" lon="2.08825">
        <ele>1719.8000488281</ele>
        <time>2023-07-18T06:44:41.000Z</time>
      </trkpt>
      <trkpt lat="42.46429" lon="2.08813">
        <ele>1719.4000244141</ele>
        <time>2023-07-18T06:44:48.000Z</time>
      </trkpt>
      <trkpt lat="42.46464" lon="2.08769">
        <ele>1717.8000488281</ele>
        <time>2023-07-18T06:46:24.000Z</time>
      </trkpt>
      <trkpt lat="42.46468" lon="2.08763">
        <ele>1717.4000244141</ele>
        <time>2023-07-18T06:46:30.000Z</time>
      </trkpt>
      <trkpt lat="42.46478" lon="2.08742">
        <ele>1716.5999755859</ele>
        <time>2023-07-18T06:46:45.000Z</time>
      </trkpt>
      <trkpt lat="42.46482" lon="2.08734">
        <ele>1716.1999511719</ele>
        <time>2023-07-18T06:46:49.000Z</time>
      </trkpt>
      <trkpt lat="42.46486" lon="2.08724">
        <ele>1715</ele>
        <time>2023-07-18T06:46:56.000Z</time>
      </trkpt>
      <trkpt lat="42.46485" lon="2.08717">
        <ele>1714.1999511719</ele>
        <time>2023-07-18T06:47:00.000Z</time>
      </trkpt>
      <trkpt lat="42.46486" lon="2.08715">
        <ele>1713.8000488281</ele>
        <time>2023-07-18T06:47:02.000Z</time>
      </trkpt>
      <trkpt lat="42.46488" lon="2.08708">
        <ele>1712.8000488281</ele>
        <time>2023-07-18T06:47:07.000Z</time>
      </trkpt>
      <trkpt lat="42.46488" lon="2.08706">
        <ele>1712.5999755859</ele>
        <time>2023-07-18T06:47:08.000Z</time>
      </trkpt>
      <trkpt lat="42.4649" lon="2.08698">
        <ele>1711.5999755859</ele>
        <time>2023-07-18T06:47:13.000Z</time>
      </trkpt>
      <trkpt lat="42.4649" lon="2.08697">
        <ele>1711.4000244141</ele>
        <time>2023-07-18T06:47:14.000Z</time>
      </trkpt>
      <trkpt lat="42.46489" lon="2.08689">
        <ele>1710.4000244141</ele>
        <time>2023-07-18T06:47:19.000Z</time>
      </trkpt>
      <trkpt lat="42.46489" lon="2.08684">
        <ele>1710</ele>
        <time>2023-07-18T06:47:22.000Z</time>
      </trkpt>
      <trkpt lat="42.46487" lon="2.08676">
        <ele>1709.1999511719</ele>
        <time>2023-07-18T06:47:26.000Z</time>
      </trkpt>
      <trkpt lat="42.46486" lon="2.08675">
        <ele>1708.8000488281</ele>
        <time>2023-07-18T06:47:30.000Z</time>
      </trkpt>
      <trkpt lat="42.46485" lon="2.08673">
        <ele>1708.1999511719</ele>
        <time>2023-07-18T06:47:37.000Z</time>
      </trkpt>
      <trkpt lat="42.46484" lon="2.08672">
        <ele>1708</ele>
        <time>2023-07-18T06:47:38.000Z</time>
      </trkpt>
      <trkpt lat="42.46481" lon="2.08666">
        <ele>1707</ele>
        <time>2023-07-18T06:47:44.000Z</time>
      </trkpt>
      <trkpt lat="42.46479" lon="2.08659">
        <ele>1706.1999511719</ele>
        <time>2023-07-18T06:47:48.000Z</time>
      </trkpt>
      <trkpt lat="42.46478" lon="2.08656">
        <ele>1705.8000488281</ele>
        <time>2023-07-18T06:47:50.000Z</time>
      </trkpt>
      <trkpt lat="42.46473" lon="2.08652">
        <ele>1705.1999511719</ele>
        <time>2023-07-18T06:47:56.000Z</time>
      </trkpt>
      <trkpt lat="42.4647" lon="2.08649">
        <ele>1704.8000488281</ele>
        <time>2023-07-18T06:47:58.000Z</time>
      </trkpt>
      <trkpt lat="42.46462" lon="2.08641">
        <ele>1703.8000488281</ele>
        <time>2023-07-18T06:48:04.000Z</time>
      </trkpt>
      <trkpt lat="42.46462" lon="2.08639">
        <ele>1703.5999755859</ele>
        <time>2023-07-18T06:48:05.000Z</time>
      </trkpt>
      <trkpt lat="42.46457" lon="2.08627">
        <ele>1702.8000488281</ele>
        <time>2023-07-18T06:48:11.000Z</time>
      </trkpt>
      <trkpt lat="42.46457" lon="2.08623">
        <ele>1702.5999755859</ele>
        <time>2023-07-18T06:48:14.000Z</time>
      </trkpt>
      <trkpt lat="42.46458" lon="2.08617">
        <ele>1702.4000244141</ele>
        <time>2023-07-18T06:48:18.000Z</time>
      </trkpt>
      <trkpt lat="42.46455" lon="2.08606">
        <ele>1702</ele>
        <time>2023-07-18T06:48:26.000Z</time>
      </trkpt>
      <trkpt lat="42.46451" lon="2.08598">
        <ele>1701.4000244141</ele>
        <time>2023-07-18T06:48:32.000Z</time>
      </trkpt>
      <trkpt lat="42.46447" lon="2.08591">
        <ele>1701</ele>
        <time>2023-07-18T06:48:36.000Z</time>
      </trkpt>
      <trkpt lat="42.46445" lon="2.08587">
        <ele>1700.4000244141</ele>
        <time>2023-07-18T06:48:39.000Z</time>
      </trkpt>
      <trkpt lat="42.46444" lon="2.08582">
        <ele>1699.5999755859</ele>
        <time>2023-07-18T06:48:43.000Z</time>
      </trkpt>
      <trkpt lat="42.46444" lon="2.08576">
        <ele>1699.5999755859</ele>
        <time>2023-07-18T06:48:47.000Z</time>
      </trkpt>
      <trkpt lat="42.46445" lon="2.08573">
        <ele>1699.5999755859</ele>
        <time>2023-07-18T06:48:52.000Z</time>
      </trkpt>
      <trkpt lat="42.46445" lon="2.08573">
        <ele>1699.5999755859</ele>
        <time>2023-07-18T06:48:53.000Z</time>
      </trkpt>
      <trkpt lat="42.46445" lon="2.08573">
        <ele>1699.5999755859</ele>
        <time>2023-07-18T06:49:00.000Z</time>
      </trkpt>
      <trkpt lat="42.46445" lon="2.08572">
        <ele>1699.4000244141</ele>
        <time>2023-07-18T06:49:03.000Z</time>
      </trkpt>
      <trkpt lat="42.46445" lon="2.08571">
        <ele>1699.1999511719</ele>
        <time>2023-07-18T06:49:06.000Z</time>
      </trkpt>
      <trkpt lat="42.46441" lon="2.08567">
        <ele>1698.8000488281</ele>
        <time>2023-07-18T06:49:13.000Z</time>
      </trkpt>
      <trkpt lat="42.46439" lon="2.08561">
        <ele>1698.4000244141</ele>
        <time>2023-07-18T06:49:18.000Z</time>
      </trkpt>
      <trkpt lat="42.4644" lon="2.08556">
        <ele>1698</ele>
        <time>2023-07-18T06:49:21.000Z</time>
      </trkpt>
      <trkpt lat="42.46444" lon="2.08549">
        <ele>1697.1999511719</ele>
        <time>2023-07-18T06:49:28.000Z</time>
      </trkpt>
      <trkpt lat="42.46445" lon="2.08549">
        <ele>1697</ele>
        <time>2023-07-18T06:49:29.000Z</time>
      </trkpt>
      <trkpt lat="42.46442" lon="2.08547">
        <ele>1696.4000244141</ele>
        <time>2023-07-18T06:49:38.000Z</time>
      </trkpt>
      <trkpt lat="42.46451" lon="2.08549">
        <ele>1696</ele>
        <time>2023-07-18T06:49:57.000Z</time>
      </trkpt>
      <trkpt lat="42.46452" lon="2.08555">
        <ele>1695.8000488281</ele>
        <time>2023-07-18T06:50:07.000Z</time>
      </trkpt>
      <trkpt lat="42.46455" lon="2.08562">
        <ele>1695.1999511719</ele>
        <time>2023-07-18T06:50:15.000Z</time>
      </trkpt>
      <trkpt lat="42.46456" lon="2.08563">
        <ele>1695.1999511719</ele>
        <time>2023-07-18T06:50:16.000Z</time>
      </trkpt>
      <trkpt lat="42.46462" lon="2.08572">
        <ele>1694.5999755859</ele>
        <time>2023-07-18T06:50:22.000Z</time>
      </trkpt>
      <trkpt lat="42.46466" lon="2.08574">
        <ele>1694.1999511719</ele>
        <time>2023-07-18T06:50:26.000Z</time>
      </trkpt>
      <trkpt lat="42.46467" lon="2.08572">
        <ele>1694.1999511719</ele>
        <time>2023-07-18T06:50:28.000Z</time>
      </trkpt>
      <trkpt lat="42.46467" lon="2.08571">
        <ele>1694</ele>
        <time>2023-07-18T06:50:29.000Z</time>
      </trkpt>
      <trkpt lat="42.4647" lon="2.08565">
        <ele>1693</ele>
        <time>2023-07-18T06:50:37.000Z</time>
      </trkpt>
      <trkpt lat="42.46474" lon="2.08558">
        <ele>1692</ele>
        <time>2023-07-18T06:50:41.000Z</time>
      </trkpt>
      <trkpt lat="42.46478" lon="2.08551">
        <ele>1690.8000488281</ele>
        <time>2023-07-18T06:50:45.000Z</time>
      </trkpt>
      <trkpt lat="42.46481" lon="2.08545">
        <ele>1689.8000488281</ele>
        <time>2023-07-18T06:50:49.000Z</time>
      </trkpt>
      <trkpt lat="42.46483" lon="2.08542">
        <ele>1689</ele>
        <time>2023-07-18T06:50:53.000Z</time>
      </trkpt>
      <trkpt lat="42.46483" lon="2.0854">
        <ele>1688.5999755859</ele>
        <time>2023-07-18T06:50:54.000Z</time>
      </trkpt>
      <trkpt lat="42.46487" lon="2.08534">
        <ele>1687.5999755859</ele>
        <time>2023-07-18T06:50:59.000Z</time>
      </trkpt>
      <trkpt lat="42.46487" lon="2.08534">
        <ele>1687.4000244141</ele>
        <time>2023-07-18T06:51:00.000Z</time>
      </trkpt>
      <trkpt lat="42.46492" lon="2.08529">
        <ele>1686.4000244141</ele>
        <time>2023-07-18T06:51:05.000Z</time>
      </trkpt>
      <trkpt lat="42.46493" lon="2.08527">
        <ele>1686</ele>
        <time>2023-07-18T06:51:07.000Z</time>
      </trkpt>
      <trkpt lat="42.46495" lon="2.08526">
        <ele>1685.1999511719</ele>
        <time>2023-07-18T06:51:10.000Z</time>
      </trkpt>
      <trkpt lat="42.46496" lon="2.08522">
        <ele>1684</ele>
        <time>2023-07-18T06:51:14.000Z</time>
      </trkpt>
      <trkpt lat="42.46497" lon="2.0852">
        <ele>1683.8000488281</ele>
        <time>2023-07-18T06:51:15.000Z</time>
      </trkpt>
      <trkpt lat="42.46498" lon="2.08517">
        <ele>1682.8000488281</ele>
        <time>2023-07-18T06:51:18.000Z</time>
      </trkpt>
      <trkpt lat="42.46501" lon="2.08511">
        <ele>1681.5999755859</ele>
        <time>2023-07-18T06:51:22.000Z</time>
      </trkpt>
      <trkpt lat="42.465" lon="2.08507">
        <ele>1681.4000244141</ele>
        <time>2023-07-18T06:51:24.000Z</time>
      </trkpt>
      <trkpt lat="42.465" lon="2.08498">
        <ele>1680.5999755859</ele>
        <time>2023-07-18T06:51:29.000Z</time>
      </trkpt>
      <trkpt lat="42.46501" lon="2.08491">
        <ele>1679.8000488281</ele>
        <time>2023-07-18T06:51:34.000Z</time>
      </trkpt>
      <trkpt lat="42.46501" lon="2.08489">
        <ele>1679.5999755859</ele>
        <time>2023-07-18T06:51:35.000Z</time>
      </trkpt>
      <trkpt lat="42.46504" lon="2.08483">
        <ele>1678.8000488281</ele>
        <time>2023-07-18T06:51:41.000Z</time>
      </trkpt>
      <trkpt lat="42.46506" lon="2.08481">
        <ele>1678.5999755859</ele>
        <time>2023-07-18T06:51:43.000Z</time>
      </trkpt>
      <trkpt lat="42.46511" lon="2.08478">
        <ele>1677.5999755859</ele>
        <time>2023-07-18T06:51:49.000Z</time>
      </trkpt>
      <trkpt lat="42.46512" lon="2.08477">
        <ele>1677.4000244141</ele>
        <time>2023-07-18T06:51:50.000Z</time>
      </trkpt>
      <trkpt lat="42.46515" lon="2.08476">
        <ele>1676.4000244141</ele>
        <time>2023-07-18T06:51:54.000Z</time>
      </trkpt>
      <trkpt lat="42.46545" lon="2.0846">
        <ele>1670.1999511719</ele>
        <time>2023-07-18T06:52:22.000Z</time>
      </trkpt>
      <trkpt lat="42.46546" lon="2.08459">
        <ele>1670</ele>
        <time>2023-07-18T06:52:23.000Z</time>
      </trkpt>
      <trkpt lat="42.46551" lon="2.08454">
        <ele>1669</ele>
        <time>2023-07-18T06:52:28.000Z</time>
      </trkpt>
      <trkpt lat="42.46553" lon="2.08453">
        <ele>1668.8000488281</ele>
        <time>2023-07-18T06:52:29.000Z</time>
      </trkpt>
      <trkpt lat="42.46559" lon="2.08447">
        <ele>1667.8000488281</ele>
        <time>2023-07-18T06:52:34.000Z</time>
      </trkpt>
      <trkpt lat="42.46563" lon="2.08443">
        <ele>1667</ele>
        <time>2023-07-18T06:52:37.000Z</time>
      </trkpt>
      <trkpt lat="42.46564" lon="2.08442">
        <ele>1666.8000488281</ele>
        <time>2023-07-18T06:52:38.000Z</time>
      </trkpt>
      <trkpt lat="42.4657" lon="2.0844">
        <ele>1665.5999755859</ele>
        <time>2023-07-18T06:52:44.000Z</time>
      </trkpt>
      <trkpt lat="42.46576" lon="2.08435">
        <ele>1664.5999755859</ele>
        <time>2023-07-18T06:52:51.000Z</time>
      </trkpt>
      <trkpt lat="42.46576" lon="2.08435">
        <ele>1664.4000244141</ele>
        <time>2023-07-18T06:52:53.000Z</time>
      </trkpt>
      <trkpt lat="42.46579" lon="2.08433">
        <ele>1663.5999755859</ele>
        <time>2023-07-18T06:53:00.000Z</time>
      </trkpt>
      <trkpt lat="42.4658" lon="2.08432">
        <ele>1663.4000244141</ele>
        <time>2023-07-18T06:53:01.000Z</time>
      </trkpt>
      <trkpt lat="42.46585" lon="2.08427">
        <ele>1662.4000244141</ele>
        <time>2023-07-18T06:53:08.000Z</time>
      </trkpt>
      <trkpt lat="42.46587" lon="2.08425">
        <ele>1662.1999511719</ele>
        <time>2023-07-18T06:53:10.000Z</time>
      </trkpt>
      <trkpt lat="42.46595" lon="2.08418">
        <ele>1661.4000244141</ele>
        <time>2023-07-18T06:53:18.000Z</time>
      </trkpt>
      <trkpt lat="42.46603" lon="2.0841">
        <ele>1660.1999511719</ele>
        <time>2023-07-18T06:53:26.000Z</time>
      </trkpt>
      <trkpt lat="42.46604" lon="2.08409">
        <ele>1660.1999511719</ele>
        <time>2023-07-18T06:53:27.000Z</time>
      </trkpt>
      <trkpt lat="42.46612" lon="2.08402">
        <ele>1659</ele>
        <time>2023-07-18T06:53:35.000Z</time>
      </trkpt>
      <trkpt lat="42.46614" lon="2.08401">
        <ele>1658.8000488281</ele>
        <time>2023-07-18T06:53:36.000Z</time>
      </trkpt>
      <trkpt lat="42.46619" lon="2.08397">
        <ele>1658</ele>
        <time>2023-07-18T06:53:41.000Z</time>
      </trkpt>
      <trkpt lat="42.46621" lon="2.08395">
        <ele>1657.4000244141</ele>
        <time>2023-07-18T06:53:44.000Z</time>
      </trkpt>
      <trkpt lat="42.46624" lon="2.08393">
        <ele>1657</ele>
        <time>2023-07-18T06:53:47.000Z</time>
      </trkpt>
      <trkpt lat="42.4663" lon="2.08388">
        <ele>1655.8000488281</ele>
        <time>2023-07-18T06:53:53.000Z</time>
      </trkpt>
      <trkpt lat="42.46639" lon="2.08381">
        <ele>1654.8000488281</ele>
        <time>2023-07-18T06:54:01.000Z</time>
      </trkpt>
      <trkpt lat="42.4664" lon="2.08381">
        <ele>1654.5999755859</ele>
        <time>2023-07-18T06:54:02.000Z</time>
      </trkpt>
      <trkpt lat="42.46644" lon="2.08378">
        <ele>1653.8000488281</ele>
        <time>2023-07-18T06:54:09.000Z</time>
      </trkpt>
      <trkpt lat="42.46645" lon="2.08378">
        <ele>1653.5999755859</ele>
        <time>2023-07-18T06:54:10.000Z</time>
      </trkpt>
      <trkpt lat="42.46655" lon="2.08373">
        <ele>1652.8000488281</ele>
        <time>2023-07-18T06:54:19.000Z</time>
      </trkpt>
      <trkpt lat="42.46656" lon="2.08372">
        <ele>1652.5999755859</ele>
        <time>2023-07-18T06:54:20.000Z</time>
      </trkpt>
      <trkpt lat="42.46664" lon="2.08366">
        <ele>1651.4000244141</ele>
        <time>2023-07-18T06:54:28.000Z</time>
      </trkpt>
      <trkpt lat="42.46667" lon="2.08364">
        <ele>1651</ele>
        <time>2023-07-18T06:54:31.000Z</time>
      </trkpt>
      <trkpt lat="42.46671" lon="2.0836">
        <ele>1650.4000244141</ele>
        <time>2023-07-18T06:54:35.000Z</time>
      </trkpt>
      <trkpt lat="42.46672" lon="2.08358">
        <ele>1650.4000244141</ele>
        <time>2023-07-18T06:54:36.000Z</time>
      </trkpt>
      <trkpt lat="42.4668" lon="2.08349">
        <ele>1649.4000244141</ele>
        <time>2023-07-18T06:54:45.000Z</time>
      </trkpt>
      <trkpt lat="42.46681" lon="2.08348">
        <ele>1649.1999511719</ele>
        <time>2023-07-18T06:54:46.000Z</time>
      </trkpt>
      <trkpt lat="42.46685" lon="2.08341">
        <ele>1648.4000244141</ele>
        <time>2023-07-18T06:54:51.000Z</time>
      </trkpt>
      <trkpt lat="42.46686" lon="2.08339">
        <ele>1647.8000488281</ele>
        <time>2023-07-18T06:54:54.000Z</time>
      </trkpt>
      <trkpt lat="42.4669" lon="2.08335">
        <ele>1647.1999511719</ele>
        <time>2023-07-18T06:54:58.000Z</time>
      </trkpt>
      <trkpt lat="42.46693" lon="2.08332">
        <ele>1646.8000488281</ele>
        <time>2023-07-18T06:55:02.000Z</time>
      </trkpt>
      <trkpt lat="42.467" lon="2.08327">
        <ele>1646.4000244141</ele>
        <time>2023-07-18T06:55:08.000Z</time>
      </trkpt>
      <trkpt lat="42.467" lon="2.08326">
        <ele>1646.1999511719</ele>
        <time>2023-07-18T06:55:09.000Z</time>
      </trkpt>
      <trkpt lat="42.46707" lon="2.08318">
        <ele>1645</ele>
        <time>2023-07-18T06:55:16.000Z</time>
      </trkpt>
      <trkpt lat="42.46715" lon="2.0831">
        <ele>1644</ele>
        <time>2023-07-18T06:55:23.000Z</time>
      </trkpt>
      <trkpt lat="42.46716" lon="2.08309">
        <ele>1644</ele>
        <time>2023-07-18T06:55:24.000Z</time>
      </trkpt>
      <trkpt lat="42.46725" lon="2.08301">
        <ele>1643</ele>
        <time>2023-07-18T06:55:34.000Z</time>
      </trkpt>
      <trkpt lat="42.46726" lon="2.083">
        <ele>1643</ele>
        <time>2023-07-18T06:55:35.000Z</time>
      </trkpt>
      <trkpt lat="42.46729" lon="2.08293">
        <ele>1642</ele>
        <time>2023-07-18T06:55:40.000Z</time>
      </trkpt>
      <trkpt lat="42.46731" lon="2.08291">
        <ele>1641.5999755859</ele>
        <time>2023-07-18T06:55:42.000Z</time>
      </trkpt>
      <trkpt lat="42.46733" lon="2.08287">
        <ele>1640.5999755859</ele>
        <time>2023-07-18T06:55:46.000Z</time>
      </trkpt>
      <trkpt lat="42.46734" lon="2.08286">
        <ele>1640.4000244141</ele>
        <time>2023-07-18T06:55:48.000Z</time>
      </trkpt>
      <trkpt lat="42.46741" lon="2.08282">
        <ele>1639.8000488281</ele>
        <time>2023-07-18T06:55:55.000Z</time>
      </trkpt>
      <trkpt lat="42.46742" lon="2.08281">
        <ele>1639.5999755859</ele>
        <time>2023-07-18T06:55:56.000Z</time>
      </trkpt>
      <trkpt lat="42.46752" lon="2.08275">
        <ele>1638.5999755859</ele>
        <time>2023-07-18T06:56:05.000Z</time>
      </trkpt>
      <trkpt lat="42.46757" lon="2.08268">
        <ele>1637.8000488281</ele>
        <time>2023-07-18T06:56:12.000Z</time>
      </trkpt>
      <trkpt lat="42.46758" lon="2.08266">
        <ele>1637.4000244141</ele>
        <time>2023-07-18T06:56:15.000Z</time>
      </trkpt>
      <trkpt lat="42.46765" lon="2.08262">
        <ele>1636.5999755859</ele>
        <time>2023-07-18T06:56:21.000Z</time>
      </trkpt>
      <trkpt lat="42.46766" lon="2.08261">
        <ele>1636.4000244141</ele>
        <time>2023-07-18T06:56:22.000Z</time>
      </trkpt>
      <trkpt lat="42.46771" lon="2.08257">
        <ele>1635.5999755859</ele>
        <time>2023-07-18T06:56:28.000Z</time>
      </trkpt>
      <trkpt lat="42.46773" lon="2.08255">
        <ele>1635.1999511719</ele>
        <time>2023-07-18T06:56:30.000Z</time>
      </trkpt>
      <trkpt lat="42.4677" lon="2.08256">
        <ele>1634.8000488281</ele>
        <time>2023-07-18T06:56:34.000Z</time>
      </trkpt>
      <trkpt lat="42.46771" lon="2.08256">
        <ele>1634.8000488281</ele>
        <time>2023-07-18T06:56:35.000Z</time>
      </trkpt>
      <trkpt lat="42.4678" lon="2.08255">
        <ele>1634.4000244141</ele>
        <time>2023-07-18T06:56:42.000Z</time>
      </trkpt>
      <trkpt lat="42.46783" lon="2.08255">
        <ele>1634</ele>
        <time>2023-07-18T06:56:44.000Z</time>
      </trkpt>
      <trkpt lat="42.4679" lon="2.08254">
        <ele>1633.4000244141</ele>
        <time>2023-07-18T06:56:51.000Z</time>
      </trkpt>
      <trkpt lat="42.46799" lon="2.08254">
        <ele>1633</ele>
        <time>2023-07-18T06:56:58.000Z</time>
      </trkpt>
      <trkpt lat="42.46801" lon="2.08254">
        <ele>1632.5999755859</ele>
        <time>2023-07-18T06:57:00.000Z</time>
      </trkpt>
      <trkpt lat="42.46806" lon="2.08253">
        <ele>1631.8000488281</ele>
        <time>2023-07-18T06:57:04.000Z</time>
      </trkpt>
      <trkpt lat="42.4681" lon="2.08251">
        <ele>1631.4000244141</ele>
        <time>2023-07-18T06:57:07.000Z</time>
      </trkpt>
      <trkpt lat="42.46817" lon="2.08246">
        <ele>1630.5999755859</ele>
        <time>2023-07-18T06:57:14.000Z</time>
      </trkpt>
      <trkpt lat="42.46817" lon="2.08245">
        <ele>1630.5999755859</ele>
        <time>2023-07-18T06:57:15.000Z</time>
      </trkpt>
      <trkpt lat="42.4682" lon="2.08243">
        <ele>1630</ele>
        <time>2023-07-18T06:57:23.000Z</time>
      </trkpt>
      <trkpt lat="42.46819" lon="2.08242">
        <ele>1629.5999755859</ele>
        <time>2023-07-18T06:57:28.000Z</time>
      </trkpt>
      <trkpt lat="42.4682" lon="2.08241">
        <ele>1629.8000488281</ele>
        <time>2023-07-18T06:57:32.000Z</time>
      </trkpt>
      <trkpt lat="42.46822" lon="2.08245">
        <ele>1629.5999755859</ele>
        <time>2023-07-18T06:57:41.000Z</time>
      </trkpt>
      <trkpt lat="42.4683" lon="2.08243">
        <ele>1628.8000488281</ele>
        <time>2023-07-18T06:57:49.000Z</time>
      </trkpt>
      <trkpt lat="42.46832" lon="2.08243">
        <ele>1628.5999755859</ele>
        <time>2023-07-18T06:57:51.000Z</time>
      </trkpt>
      <trkpt lat="42.46837" lon="2.08243">
        <ele>1627.5999755859</ele>
        <time>2023-07-18T06:57:56.000Z</time>
      </trkpt>
      <trkpt lat="42.4684" lon="2.08243">
        <ele>1627.1999511719</ele>
        <time>2023-07-18T06:57:58.000Z</time>
      </trkpt>
      <trkpt lat="42.46844" lon="2.08244">
        <ele>1626.4000244141</ele>
        <time>2023-07-18T06:58:01.000Z</time>
      </trkpt>
      <trkpt lat="42.46848" lon="2.08245">
        <ele>1625.4000244141</ele>
        <time>2023-07-18T06:58:05.000Z</time>
      </trkpt>
      <trkpt lat="42.46851" lon="2.08246">
        <ele>1624.8000488281</ele>
        <time>2023-07-18T06:58:08.000Z</time>
      </trkpt>
      <trkpt lat="42.46853" lon="2.08246">
        <ele>1624.4000244141</ele>
        <time>2023-07-18T06:58:10.000Z</time>
      </trkpt>
      <trkpt lat="42.46857" lon="2.08246">
        <ele>1623.1999511719</ele>
        <time>2023-07-18T06:58:14.000Z</time>
      </trkpt>
      <trkpt lat="42.46859" lon="2.08245">
        <ele>1623</ele>
        <time>2023-07-18T06:58:15.000Z</time>
      </trkpt>
      <trkpt lat="42.46865" lon="2.08245">
        <ele>1622</ele>
        <time>2023-07-18T06:58:20.000Z</time>
      </trkpt>
      <trkpt lat="42.46872" lon="2.08243">
        <ele>1620.8000488281</ele>
        <time>2023-07-18T06:58:25.000Z</time>
      </trkpt>
      <trkpt lat="42.46875" lon="2.08242">
        <ele>1619.8000488281</ele>
        <time>2023-07-18T06:58:29.000Z</time>
      </trkpt>
      <trkpt lat="42.46879" lon="2.0824">
        <ele>1618.8000488281</ele>
        <time>2023-07-18T06:58:33.000Z</time>
      </trkpt>
      <trkpt lat="42.46882" lon="2.08237">
        <ele>1618.1999511719</ele>
        <time>2023-07-18T06:58:36.000Z</time>
      </trkpt>
      <trkpt lat="42.46884" lon="2.08236">
        <ele>1617.8000488281</ele>
        <time>2023-07-18T06:58:38.000Z</time>
      </trkpt>
      <trkpt lat="42.46888" lon="2.08234">
        <ele>1616.5999755859</ele>
        <time>2023-07-18T06:58:42.000Z</time>
      </trkpt>
      <trkpt lat="42.4689" lon="2.08233">
        <ele>1616.1999511719</ele>
        <time>2023-07-18T06:58:45.000Z</time>
      </trkpt>
      <trkpt lat="42.46893" lon="2.08233">
        <ele>1615.5999755859</ele>
        <time>2023-07-18T06:58:47.000Z</time>
      </trkpt>
      <trkpt lat="42.46899" lon="2.08233">
        <ele>1614.5999755859</ele>
        <time>2023-07-18T06:58:52.000Z</time>
      </trkpt>
      <trkpt lat="42.469" lon="2.08233">
        <ele>1614.5999755859</ele>
        <time>2023-07-18T06:58:53.000Z</time>
      </trkpt>
      <trkpt lat="42.46904" lon="2.08232">
        <ele>1613.4000244141</ele>
        <time>2023-07-18T06:58:58.000Z</time>
      </trkpt>
      <trkpt lat="42.46907" lon="2.08233">
        <ele>1612.5999755859</ele>
        <time>2023-07-18T06:59:00.000Z</time>
      </trkpt>
      <trkpt lat="42.46909" lon="2.08232">
        <ele>1612.4000244141</ele>
        <time>2023-07-18T06:59:02.000Z</time>
      </trkpt>
      <trkpt lat="42.46916" lon="2.08233">
        <ele>1611.4000244141</ele>
        <time>2023-07-18T06:59:09.000Z</time>
      </trkpt>
      <trkpt lat="42.46922" lon="2.08232">
        <ele>1610</ele>
        <time>2023-07-18T06:59:14.000Z</time>
      </trkpt>
      <trkpt lat="42.46928" lon="2.0823">
        <ele>1609.1999511719</ele>
        <time>2023-07-18T06:59:18.000Z</time>
      </trkpt>
      <trkpt lat="42.46931" lon="2.08229">
        <ele>1609</ele>
        <time>2023-07-18T06:59:20.000Z</time>
      </trkpt>
      <trkpt lat="42.46939" lon="2.08228">
        <ele>1608.1999511719</ele>
        <time>2023-07-18T06:59:27.000Z</time>
      </trkpt>
      <trkpt lat="42.46941" lon="2.08227">
        <ele>1608</ele>
        <time>2023-07-18T06:59:29.000Z</time>
      </trkpt>
      <trkpt lat="42.46944" lon="2.08225">
        <ele>1607</ele>
        <time>2023-07-18T06:59:35.000Z</time>
      </trkpt>
      <trkpt lat="42.46945" lon="2.08225">
        <ele>1606.8000488281</ele>
        <time>2023-07-18T06:59:36.000Z</time>
      </trkpt>
      <trkpt lat="42.46945" lon="2.08226">
        <ele>1606.5999755859</ele>
        <time>2023-07-18T06:59:37.000Z</time>
      </trkpt>
      <trkpt lat="42.46943" lon="2.08232">
        <ele>1605.8000488281</ele>
        <time>2023-07-18T06:59:42.000Z</time>
      </trkpt>
      <trkpt lat="42.46937" lon="2.08241">
        <ele>1604.8000488281</ele>
        <time>2023-07-18T06:59:49.000Z</time>
      </trkpt>
      <trkpt lat="42.46936" lon="2.08243">
        <ele>1604.8000488281</ele>
        <time>2023-07-18T06:59:50.000Z</time>
      </trkpt>
      <trkpt lat="42.46939" lon="2.08245">
        <ele>1604.4000244141</ele>
        <time>2023-07-18T06:59:53.000Z</time>
      </trkpt>
      <trkpt lat="42.46941" lon="2.08246">
        <ele>1604.1999511719</ele>
        <time>2023-07-18T06:59:55.000Z</time>
      </trkpt>
      <trkpt lat="42.46944" lon="2.08244">
        <ele>1603.8000488281</ele>
        <time>2023-07-18T06:59:58.000Z</time>
      </trkpt>
      <trkpt lat="42.4695" lon="2.08241">
        <ele>1602.5999755859</ele>
        <time>2023-07-18T07:00:03.000Z</time>
      </trkpt>
      <trkpt lat="42.46954" lon="2.08242">
        <ele>1601.5999755859</ele>
        <time>2023-07-18T07:00:08.000Z</time>
      </trkpt>
      <trkpt lat="42.46957" lon="2.08246">
        <ele>1600.5999755859</ele>
        <time>2023-07-18T07:00:13.000Z</time>
      </trkpt>
      <trkpt lat="42.46968" lon="2.08252">
        <ele>1599.5999755859</ele>
        <time>2023-07-18T07:00:20.000Z</time>
      </trkpt>
      <trkpt lat="42.4697" lon="2.08253">
        <ele>1599.4000244141</ele>
        <time>2023-07-18T07:00:21.000Z</time>
      </trkpt>
      <trkpt lat="42.46976" lon="2.08259">
        <ele>1598.8000488281</ele>
        <time>2023-07-18T07:00:27.000Z</time>
      </trkpt>
      <trkpt lat="42.46981" lon="2.08265">
        <ele>1598.4000244141</ele>
        <time>2023-07-18T07:00:33.000Z</time>
      </trkpt>
      <trkpt lat="42.46984" lon="2.08268">
        <ele>1598.1999511719</ele>
        <time>2023-07-18T07:00:36.000Z</time>
      </trkpt>
      <trkpt lat="42.46993" lon="2.08277">
        <ele>1597.5999755859</ele>
        <time>2023-07-18T07:00:44.000Z</time>
      </trkpt>
      <trkpt lat="42.46995" lon="2.0828">
        <ele>1597.4000244141</ele>
        <time>2023-07-18T07:00:46.000Z</time>
      </trkpt>
      <trkpt lat="42.47" lon="2.08288">
        <ele>1596.8000488281</ele>
        <time>2023-07-18T07:00:52.000Z</time>
      </trkpt>
      <trkpt lat="42.47007" lon="2.08301">
        <ele>1596.4000244141</ele>
        <time>2023-07-18T07:01:01.000Z</time>
      </trkpt>
      <trkpt lat="42.47014" lon="2.08312">
        <ele>1595.4000244141</ele>
        <time>2023-07-18T07:01:11.000Z</time>
      </trkpt>
      <trkpt lat="42.47017" lon="2.08315">
        <ele>1595.1999511719</ele>
        <time>2023-07-18T07:01:13.000Z</time>
      </trkpt>
      <trkpt lat="42.47025" lon="2.08316">
        <ele>1594.1999511719</ele>
        <time>2023-07-18T07:01:20.000Z</time>
      </trkpt>
      <trkpt lat="42.47036" lon="2.08319">
        <ele>1593.1999511719</ele>
        <time>2023-07-18T07:01:28.000Z</time>
      </trkpt>
      <trkpt lat="42.47038" lon="2.08321">
        <ele>1593.1999511719</ele>
        <time>2023-07-18T07:01:30.000Z</time>
      </trkpt>
      <trkpt lat="42.47047" lon="2.08325">
        <ele>1592.4000244141</ele>
        <time>2023-07-18T07:01:36.000Z</time>
      </trkpt>
      <trkpt lat="42.47055" lon="2.08327">
        <ele>1592.1999511719</ele>
        <time>2023-07-18T07:01:41.000Z</time>
      </trkpt>
      <trkpt lat="42.47058" lon="2.08326">
        <ele>1591.8000488281</ele>
        <time>2023-07-18T07:01:44.000Z</time>
      </trkpt>
      <trkpt lat="42.47068" lon="2.08324">
        <ele>1591.1999511719</ele>
        <time>2023-07-18T07:01:52.000Z</time>
      </trkpt>
      <trkpt lat="42.4707" lon="2.08324">
        <ele>1591</ele>
        <time>2023-07-18T07:01:53.000Z</time>
      </trkpt>
      <trkpt lat="42.47079" lon="2.08326">
        <ele>1590.4000244141</ele>
        <time>2023-07-18T07:01:59.000Z</time>
      </trkpt>
      <trkpt lat="42.47086" lon="2.08327">
        <ele>1590</ele>
        <time>2023-07-18T07:02:04.000Z</time>
      </trkpt>
      <trkpt lat="42.47091" lon="2.08327">
        <ele>1589.5999755859</ele>
        <time>2023-07-18T07:02:07.000Z</time>
      </trkpt>
      <trkpt lat="42.47096" lon="2.08327">
        <ele>1589.1999511719</ele>
        <time>2023-07-18T07:02:14.000Z</time>
      </trkpt>
      <trkpt lat="42.47098" lon="2.08327">
        <ele>1589</ele>
        <time>2023-07-18T07:02:16.000Z</time>
      </trkpt>
      <trkpt lat="42.47105" lon="2.08328">
        <ele>1588.5999755859</ele>
        <time>2023-07-18T07:02:21.000Z</time>
      </trkpt>
      <trkpt lat="42.47116" lon="2.08328">
        <ele>1587.8000488281</ele>
        <time>2023-07-18T07:02:29.000Z</time>
      </trkpt>
      <trkpt lat="42.47118" lon="2.08328">
        <ele>1587.8000488281</ele>
        <time>2023-07-18T07:02:30.000Z</time>
      </trkpt>
      <trkpt lat="42.47129" lon="2.08326">
        <ele>1587.1999511719</ele>
        <time>2023-07-18T07:02:37.000Z</time>
      </trkpt>
      <trkpt lat="42.47131" lon="2.08325">
        <ele>1586.8000488281</ele>
        <time>2023-07-18T07:02:39.000Z</time>
      </trkpt>
      <trkpt lat="42.47137" lon="2.08325">
        <ele>1586.4000244141</ele>
        <time>2023-07-18T07:02:43.000Z</time>
      </trkpt>
      <trkpt lat="42.47145" lon="2.08321">
        <ele>1585.8000488281</ele>
        <time>2023-07-18T07:02:50.000Z</time>
      </trkpt>
      <trkpt lat="42.47146" lon="2.08321">
        <ele>1585.8000488281</ele>
        <time>2023-07-18T07:02:51.000Z</time>
      </trkpt>
      <trkpt lat="42.47154" lon="2.08315">
        <ele>1585.1999511719</ele>
        <time>2023-07-18T07:02:58.000Z</time>
      </trkpt>
      <trkpt lat="42.47161" lon="2.08306">
        <ele>1584.8000488281</ele>
        <time>2023-07-18T07:03:05.000Z</time>
      </trkpt>
      <trkpt lat="42.47163" lon="2.08303">
        <ele>1584.8000488281</ele>
        <time>2023-07-18T07:03:07.000Z</time>
      </trkpt>
      <trkpt lat="42.4717" lon="2.08296">
        <ele>1584.1999511719</ele>
        <time>2023-07-18T07:03:13.000Z</time>
      </trkpt>
      <trkpt lat="42.47177" lon="2.08289">
        <ele>1583.5999755859</ele>
        <time>2023-07-18T07:03:20.000Z</time>
      </trkpt>
      <trkpt lat="42.47178" lon="2.08288">
        <ele>1583.5999755859</ele>
        <time>2023-07-18T07:03:21.000Z</time>
      </trkpt>
      <trkpt lat="42.47186" lon="2.08279">
        <ele>1582.5999755859</ele>
        <time>2023-07-18T07:03:29.000Z</time>
      </trkpt>
      <trkpt lat="42.47187" lon="2.08278">
        <ele>1582.4000244141</ele>
        <time>2023-07-18T07:03:30.000Z</time>
      </trkpt>
      <trkpt lat="42.47195" lon="2.08272">
        <ele>1581.8000488281</ele>
        <time>2023-07-18T07:03:37.000Z</time>
      </trkpt>
      <trkpt lat="42.47202" lon="2.08267">
        <ele>1581.4000244141</ele>
        <time>2023-07-18T07:03:42.000Z</time>
      </trkpt>
      <trkpt lat="42.47209" lon="2.08259">
        <ele>1580.8000488281</ele>
        <time>2023-07-18T07:03:48.000Z</time>
      </trkpt>
      <trkpt lat="42.47212" lon="2.08257">
        <ele>1580.5999755859</ele>
        <time>2023-07-18T07:03:53.000Z</time>
      </trkpt>
      <trkpt lat="42.47221" lon="2.0825">
        <ele>1580.5999755859</ele>
        <time>2023-07-18T07:04:01.000Z</time>
      </trkpt>
      <trkpt lat="42.47223" lon="2.08248">
        <ele>1580.1999511719</ele>
        <time>2023-07-18T07:04:03.000Z</time>
      </trkpt>
      <trkpt lat="42.47229" lon="2.08243">
        <ele>1579.5999755859</ele>
        <time>2023-07-18T07:04:08.000Z</time>
      </trkpt>
      <trkpt lat="42.47234" lon="2.08238">
        <ele>1579.1999511719</ele>
        <time>2023-07-18T07:04:12.000Z</time>
      </trkpt>
      <trkpt lat="42.47238" lon="2.08235">
        <ele>1579</ele>
        <time>2023-07-18T07:04:15.000Z</time>
      </trkpt>
      <trkpt lat="42.47244" lon="2.08229">
        <ele>1578.5999755859</ele>
        <time>2023-07-18T07:04:22.000Z</time>
      </trkpt>
      <trkpt lat="42.4725" lon="2.08222">
        <ele>1578.1999511719</ele>
        <time>2023-07-18T07:04:28.000Z</time>
      </trkpt>
      <trkpt lat="42.47253" lon="2.08219">
        <ele>1578</ele>
        <time>2023-07-18T07:04:31.000Z</time>
      </trkpt>
      <trkpt lat="42.47257" lon="2.0822">
        <ele>1577.5999755859</ele>
        <time>2023-07-18T07:04:35.000Z</time>
      </trkpt>
      <trkpt lat="42.47258" lon="2.08221">
        <ele>1577.4000244141</ele>
        <time>2023-07-18T07:04:38.000Z</time>
      </trkpt>
      <trkpt lat="42.47259" lon="2.08219">
        <ele>1577.4000244141</ele>
        <time>2023-07-18T07:04:40.000Z</time>
      </trkpt>
      <trkpt lat="42.47261" lon="2.08212">
        <ele>1577.1999511719</ele>
        <time>2023-07-18T07:04:44.000Z</time>
      </trkpt>
      <trkpt lat="42.47262" lon="2.08211">
        <ele>1577.1999511719</ele>
        <time>2023-07-18T07:04:45.000Z</time>
      </trkpt>
      <trkpt lat="42.47269" lon="2.08201">
        <ele>1576.5999755859</ele>
        <time>2023-07-18T07:04:53.000Z</time>
      </trkpt>
      <trkpt lat="42.4727" lon="2.08198">
        <ele>1576</ele>
        <time>2023-07-18T07:04:56.000Z</time>
      </trkpt>
      <trkpt lat="42.47272" lon="2.08191">
        <ele>1575.5999755859</ele>
        <time>2023-07-18T07:04:59.000Z</time>
      </trkpt>
      <trkpt lat="42.47277" lon="2.08182">
        <ele>1575</ele>
        <time>2023-07-18T07:05:04.000Z</time>
      </trkpt>
      <trkpt lat="42.47278" lon="2.08178">
        <ele>1574.8000488281</ele>
        <time>2023-07-18T07:05:06.000Z</time>
      </trkpt>
      <trkpt lat="42.47281" lon="2.08168">
        <ele>1574</ele>
        <time>2023-07-18T07:05:12.000Z</time>
      </trkpt>
      <trkpt lat="42.47281" lon="2.08166">
        <ele>1573.8000488281</ele>
        <time>2023-07-18T07:05:13.000Z</time>
      </trkpt>
      <trkpt lat="42.47286" lon="2.08156">
        <ele>1573</ele>
        <time>2023-07-18T07:05:21.000Z</time>
      </trkpt>
      <trkpt lat="42.47288" lon="2.08154">
        <ele>1572.8000488281</ele>
        <time>2023-07-18T07:05:23.000Z</time>
      </trkpt>
      <trkpt lat="42.47291" lon="2.08148">
        <ele>1572.4000244141</ele>
        <time>2023-07-18T07:05:27.000Z</time>
      </trkpt>
      <trkpt lat="42.47297" lon="2.08138">
        <ele>1571.5999755859</ele>
        <time>2023-07-18T07:05:34.000Z</time>
      </trkpt>
      <trkpt lat="42.47299" lon="2.08137">
        <ele>1571.4000244141</ele>
        <time>2023-07-18T07:05:36.000Z</time>
      </trkpt>
      <trkpt lat="42.47308" lon="2.08124">
        <ele>1570.5999755859</ele>
        <time>2023-07-18T07:05:45.000Z</time>
      </trkpt>
      <trkpt lat="42.47315" lon="2.08115">
        <ele>1569.5999755859</ele>
        <time>2023-07-18T07:05:52.000Z</time>
      </trkpt>
      <trkpt lat="42.47323" lon="2.08105">
        <ele>1568.8000488281</ele>
        <time>2023-07-18T07:06:00.000Z</time>
      </trkpt>
      <trkpt lat="42.47327" lon="2.08099">
        <ele>1568.5999755859</ele>
        <time>2023-07-18T07:06:04.000Z</time>
      </trkpt>
      <trkpt lat="42.4733" lon="2.08094">
        <ele>1568.1999511719</ele>
        <time>2023-07-18T07:06:08.000Z</time>
      </trkpt>
      <trkpt lat="42.47336" lon="2.08092">
        <ele>1567.5999755859</ele>
        <time>2023-07-18T07:06:15.000Z</time>
      </trkpt>
      <trkpt lat="42.47337" lon="2.08092">
        <ele>1567.4000244141</ele>
        <time>2023-07-18T07:06:18.000Z</time>
      </trkpt>
      <trkpt lat="42.4734" lon="2.08087">
        <ele>1567.1999511719</ele>
        <time>2023-07-18T07:06:22.000Z</time>
      </trkpt>
      <trkpt lat="42.47347" lon="2.08079">
        <ele>1566.5999755859</ele>
        <time>2023-07-18T07:06:30.000Z</time>
      </trkpt>
      <trkpt lat="42.47349" lon="2.08078">
        <ele>1566.4000244141</ele>
        <time>2023-07-18T07:06:32.000Z</time>
      </trkpt>
      <trkpt lat="42.47352" lon="2.08076">
        <ele>1566.1999511719</ele>
        <time>2023-07-18T07:06:39.000Z</time>
      </trkpt>
      <trkpt lat="42.47352" lon="2.08076">
        <ele>1566.1999511719</ele>
        <time>2023-07-18T07:06:47.000Z</time>
      </trkpt>
      <trkpt lat="42.47352" lon="2.08077">
        <ele>1566.5999755859</ele>
        <time>2023-07-18T07:06:54.000Z</time>
      </trkpt>
      <trkpt lat="42.47354" lon="2.08074">
        <ele>1566</ele>
        <time>2023-07-18T07:07:01.000Z</time>
      </trkpt>
      <trkpt lat="42.47358" lon="2.08065">
        <ele>1565.4000244141</ele>
        <time>2023-07-18T07:07:07.000Z</time>
      </trkpt>
      <trkpt lat="42.47359" lon="2.08063">
        <ele>1565.4000244141</ele>
        <time>2023-07-18T07:07:08.000Z</time>
      </trkpt>
      <trkpt lat="42.47364" lon="2.08057">
        <ele>1565.1999511719</ele>
        <time>2023-07-18T07:07:13.000Z</time>
      </trkpt>
      <trkpt lat="42.47372" lon="2.08047">
        <ele>1564.1999511719</ele>
        <time>2023-07-18T07:07:22.000Z</time>
      </trkpt>
      <trkpt lat="42.47373" lon="2.08045">
        <ele>1564</ele>
        <time>2023-07-18T07:07:24.000Z</time>
      </trkpt>
      <trkpt lat="42.47378" lon="2.0804">
        <ele>1563.4000244141</ele>
        <time>2023-07-18T07:07:31.000Z</time>
      </trkpt>
      <trkpt lat="42.47379" lon="2.08039">
        <ele>1563.1999511719</ele>
        <time>2023-07-18T07:07:33.000Z</time>
      </trkpt>
      <trkpt lat="42.47385" lon="2.08034">
        <ele>1562.8000488281</ele>
        <time>2023-07-18T07:07:38.000Z</time>
      </trkpt>
      <trkpt lat="42.47391" lon="2.08026">
        <ele>1562</ele>
        <time>2023-07-18T07:07:44.000Z</time>
      </trkpt>
      <trkpt lat="42.47393" lon="2.08023">
        <ele>1562</ele>
        <time>2023-07-18T07:07:46.000Z</time>
      </trkpt>
      <trkpt lat="42.47396" lon="2.08014">
        <ele>1561</ele>
        <time>2023-07-18T07:07:52.000Z</time>
      </trkpt>
      <trkpt lat="42.47397" lon="2.08005">
        <ele>1560.5999755859</ele>
        <time>2023-07-18T07:07:55.000Z</time>
      </trkpt>
      <trkpt lat="42.47399" lon="2.07997">
        <ele>1559.8000488281</ele>
        <time>2023-07-18T07:08:00.000Z</time>
      </trkpt>
      <trkpt lat="42.474" lon="2.07995">
        <ele>1559.5999755859</ele>
        <time>2023-07-18T07:08:02.000Z</time>
      </trkpt>
      <trkpt lat="42.47402" lon="2.07986">
        <ele>1559.1999511719</ele>
        <time>2023-07-18T07:08:10.000Z</time>
      </trkpt>
      <trkpt lat="42.47399" lon="2.07974">
        <ele>1559.1999511719</ele>
        <time>2023-07-18T07:08:17.000Z</time>
      </trkpt>
      <trkpt lat="42.47393" lon="2.07964">
        <ele>1559.8000488281</ele>
        <time>2023-07-18T07:08:24.000Z</time>
      </trkpt>
      <trkpt lat="42.47389" lon="2.07957">
        <ele>1560</ele>
        <time>2023-07-18T07:08:30.000Z</time>
      </trkpt>
      <trkpt lat="42.47387" lon="2.07949">
        <ele>1560.1999511719</ele>
        <time>2023-07-18T07:08:35.000Z</time>
      </trkpt>
      <trkpt lat="42.47387" lon="2.07949">
        <ele>1560.1999511719</ele>
        <time>2023-07-18T07:08:36.000Z</time>
      </trkpt>
      <trkpt lat="42.47385" lon="2.07948">
        <ele>1560.1999511719</ele>
        <time>2023-07-18T07:08:38.000Z</time>
      </trkpt>
      <trkpt lat="42.47383" lon="2.07949">
        <ele>1560.1999511719</ele>
        <time>2023-07-18T07:08:42.000Z</time>
      </trkpt>
      <trkpt lat="42.47379" lon="2.07945">
        <ele>1560.5999755859</ele>
        <time>2023-07-18T07:08:48.000Z</time>
      </trkpt>
      <trkpt lat="42.4738" lon="2.07941">
        <ele>1561</ele>
        <time>2023-07-18T07:08:51.000Z</time>
      </trkpt>
      <trkpt lat="42.47379" lon="2.07933">
        <ele>1561.1999511719</ele>
        <time>2023-07-18T07:08:56.000Z</time>
      </trkpt>
      <trkpt lat="42.47374" lon="2.07923">
        <ele>1562.1999511719</ele>
        <time>2023-07-18T07:09:04.000Z</time>
      </trkpt>
      <trkpt lat="42.47374" lon="2.07922">
        <ele>1562.1999511719</ele>
        <time>2023-07-18T07:09:05.000Z</time>
      </trkpt>
      <trkpt lat="42.47378" lon="2.07922">
        <ele>1555.7</ele>
        <time>2023-07-18T08:15:20Z</time>
      </trkpt>
      <trkpt lat="42.47389" lon="2.07948">
        <ele>1554.7</ele>
        <time>2023-07-18T08:15:38Z</time>
      </trkpt>
      <trkpt lat="42.47403" lon="2.07977">
        <ele>1553.3</ele>
        <time>2023-07-18T08:15:56Z</time>
      </trkpt>
      <trkpt lat="42.47404" lon="2.07995">
        <ele>1554.6</ele>
        <time>2023-07-18T08:16:14Z</time>
      </trkpt>
      <trkpt lat="42.47397" lon="2.08024">
        <ele>1556.5</ele>
        <time>2023-07-18T08:16:32Z</time>
      </trkpt>
      <trkpt lat="42.47399" lon="2.08029">
        <ele>1556.7</ele>
        <time>2023-07-18T08:16:50Z</time>
      </trkpt>
      <trkpt lat="42.47408" lon="2.08034">
        <ele>1556.8</ele>
        <time>2023-07-18T08:17:08Z</time>
      </trkpt>
      <trkpt lat="42.47431" lon="2.08027">
        <ele>1556</ele>
        <time>2023-07-18T08:17:26Z</time>
      </trkpt>
      <trkpt lat="42.47444" lon="2.08028">
        <ele>1556</ele>
        <time>2023-07-18T08:17:44Z</time>
      </trkpt>
      <trkpt lat="42.47467" lon="2.08029">
        <ele>1555.5</ele>
        <time>2023-07-18T08:18:02Z</time>
      </trkpt>
      <trkpt lat="42.47491" lon="2.08027">
        <ele>1555.6</ele>
        <time>2023-07-18T08:18:20Z</time>
      </trkpt>
      <trkpt lat="42.47508" lon="2.08023">
        <ele>1555.9</ele>
        <time>2023-07-18T08:18:38Z</time>
      </trkpt>
      <trkpt lat="42.47527" lon="2.08007">
        <ele>1555.5</ele>
        <time>2023-07-18T08:18:56Z</time>
      </trkpt>
      <trkpt lat="42.47558" lon="2.07989">
        <ele>1555.1</ele>
        <time>2023-07-18T08:19:14Z</time>
      </trkpt>
      <trkpt lat="42.47605" lon="2.07954">
        <ele>1554.1</ele>
        <time>2023-07-18T08:19:32Z</time>
      </trkpt>
      <trkpt lat="42.47622" lon="2.07939">
        <ele>1554.3</ele>
        <time>2023-07-18T08:19:50Z</time>
      </trkpt>
      <trkpt lat="42.47633" lon="2.07927">
        <ele>1554</ele>
        <time>2023-07-18T08:20:08Z</time>
      </trkpt>
      <trkpt lat="42.47649" lon="2.07913">
        <ele>1553.1</ele>
        <time>2023-07-18T08:20:26Z</time>
      </trkpt>
      <trkpt lat="42.47691" lon="2.07901">
        <ele>1550.8</ele>
        <time>2023-07-18T08:20:44Z</time>
      </trkpt>
      <trkpt lat="42.47711" lon="2.07896">
        <ele>1551.4</ele>
        <time>2023-07-18T08:21:02Z</time>
      </trkpt>
      <trkpt lat="42.47734" lon="2.07884">
        <ele>1551.4</ele>
        <time>2023-07-18T08:21:20Z</time>
      </trkpt>
      <trkpt lat="42.47749" lon="2.07877">
        <ele>1551.5</ele>
        <time>2023-07-18T08:21:38Z</time>
      </trkpt>
      <trkpt lat="42.47767" lon="2.07877">
        <ele>1550</ele>
        <time>2023-07-18T08:21:56Z</time>
      </trkpt>
      <trkpt lat="42.47776" lon="2.07884">
        <ele>1551.6</ele>
        <time>2023-07-18T08:22:14Z</time>
      </trkpt>
      <trkpt lat="42.47787" lon="2.07899">
        <ele>1552.4</ele>
        <time>2023-07-18T08:22:32Z</time>
      </trkpt>
      <trkpt lat="42.47793" lon="2.07907">
        <ele>1551.5</ele>
        <time>2023-07-18T08:22:50Z</time>
      </trkpt>
      <trkpt lat="42.478" lon="2.07933">
        <ele>1551.6</ele>
        <time>2023-07-18T08:23:08Z</time>
      </trkpt>
      <trkpt lat="42.47803" lon="2.07942">
        <ele>1551.2</ele>
        <time>2023-07-18T08:23:26Z</time>
      </trkpt>
      <trkpt lat="42.47806" lon="2.07946">
        <ele>1550.4</ele>
        <time>2023-07-18T08:23:44Z</time>
      </trkpt>
      <trkpt lat="42.47819" lon="2.07948">
        <ele>1553.1</ele>
        <time>2023-07-18T08:24:02Z</time>
      </trkpt>
      <trkpt lat="42.47824" lon="2.07942">
        <ele>1553.8</ele>
        <time>2023-07-18T08:24:20Z</time>
      </trkpt>
      <trkpt lat="42.47832" lon="2.07916">
        <ele>1552.7</ele>
        <time>2023-07-18T08:24:38Z</time>
      </trkpt>
      <trkpt lat="42.47837" lon="2.07883">
        <ele>1553.4</ele>
        <time>2023-07-18T08:24:56Z</time>
      </trkpt>
      <trkpt lat="42.47837" lon="2.07865">
        <ele>1553.4</ele>
        <time>2023-07-18T08:25:14Z</time>
      </trkpt>
      <trkpt lat="42.47837" lon="2.07855">
        <ele>1553.4</ele>
        <time>2023-07-18T08:25:32Z</time>
      </trkpt>
      <trkpt lat="42.47838" lon="2.07839">
        <ele>1553.7</ele>
        <time>2023-07-18T08:25:50Z</time>
      </trkpt>
      <trkpt lat="42.47846" lon="2.07833">
        <ele>1554.7</ele>
        <time>2023-07-18T08:26:08Z</time>
      </trkpt>
      <trkpt lat="42.47865" lon="2.0782">
        <ele>1555</ele>
        <time>2023-07-18T08:26:26Z</time>
      </trkpt>
      <trkpt lat="42.47882" lon="2.0781">
        <ele>1554.9</ele>
        <time>2023-07-18T08:26:44Z</time>
      </trkpt>
      <trkpt lat="42.47896" lon="2.07802">
        <ele>1554.2</ele>
        <time>2023-07-18T08:27:02Z</time>
      </trkpt>
      <trkpt lat="42.47913" lon="2.07795">
        <ele>1553.3</ele>
        <time>2023-07-18T08:27:20Z</time>
      </trkpt>
      <trkpt lat="42.47926" lon="2.0779">
        <ele>1552.4</ele>
        <time>2023-07-18T08:27:38Z</time>
      </trkpt>
      <trkpt lat="42.47938" lon="2.07788">
        <ele>1551.6</ele>
        <time>2023-07-18T08:27:56Z</time>
      </trkpt>
      <trkpt lat="42.47951" lon="2.07784">
        <ele>1551.3</ele>
        <time>2023-07-18T08:28:14Z</time>
      </trkpt>
      <trkpt lat="42.47965" lon="2.07787">
        <ele>1552.6</ele>
        <time>2023-07-18T08:28:32Z</time>
      </trkpt>
      <trkpt lat="42.47973" lon="2.07786">
        <ele>1552.9</ele>
        <time>2023-07-18T08:28:50Z</time>
      </trkpt>
      <trkpt lat="42.47978" lon="2.07784">
        <ele>1552.8</ele>
        <time>2023-07-18T08:29:08Z</time>
      </trkpt>
      <trkpt lat="42.47983" lon="2.07786">
        <ele>1558.5999755859</ele>
        <time>2023-07-18T08:29:40.000Z</time>
      </trkpt>
      <trkpt lat="42.47988" lon="2.07794">
        <ele>1558.8000488281</ele>
        <time>2023-07-18T08:29:47.000Z</time>
      </trkpt>
      <trkpt lat="42.47994" lon="2.07804">
        <ele>1559.4000244141</ele>
        <time>2023-07-18T08:29:56.000Z</time>
      </trkpt>
      <trkpt lat="42.47996" lon="2.07806">
        <ele>1559.5999755859</ele>
        <time>2023-07-18T08:29:58.000Z</time>
      </trkpt>
      <trkpt lat="42.47998" lon="2.07811">
        <ele>1560</ele>
        <time>2023-07-18T08:30:03.000Z</time>
      </trkpt>
      <trkpt lat="42.48001" lon="2.07819">
        <ele>1560.4000244141</ele>
        <time>2023-07-18T08:30:11.000Z</time>
      </trkpt>
      <trkpt lat="42.48006" lon="2.07828">
        <ele>1560.5999755859</ele>
        <time>2023-07-18T08:30:18.000Z</time>
      </trkpt>
      <trkpt lat="42.48014" lon="2.07837">
        <ele>1560.5999755859</ele>
        <time>2023-07-18T08:30:26.000Z</time>
      </trkpt>
      <trkpt lat="42.48015" lon="2.07838">
        <ele>1560.8000488281</ele>
        <time>2023-07-18T08:30:27.000Z</time>
      </trkpt>
      <trkpt lat="42.48022" lon="2.07845">
        <ele>1561.1999511719</ele>
        <time>2023-07-18T08:30:34.000Z</time>
      </trkpt>
      <trkpt lat="42.48028" lon="2.07853">
        <ele>1561.4000244141</ele>
        <time>2023-07-18T08:30:43.000Z</time>
      </trkpt>
      <trkpt lat="42.48034" lon="2.07863">
        <ele>1561.4000244141</ele>
        <time>2023-07-18T08:30:52.000Z</time>
      </trkpt>
      <trkpt lat="42.48039" lon="2.07871">
        <ele>1561</ele>
        <time>2023-07-18T08:30:59.000Z</time>
      </trkpt>
      <trkpt lat="42.48047" lon="2.07881">
        <ele>1560.4000244141</ele>
        <time>2023-07-18T08:31:08.000Z</time>
      </trkpt>
      <trkpt lat="42.48055" lon="2.0789">
        <ele>1560.1999511719</ele>
        <time>2023-07-18T08:31:17.000Z</time>
      </trkpt>
      <trkpt lat="42.48063" lon="2.07896">
        <ele>1560</ele>
        <time>2023-07-18T08:31:26.000Z</time>
      </trkpt>
      <trkpt lat="42.48076" lon="2.079">
        <ele>1559.8000488281</ele>
        <time>2023-07-18T08:31:35.000Z</time>
      </trkpt>
      <trkpt lat="42.48082" lon="2.07903">
        <ele>1559.5999755859</ele>
        <time>2023-07-18T08:31:39.000Z</time>
      </trkpt>
      <trkpt lat="42.48088" lon="2.07906">
        <ele>1559.5999755859</ele>
        <time>2023-07-18T08:31:45.000Z</time>
      </trkpt>
      <trkpt lat="42.481" lon="2.07911">
        <ele>1559.1999511719</ele>
        <time>2023-07-18T08:31:55.000Z</time>
      </trkpt>
      <trkpt lat="42.48102" lon="2.07914">
        <ele>1558.4000244141</ele>
        <time>2023-07-18T08:31:59.000Z</time>
      </trkpt>
      <trkpt lat="42.48105" lon="2.07915">
        <ele>1558.1999511719</ele>
        <time>2023-07-18T08:32:02.000Z</time>
      </trkpt>
      <trkpt lat="42.48112" lon="2.07919">
        <ele>1557.4000244141</ele>
        <time>2023-07-18T08:32:08.000Z</time>
      </trkpt>
      <trkpt lat="42.48113" lon="2.07919">
        <ele>1557.4000244141</ele>
        <time>2023-07-18T08:32:09.000Z</time>
      </trkpt>
      <trkpt lat="42.48122" lon="2.0792">
        <ele>1557</ele>
        <time>2023-07-18T08:32:16.000Z</time>
      </trkpt>
      <trkpt lat="42.48129" lon="2.07921">
        <ele>1556.4000244141</ele>
        <time>2023-07-18T08:32:22.000Z</time>
      </trkpt>
      <trkpt lat="42.48134" lon="2.07921">
        <ele>1555.8000488281</ele>
        <time>2023-07-18T08:32:26.000Z</time>
      </trkpt>
      <trkpt lat="42.48141" lon="2.07924">
        <ele>1555.1999511719</ele>
        <time>2023-07-18T08:32:32.000Z</time>
      </trkpt>
      <trkpt lat="42.48143" lon="2.07926">
        <ele>1554.8000488281</ele>
        <time>2023-07-18T08:32:35.000Z</time>
      </trkpt>
      <trkpt lat="42.4815" lon="2.07928">
        <ele>1554</ele>
        <time>2023-07-18T08:32:41.000Z</time>
      </trkpt>
      <trkpt lat="42.48153" lon="2.0793">
        <ele>1553.5999755859</ele>
        <time>2023-07-18T08:32:44.000Z</time>
      </trkpt>
      <trkpt lat="42.48156" lon="2.07931">
        <ele>1553</ele>
        <time>2023-07-18T08:32:47.000Z</time>
      </trkpt>
      <trkpt lat="42.48163" lon="2.0793">
        <ele>1552.5999755859</ele>
        <time>2023-07-18T08:32:52.000Z</time>
      </trkpt>
      <trkpt lat="42.4817" lon="2.0793">
        <ele>1551.8000488281</ele>
        <time>2023-07-18T08:33:00.000Z</time>
      </trkpt>
      <trkpt lat="42.48179" lon="2.07929">
        <ele>1551.5999755859</ele>
        <time>2023-07-18T08:33:08.000Z</time>
      </trkpt>
      <trkpt lat="42.48188" lon="2.07923">
        <ele>1551.5999755859</ele>
        <time>2023-07-18T08:33:16.000Z</time>
      </trkpt>
      <trkpt lat="42.48191" lon="2.07917">
        <ele>1551.5999755859</ele>
        <time>2023-07-18T08:33:22.000Z</time>
      </trkpt>
      <trkpt lat="42.48195" lon="2.07904">
        <ele>1552</ele>
        <time>2023-07-18T08:33:31.000Z</time>
      </trkpt>
      <trkpt lat="42.482" lon="2.07894">
        <ele>1552.1999511719</ele>
        <time>2023-07-18T08:33:40.000Z</time>
      </trkpt>
      <trkpt lat="42.48208" lon="2.07886">
        <ele>1552.5999755859</ele>
        <time>2023-07-18T08:33:49.000Z</time>
      </trkpt>
      <trkpt lat="42.48215" lon="2.07883">
        <ele>1552.5999755859</ele>
        <time>2023-07-18T08:33:56.000Z</time>
      </trkpt>
      <trkpt lat="42.48223" lon="2.07876">
        <ele>1553</ele>
        <time>2023-07-18T08:34:04.000Z</time>
      </trkpt>
      <trkpt lat="42.48225" lon="2.07875">
        <ele>1553.1999511719</ele>
        <time>2023-07-18T08:34:06.000Z</time>
      </trkpt>
      <trkpt lat="42.48234" lon="2.07871">
        <ele>1553.4000244141</ele>
        <time>2023-07-18T08:34:15.000Z</time>
      </trkpt>
      <trkpt lat="42.4824" lon="2.07866">
        <ele>1553.4000244141</ele>
        <time>2023-07-18T08:34:22.000Z</time>
      </trkpt>
      <trkpt lat="42.48248" lon="2.07858">
        <ele>1553.5999755859</ele>
        <time>2023-07-18T08:34:31.000Z</time>
      </trkpt>
      <trkpt lat="42.48252" lon="2.07856">
        <ele>1554</ele>
        <time>2023-07-18T08:34:36.000Z</time>
      </trkpt>
      <trkpt lat="42.48257" lon="2.07852">
        <ele>1554.4000244141</ele>
        <time>2023-07-18T08:34:41.000Z</time>
      </trkpt>
      <trkpt lat="42.48266" lon="2.07849">
        <ele>1555</ele>
        <time>2023-07-18T08:34:49.000Z</time>
      </trkpt>
      <trkpt lat="42.48268" lon="2.07847">
        <ele>1555</ele>
        <time>2023-07-18T08:34:51.000Z</time>
      </trkpt>
      <trkpt lat="42.48274" lon="2.07842">
        <ele>1555.4000244141</ele>
        <time>2023-07-18T08:34:59.000Z</time>
      </trkpt>
      <trkpt lat="42.48283" lon="2.07836">
        <ele>1556</ele>
        <time>2023-07-18T08:35:08.000Z</time>
      </trkpt>
      <trkpt lat="42.48284" lon="2.07836">
        <ele>1556</ele>
        <time>2023-07-18T08:35:09.000Z</time>
      </trkpt>
      <trkpt lat="42.48288" lon="2.07831">
        <ele>1556.5999755859</ele>
        <time>2023-07-18T08:35:16.000Z</time>
      </trkpt>
      <trkpt lat="42.48293" lon="2.07824">
        <ele>1556.8000488281</ele>
        <time>2023-07-18T08:35:23.000Z</time>
      </trkpt>
      <trkpt lat="42.48299" lon="2.07816">
        <ele>1556.8000488281</ele>
        <time>2023-07-18T08:35:30.000Z</time>
      </trkpt>
      <trkpt lat="42.48302" lon="2.07806">
        <ele>1556.8000488281</ele>
        <time>2023-07-18T08:35:38.000Z</time>
      </trkpt>
      <trkpt lat="42.4831" lon="2.07794">
        <ele>1556.8000488281</ele>
        <time>2023-07-18T08:35:48.000Z</time>
      </trkpt>
      <trkpt lat="42.48311" lon="2.07792">
        <ele>1557</ele>
        <time>2023-07-18T08:35:50.000Z</time>
      </trkpt>
      <trkpt lat="42.48317" lon="2.0778">
        <ele>1557.1999511719</ele>
        <time>2023-07-18T08:35:58.000Z</time>
      </trkpt>
      <trkpt lat="42.48322" lon="2.07769">
        <ele>1557.1999511719</ele>
        <time>2023-07-18T08:36:05.000Z</time>
      </trkpt>
      <trkpt lat="42.48326" lon="2.07758">
        <ele>1556.8000488281</ele>
        <time>2023-07-18T08:36:15.000Z</time>
      </trkpt>
      <trkpt lat="42.48332" lon="2.0775">
        <ele>1557.1999511719</ele>
        <time>2023-07-18T08:36:23.000Z</time>
      </trkpt>
      <trkpt lat="42.48338" lon="2.0774">
        <ele>1557.4000244141</ele>
        <time>2023-07-18T08:36:32.000Z</time>
      </trkpt>
      <trkpt lat="42.48344" lon="2.07731">
        <ele>1558</ele>
        <time>2023-07-18T08:36:40.000Z</time>
      </trkpt>
      <trkpt lat="42.48349" lon="2.07723">
        <ele>1558.4000244141</ele>
        <time>2023-07-18T08:36:48.000Z</time>
      </trkpt>
      <trkpt lat="42.48353" lon="2.07715">
        <ele>1558.5999755859</ele>
        <time>2023-07-18T08:36:55.000Z</time>
      </trkpt>
      <trkpt lat="42.4836" lon="2.07704">
        <ele>1559.1999511719</ele>
        <time>2023-07-18T08:37:04.000Z</time>
      </trkpt>
      <trkpt lat="42.48366" lon="2.07696">
        <ele>1560.1999511719</ele>
        <time>2023-07-18T08:37:11.000Z</time>
      </trkpt>
      <trkpt lat="42.48367" lon="2.07694">
        <ele>1560.4000244141</ele>
        <time>2023-07-18T08:37:13.000Z</time>
      </trkpt>
      <trkpt lat="42.48374" lon="2.07687">
        <ele>1560.8000488281</ele>
        <time>2023-07-18T08:37:22.000Z</time>
      </trkpt>
      <trkpt lat="42.48381" lon="2.07679">
        <ele>1561</ele>
        <time>2023-07-18T08:37:30.000Z</time>
      </trkpt>
      <trkpt lat="42.48383" lon="2.07677">
        <ele>1561.1999511719</ele>
        <time>2023-07-18T08:37:32.000Z</time>
      </trkpt>
      <trkpt lat="42.48388" lon="2.07674">
        <ele>1561.5999755859</ele>
        <time>2023-07-18T08:37:38.000Z</time>
      </trkpt>
      <trkpt lat="42.48393" lon="2.07666">
        <ele>1562.1999511719</ele>
        <time>2023-07-18T08:37:46.000Z</time>
      </trkpt>
      <trkpt lat="42.48395" lon="2.07664">
        <ele>1562.8000488281</ele>
        <time>2023-07-18T08:37:48.000Z</time>
      </trkpt>
      <trkpt lat="42.48402" lon="2.07658">
        <ele>1563.1999511719</ele>
        <time>2023-07-18T08:37:55.000Z</time>
      </trkpt>
      <trkpt lat="42.48405" lon="2.07656">
        <ele>1563.5999755859</ele>
        <time>2023-07-18T08:37:58.000Z</time>
      </trkpt>
      <trkpt lat="42.4841" lon="2.07652">
        <ele>1564.4000244141</ele>
        <time>2023-07-18T08:38:04.000Z</time>
      </trkpt>
      <trkpt lat="42.48415" lon="2.07649">
        <ele>1564.4000244141</ele>
        <time>2023-07-18T08:38:09.000Z</time>
      </trkpt>
      <trkpt lat="42.48423" lon="2.07646">
        <ele>1565.1999511719</ele>
        <time>2023-07-18T08:38:18.000Z</time>
      </trkpt>
      <trkpt lat="42.48424" lon="2.07646">
        <ele>1565.4000244141</ele>
        <time>2023-07-18T08:38:19.000Z</time>
      </trkpt>
      <trkpt lat="42.48431" lon="2.07642">
        <ele>1566.1999511719</ele>
        <time>2023-07-18T08:38:26.000Z</time>
      </trkpt>
      <trkpt lat="42.48434" lon="2.07641">
        <ele>1566.5999755859</ele>
        <time>2023-07-18T08:38:29.000Z</time>
      </trkpt>
      <trkpt lat="42.48438" lon="2.07638">
        <ele>1567</ele>
        <time>2023-07-18T08:38:35.000Z</time>
      </trkpt>
      <trkpt lat="42.48444" lon="2.0763">
        <ele>1567</ele>
        <time>2023-07-18T08:38:43.000Z</time>
      </trkpt>
      <trkpt lat="42.4845" lon="2.07626">
        <ele>1566.5999755859</ele>
        <time>2023-07-18T08:38:51.000Z</time>
      </trkpt>
      <trkpt lat="42.48457" lon="2.07623">
        <ele>1566.1999511719</ele>
        <time>2023-07-18T08:38:59.000Z</time>
      </trkpt>
      <trkpt lat="42.48465" lon="2.07617">
        <ele>1565.8000488281</ele>
        <time>2023-07-18T08:39:07.000Z</time>
      </trkpt>
      <trkpt lat="42.48473" lon="2.07612">
        <ele>1565.8000488281</ele>
        <time>2023-07-18T08:39:15.000Z</time>
      </trkpt>
      <trkpt lat="42.48481" lon="2.07611">
        <ele>1566.1999511719</ele>
        <time>2023-07-18T08:39:23.000Z</time>
      </trkpt>
      <trkpt lat="42.48489" lon="2.07612">
        <ele>1566.4000244141</ele>
        <time>2023-07-18T08:39:31.000Z</time>
      </trkpt>
      <trkpt lat="42.48498" lon="2.07607">
        <ele>1566.8000488281</ele>
        <time>2023-07-18T08:39:39.000Z</time>
      </trkpt>
      <trkpt lat="42.48507" lon="2.07601">
        <ele>1566.4000244141</ele>
        <time>2023-07-18T08:39:47.000Z</time>
      </trkpt>
      <trkpt lat="42.48514" lon="2.07595">
        <ele>1566.1999511719</ele>
        <time>2023-07-18T08:39:54.000Z</time>
      </trkpt>
      <trkpt lat="42.48522" lon="2.0759">
        <ele>1565.8000488281</ele>
        <time>2023-07-18T08:40:01.000Z</time>
      </trkpt>
      <trkpt lat="42.4853" lon="2.07582">
        <ele>1565.8000488281</ele>
        <time>2023-07-18T08:40:11.000Z</time>
      </trkpt>
      <trkpt lat="42.48531" lon="2.07576">
        <ele>1565.4000244141</ele>
        <time>2023-07-18T08:40:17.000Z</time>
      </trkpt>
      <trkpt lat="42.48531" lon="2.07574">
        <ele>1565.4000244141</ele>
        <time>2023-07-18T08:40:19.000Z</time>
      </trkpt>
      <trkpt lat="42.4853" lon="2.07564">
        <ele>1564.4000244141</ele>
        <time>2023-07-18T08:40:26.000Z</time>
      </trkpt>
      <trkpt lat="42.48527" lon="2.07549">
        <ele>1563.4000244141</ele>
        <time>2023-07-18T08:40:36.000Z</time>
      </trkpt>
      <trkpt lat="42.48526" lon="2.07547">
        <ele>1563.1999511719</ele>
        <time>2023-07-18T08:40:37.000Z</time>
      </trkpt>
      <trkpt lat="42.48522" lon="2.07535">
        <ele>1562.5999755859</ele>
        <time>2023-07-18T08:40:45.000Z</time>
      </trkpt>
      <trkpt lat="42.48521" lon="2.07533">
        <ele>1562</ele>
        <time>2023-07-18T08:40:48.000Z</time>
      </trkpt>
      <trkpt lat="42.48519" lon="2.07527">
        <ele>1561.8000488281</ele>
        <time>2023-07-18T08:40:52.000Z</time>
      </trkpt>
      <trkpt lat="42.48515" lon="2.07521">
        <ele>1561</ele>
        <time>2023-07-18T08:40:59.000Z</time>
      </trkpt>
      <trkpt lat="42.48514" lon="2.07518">
        <ele>1561</ele>
        <time>2023-07-18T08:41:01.000Z</time>
      </trkpt>
      <trkpt lat="42.4851" lon="2.07505">
        <ele>1560</ele>
        <time>2023-07-18T08:41:09.000Z</time>
      </trkpt>
      <trkpt lat="42.48509" lon="2.07502">
        <ele>1560</ele>
        <time>2023-07-18T08:41:11.000Z</time>
      </trkpt>
      <trkpt lat="42.48504" lon="2.07492">
        <ele>1559.4000244141</ele>
        <time>2023-07-18T08:41:20.000Z</time>
      </trkpt>
      <trkpt lat="42.485" lon="2.07485">
        <ele>1559</ele>
        <time>2023-07-18T08:41:24.000Z</time>
      </trkpt>
      <trkpt lat="42.48497" lon="2.07477">
        <ele>1558.4000244141</ele>
        <time>2023-07-18T08:41:28.000Z</time>
      </trkpt>
      <trkpt lat="42.48493" lon="2.07466">
        <ele>1558</ele>
        <time>2023-07-18T08:41:37.000Z</time>
      </trkpt>
      <trkpt lat="42.48489" lon="2.07456">
        <ele>1557.8000488281</ele>
        <time>2023-07-18T08:41:44.000Z</time>
      </trkpt>
      <trkpt lat="42.48487" lon="2.07452">
        <ele>1557.5999755859</ele>
        <time>2023-07-18T08:41:47.000Z</time>
      </trkpt>
      <trkpt lat="42.4848" lon="2.07437">
        <ele>1557.4000244141</ele>
        <time>2023-07-18T08:41:57.000Z</time>
      </trkpt>
      <trkpt lat="42.48475" lon="2.07428">
        <ele>1556.8000488281</ele>
        <time>2023-07-18T08:42:03.000Z</time>
      </trkpt>
      <trkpt lat="42.48474" lon="2.07426">
        <ele>1556.8000488281</ele>
        <time>2023-07-18T08:42:05.000Z</time>
      </trkpt>
      <trkpt lat="42.48468" lon="2.07413">
        <ele>1556.5999755859</ele>
        <time>2023-07-18T08:42:14.000Z</time>
      </trkpt>
      <trkpt lat="42.48464" lon="2.07401">
        <ele>1556.4000244141</ele>
        <time>2023-07-18T08:42:23.000Z</time>
      </trkpt>
      <trkpt lat="42.48461" lon="2.07394">
        <ele>1555.8000488281</ele>
        <time>2023-07-18T08:42:29.000Z</time>
      </trkpt>
      <trkpt lat="42.48459" lon="2.07389">
        <ele>1555.8000488281</ele>
        <time>2023-07-18T08:42:32.000Z</time>
      </trkpt>
      <trkpt lat="42.48455" lon="2.07378">
        <ele>1555.4000244141</ele>
        <time>2023-07-18T08:42:43.000Z</time>
      </trkpt>
      <trkpt lat="42.48451" lon="2.0737">
        <ele>1554.8000488281</ele>
        <time>2023-07-18T08:42:49.000Z</time>
      </trkpt>
      <trkpt lat="42.48448" lon="2.07363">
        <ele>1554.1999511719</ele>
        <time>2023-07-18T08:42:53.000Z</time>
      </trkpt>
      <trkpt lat="42.48445" lon="2.07355">
        <ele>1553.8000488281</ele>
        <time>2023-07-18T08:42:59.000Z</time>
      </trkpt>
      <trkpt lat="42.48443" lon="2.07349">
        <ele>1553.1999511719</ele>
        <time>2023-07-18T08:43:03.000Z</time>
      </trkpt>
      <trkpt lat="42.48439" lon="2.07338">
        <ele>1552.5999755859</ele>
        <time>2023-07-18T08:43:10.000Z</time>
      </trkpt>
      <trkpt lat="42.48438" lon="2.07335">
        <ele>1552.4000244141</ele>
        <time>2023-07-18T08:43:12.000Z</time>
      </trkpt>
      <trkpt lat="42.48435" lon="2.07329">
        <ele>1551.5999755859</ele>
        <time>2023-07-18T08:43:17.000Z</time>
      </trkpt>
      <trkpt lat="42.48434" lon="2.07324">
        <ele>1551</ele>
        <time>2023-07-18T08:43:20.000Z</time>
      </trkpt>
      <trkpt lat="42.48429" lon="2.07313">
        <ele>1551</ele>
        <time>2023-07-18T08:43:29.000Z</time>
      </trkpt>
      <trkpt lat="42.48427" lon="2.07305">
        <ele>1550.5999755859</ele>
        <time>2023-07-18T08:43:36.000Z</time>
      </trkpt>
      <trkpt lat="42.48427" lon="2.07303">
        <ele>1550.5999755859</ele>
        <time>2023-07-18T08:43:38.000Z</time>
      </trkpt>
      <trkpt lat="42.4842" lon="2.0729">
        <ele>1549.8000488281</ele>
        <time>2023-07-18T08:43:47.000Z</time>
      </trkpt>
      <trkpt lat="42.48416" lon="2.07281">
        <ele>1549.5999755859</ele>
        <time>2023-07-18T08:43:55.000Z</time>
      </trkpt>
      <trkpt lat="42.48413" lon="2.07272">
        <ele>1549</ele>
        <time>2023-07-18T08:44:02.000Z</time>
      </trkpt>
      <trkpt lat="42.48408" lon="2.07261">
        <ele>1548.5999755859</ele>
        <time>2023-07-18T08:44:09.000Z</time>
      </trkpt>
      <trkpt lat="42.48402" lon="2.07251">
        <ele>1548</ele>
        <time>2023-07-18T08:44:17.000Z</time>
      </trkpt>
      <trkpt lat="42.48396" lon="2.07237">
        <ele>1547.5999755859</ele>
        <time>2023-07-18T08:44:26.000Z</time>
      </trkpt>
      <trkpt lat="42.48395" lon="2.07236">
        <ele>1547.4000244141</ele>
        <time>2023-07-18T08:44:27.000Z</time>
      </trkpt>
      <trkpt lat="42.48392" lon="2.07227">
        <ele>1547</ele>
        <time>2023-07-18T08:44:33.000Z</time>
      </trkpt>
      <trkpt lat="42.48388" lon="2.07217">
        <ele>1546.5999755859</ele>
        <time>2023-07-18T08:44:41.000Z</time>
      </trkpt>
      <trkpt lat="42.48385" lon="2.07211">
        <ele>1546.4000244141</ele>
        <time>2023-07-18T08:44:45.000Z</time>
      </trkpt>
      <trkpt lat="42.48383" lon="2.07205">
        <ele>1545.8000488281</ele>
        <time>2023-07-18T08:44:50.000Z</time>
      </trkpt>
      <trkpt lat="42.48382" lon="2.072">
        <ele>1545.4000244141</ele>
        <time>2023-07-18T08:44:53.000Z</time>
      </trkpt>
      <trkpt lat="42.48383" lon="2.07191">
        <ele>1544.5999755859</ele>
        <time>2023-07-18T08:44:59.000Z</time>
      </trkpt>
      <trkpt lat="42.48384" lon="2.07187">
        <ele>1544.1999511719</ele>
        <time>2023-07-18T08:45:02.000Z</time>
      </trkpt>
      <trkpt lat="42.48384" lon="2.07178">
        <ele>1543.5999755859</ele>
        <time>2023-07-18T08:45:07.000Z</time>
      </trkpt>
      <trkpt lat="42.48384" lon="2.07174">
        <ele>1543.1999511719</ele>
        <time>2023-07-18T08:45:10.000Z</time>
      </trkpt>
      <trkpt lat="42.48384" lon="2.07164">
        <ele>1542.8000488281</ele>
        <time>2023-07-18T08:45:15.000Z</time>
      </trkpt>
      <trkpt lat="42.48384" lon="2.07153">
        <ele>1542.4000244141</ele>
        <time>2023-07-18T08:45:22.000Z</time>
      </trkpt>
      <trkpt lat="42.48384" lon="2.07152">
        <ele>1542.1999511719</ele>
        <time>2023-07-18T08:45:23.000Z</time>
      </trkpt>
      <trkpt lat="42.48387" lon="2.07142">
        <ele>1541.8000488281</ele>
        <time>2023-07-18T08:45:30.000Z</time>
      </trkpt>
      <trkpt lat="42.48388" lon="2.07129">
        <ele>1541.5999755859</ele>
        <time>2023-07-18T08:45:38.000Z</time>
      </trkpt>
      <trkpt lat="42.48388" lon="2.07122">
        <ele>1541.1999511719</ele>
        <time>2023-07-18T08:45:43.000Z</time>
      </trkpt>
      <trkpt lat="42.48388" lon="2.07118">
        <ele>1541</ele>
        <time>2023-07-18T08:45:45.000Z</time>
      </trkpt>
      <trkpt lat="42.48392" lon="2.07104">
        <ele>1540.1999511719</ele>
        <time>2023-07-18T08:45:55.000Z</time>
      </trkpt>
      <trkpt lat="42.48393" lon="2.071">
        <ele>1540.1999511719</ele>
        <time>2023-07-18T08:45:57.000Z</time>
      </trkpt>
      <trkpt lat="42.48394" lon="2.07092">
        <ele>1539.5999755859</ele>
        <time>2023-07-18T08:46:03.000Z</time>
      </trkpt>
      <trkpt lat="42.48397" lon="2.07085">
        <ele>1539</ele>
        <time>2023-07-18T08:46:08.000Z</time>
      </trkpt>
      <trkpt lat="42.48399" lon="2.0708">
        <ele>1538.8000488281</ele>
        <time>2023-07-18T08:46:11.000Z</time>
      </trkpt>
      <trkpt lat="42.48402" lon="2.07068">
        <ele>1538</ele>
        <time>2023-07-18T08:46:19.000Z</time>
      </trkpt>
      <trkpt lat="42.48402" lon="2.07058">
        <ele>1537.5999755859</ele>
        <time>2023-07-18T08:46:26.000Z</time>
      </trkpt>
      <trkpt lat="42.48404" lon="2.07049">
        <ele>1537</ele>
        <time>2023-07-18T08:46:32.000Z</time>
      </trkpt>
      <trkpt lat="42.48404" lon="2.07046">
        <ele>1536.8000488281</ele>
        <time>2023-07-18T08:46:34.000Z</time>
      </trkpt>
      <trkpt lat="42.48407" lon="2.07035">
        <ele>1536</ele>
        <time>2023-07-18T08:46:42.000Z</time>
      </trkpt>
      <trkpt lat="42.48408" lon="2.07022">
        <ele>1535</ele>
        <time>2023-07-18T08:46:50.000Z</time>
      </trkpt>
      <trkpt lat="42.48409" lon="2.07021">
        <ele>1535</ele>
        <time>2023-07-18T08:46:51.000Z</time>
      </trkpt>
      <trkpt lat="42.48411" lon="2.07009">
        <ele>1534.5999755859</ele>
        <time>2023-07-18T08:46:58.000Z</time>
      </trkpt>
      <trkpt lat="42.48414" lon="2.07">
        <ele>1534</ele>
        <time>2023-07-18T08:47:04.000Z</time>
      </trkpt>
      <trkpt lat="42.48415" lon="2.06997">
        <ele>1533.5999755859</ele>
        <time>2023-07-18T08:47:06.000Z</time>
      </trkpt>
      <trkpt lat="42.48418" lon="2.06984">
        <ele>1533.1999511719</ele>
        <time>2023-07-18T08:47:15.000Z</time>
      </trkpt>
      <trkpt lat="42.4842" lon="2.06978">
        <ele>1532.8000488281</ele>
        <time>2023-07-18T08:47:19.000Z</time>
      </trkpt>
      <trkpt lat="42.48423" lon="2.0697">
        <ele>1532.5999755859</ele>
        <time>2023-07-18T08:47:23.000Z</time>
      </trkpt>
      <trkpt lat="42.48426" lon="2.06959">
        <ele>1532</ele>
        <time>2023-07-18T08:47:31.000Z</time>
      </trkpt>
      <trkpt lat="42.48427" lon="2.06951">
        <ele>1531.8000488281</ele>
        <time>2023-07-18T08:47:36.000Z</time>
      </trkpt>
      <trkpt lat="42.48427" lon="2.06948">
        <ele>1531.8000488281</ele>
        <time>2023-07-18T08:47:38.000Z</time>
      </trkpt>
      <trkpt lat="42.48431" lon="2.06936">
        <ele>1530.8000488281</ele>
        <time>2023-07-18T08:47:47.000Z</time>
      </trkpt>
      <trkpt lat="42.48436" lon="2.06924">
        <ele>1530.1999511719</ele>
        <time>2023-07-18T08:47:56.000Z</time>
      </trkpt>
      <trkpt lat="42.48437" lon="2.06922">
        <ele>1529.8000488281</ele>
        <time>2023-07-18T08:47:58.000Z</time>
      </trkpt>
      <trkpt lat="42.4844" lon="2.06915">
        <ele>1529.4000244141</ele>
        <time>2023-07-18T08:48:02.000Z</time>
      </trkpt>
      <trkpt lat="42.48444" lon="2.06909">
        <ele>1528.8000488281</ele>
        <time>2023-07-18T08:48:08.000Z</time>
      </trkpt>
      <trkpt lat="42.48448" lon="2.06906">
        <ele>1528.8000488281</ele>
        <time>2023-07-18T08:48:11.000Z</time>
      </trkpt>
      <trkpt lat="42.48452" lon="2.06901">
        <ele>1528.1999511719</ele>
        <time>2023-07-18T08:48:16.000Z</time>
      </trkpt>
      <trkpt lat="42.48458" lon="2.06898">
        <ele>1527.8000488281</ele>
        <time>2023-07-18T08:48:23.000Z</time>
      </trkpt>
      <trkpt lat="42.48461" lon="2.06898">
        <ele>1527.5999755859</ele>
        <time>2023-07-18T08:48:25.000Z</time>
      </trkpt>
      <trkpt lat="42.48469" lon="2.06896">
        <ele>1526.8000488281</ele>
        <time>2023-07-18T08:48:32.000Z</time>
      </trkpt>
      <trkpt lat="42.48474" lon="2.06893">
        <ele>1526.5999755859</ele>
        <time>2023-07-18T08:48:35.000Z</time>
      </trkpt>
      <trkpt lat="42.48476" lon="2.06889">
        <ele>1526.4000244141</ele>
        <time>2023-07-18T08:48:38.000Z</time>
      </trkpt>
      <trkpt lat="42.48476" lon="2.06881">
        <ele>1525.5999755859</ele>
        <time>2023-07-18T08:48:43.000Z</time>
      </trkpt>
      <trkpt lat="42.48476" lon="2.06878">
        <ele>1525</ele>
        <time>2023-07-18T08:48:45.000Z</time>
      </trkpt>
      <trkpt lat="42.48474" lon="2.06869">
        <ele>1524.4000244141</ele>
        <time>2023-07-18T08:48:51.000Z</time>
      </trkpt>
      <trkpt lat="42.48474" lon="2.06868">
        <ele>1524.4000244141</ele>
        <time>2023-07-18T08:48:52.000Z</time>
      </trkpt>
      <trkpt lat="42.48468" lon="2.06856">
        <ele>1523.4000244141</ele>
        <time>2023-07-18T08:49:01.000Z</time>
      </trkpt>
      <trkpt lat="42.4846" lon="2.06845">
        <ele>1522.4000244141</ele>
        <time>2023-07-18T08:49:10.000Z</time>
      </trkpt>
      <trkpt lat="42.48457" lon="2.06841">
        <ele>1522.1999511719</ele>
        <time>2023-07-18T08:49:13.000Z</time>
      </trkpt>
      <trkpt lat="42.48454" lon="2.06837">
        <ele>1521.8000488281</ele>
        <time>2023-07-18T08:49:17.000Z</time>
      </trkpt>
      <trkpt lat="42.4845" lon="2.0683">
        <ele>1521</ele>
        <time>2023-07-18T08:49:22.000Z</time>
      </trkpt>
      <trkpt lat="42.48448" lon="2.06827">
        <ele>1520.5999755859</ele>
        <time>2023-07-18T08:49:24.000Z</time>
      </trkpt>
      <trkpt lat="42.48446" lon="2.06821">
        <ele>1520</ele>
        <time>2023-07-18T08:49:29.000Z</time>
      </trkpt>
      <trkpt lat="42.48444" lon="2.06818">
        <ele>1520</ele>
        <time>2023-07-18T08:49:31.000Z</time>
      </trkpt>
      <trkpt lat="42.48442" lon="2.0681">
        <ele>1519</ele>
        <time>2023-07-18T08:49:38.000Z</time>
      </trkpt>
      <trkpt lat="42.4844" lon="2.068">
        <ele>1518</ele>
        <time>2023-07-18T08:49:45.000Z</time>
      </trkpt>
      <trkpt lat="42.48439" lon="2.06798">
        <ele>1517.8000488281</ele>
        <time>2023-07-18T08:49:46.000Z</time>
      </trkpt>
      <trkpt lat="42.48438" lon="2.06793">
        <ele>1517</ele>
        <time>2023-07-18T08:49:50.000Z</time>
      </trkpt>
      <trkpt lat="42.48435" lon="2.06785">
        <ele>1516.1999511719</ele>
        <time>2023-07-18T08:49:55.000Z</time>
      </trkpt>
      <trkpt lat="42.48434" lon="2.0678">
        <ele>1516</ele>
        <time>2023-07-18T08:49:58.000Z</time>
      </trkpt>
      <trkpt lat="42.48431" lon="2.06771">
        <ele>1515.4000244141</ele>
        <time>2023-07-18T08:50:04.000Z</time>
      </trkpt>
      <trkpt lat="42.48427" lon="2.06765">
        <ele>1515</ele>
        <time>2023-07-18T08:50:11.000Z</time>
      </trkpt>
      <trkpt lat="42.48426" lon="2.06765">
        <ele>1514.8000488281</ele>
        <time>2023-07-18T08:50:12.000Z</time>
      </trkpt>
      <trkpt lat="42.48425" lon="2.06764">
        <ele>1514.8000488281</ele>
        <time>2023-07-18T08:50:18.000Z</time>
      </trkpt>
      <trkpt lat="42.48429" lon="2.06766">
        <ele>1514.8000488281</ele>
        <time>2023-07-18T08:50:25.000Z</time>
      </trkpt>
      <trkpt lat="42.48436" lon="2.0677">
        <ele>1515.1999511719</ele>
        <time>2023-07-18T08:50:35.000Z</time>
      </trkpt>
      <trkpt lat="42.48444" lon="2.06775">
        <ele>1514.8000488281</ele>
        <time>2023-07-18T08:50:44.000Z</time>
      </trkpt>
      <trkpt lat="42.48457" lon="2.0678">
        <ele>1514.5999755859</ele>
        <time>2023-07-18T08:50:52.000Z</time>
      </trkpt>
      <trkpt lat="42.48465" lon="2.06783">
        <ele>1514.1999511719</ele>
        <time>2023-07-18T08:51:01.000Z</time>
      </trkpt>
      <trkpt lat="42.48474" lon="2.06787">
        <ele>1514.5999755859</ele>
        <time>2023-07-18T08:51:10.000Z</time>
      </trkpt>
      <trkpt lat="42.48484" lon="2.06788">
        <ele>1514.5999755859</ele>
        <time>2023-07-18T08:51:19.000Z</time>
      </trkpt>
      <trkpt lat="42.48491" lon="2.06792">
        <ele>1514.8000488281</ele>
        <time>2023-07-18T08:51:27.000Z</time>
      </trkpt>
      <trkpt lat="42.48501" lon="2.06799">
        <ele>1514.8000488281</ele>
        <time>2023-07-18T08:51:37.000Z</time>
      </trkpt>
      <trkpt lat="42.48504" lon="2.06802">
        <ele>1515</ele>
        <time>2023-07-18T08:51:44.000Z</time>
      </trkpt>
      <trkpt lat="42.4851" lon="2.06799">
        <ele>1515</ele>
        <time>2023-07-18T08:51:53.000Z</time>
      </trkpt>
      <trkpt lat="42.48518" lon="2.06802">
        <ele>1515.1999511719</ele>
        <time>2023-07-18T08:52:01.000Z</time>
      </trkpt>
      <trkpt lat="42.48527" lon="2.06805">
        <ele>1515.5999755859</ele>
        <time>2023-07-18T08:52:09.000Z</time>
      </trkpt>
      <trkpt lat="42.48536" lon="2.06808">
        <ele>1516</ele>
        <time>2023-07-18T08:52:17.000Z</time>
      </trkpt>
      <trkpt lat="42.48541" lon="2.06811">
        <ele>1516.8000488281</ele>
        <time>2023-07-18T08:52:24.000Z</time>
      </trkpt>
      <trkpt lat="42.48543" lon="2.06813">
        <ele>1517.1999511719</ele>
        <time>2023-07-18T08:52:28.000Z</time>
      </trkpt>
      <trkpt lat="42.48543" lon="2.06813">
        <ele>1517.4000244141</ele>
        <time>2023-07-18T08:52:32.000Z</time>
      </trkpt>
      <trkpt lat="42.4855" lon="2.06816">
        <ele>1517.4000244141</ele>
        <time>2023-07-18T08:52:39.000Z</time>
      </trkpt>
      <trkpt lat="42.48558" lon="2.06818">
        <ele>1517.8000488281</ele>
        <time>2023-07-18T08:52:47.000Z</time>
      </trkpt>
      <trkpt lat="42.48566" lon="2.06821">
        <ele>1518.1999511719</ele>
        <time>2023-07-18T08:52:53.000Z</time>
      </trkpt>
      <trkpt lat="42.4857" lon="2.06822">
        <ele>1518.4000244141</ele>
        <time>2023-07-18T08:52:57.000Z</time>
      </trkpt>
      <trkpt lat="42.48585" lon="2.06823">
        <ele>1519.1999511719</ele>
        <time>2023-07-18T08:53:08.000Z</time>
      </trkpt>
      <trkpt lat="42.48586" lon="2.06824">
        <ele>1519.1999511719</ele>
        <time>2023-07-18T08:53:09.000Z</time>
      </trkpt>
      <trkpt lat="42.48593" lon="2.06829">
        <ele>1519.5999755859</ele>
        <time>2023-07-18T08:53:16.000Z</time>
      </trkpt>
      <trkpt lat="42.48603" lon="2.06833">
        <ele>1519.8000488281</ele>
        <time>2023-07-18T08:53:24.000Z</time>
      </trkpt>
      <trkpt lat="42.48611" lon="2.06838">
        <ele>1519.8000488281</ele>
        <time>2023-07-18T08:53:34.000Z</time>
      </trkpt>
      <trkpt lat="42.48621" lon="2.06841">
        <ele>1519</ele>
        <time>2023-07-18T08:53:42.000Z</time>
      </trkpt>
      <trkpt lat="42.48631" lon="2.06846">
        <ele>1518.4000244141</ele>
        <time>2023-07-18T08:53:52.000Z</time>
      </trkpt>
      <trkpt lat="42.48632" lon="2.06847">
        <ele>1518.1999511719</ele>
        <time>2023-07-18T08:53:53.000Z</time>
      </trkpt>
      <trkpt lat="42.48642" lon="2.06853">
        <ele>1517.1999511719</ele>
        <time>2023-07-18T08:54:01.000Z</time>
      </trkpt>
      <trkpt lat="42.48643" lon="2.06853">
        <ele>1517</ele>
        <time>2023-07-18T08:54:02.000Z</time>
      </trkpt>
      <trkpt lat="42.48651" lon="2.06858">
        <ele>1516.4000244141</ele>
        <time>2023-07-18T08:54:09.000Z</time>
      </trkpt>
      <trkpt lat="42.48655" lon="2.06862">
        <ele>1516</ele>
        <time>2023-07-18T08:54:13.000Z</time>
      </trkpt>
      <trkpt lat="42.4866" lon="2.06864">
        <ele>1516</ele>
        <time>2023-07-18T08:54:18.000Z</time>
      </trkpt>
      <trkpt lat="42.48667" lon="2.06875">
        <ele>1515.4000244141</ele>
        <time>2023-07-18T08:54:27.000Z</time>
      </trkpt>
      <trkpt lat="42.48668" lon="2.06877">
        <ele>1515</ele>
        <time>2023-07-18T08:54:29.000Z</time>
      </trkpt>
      <trkpt lat="42.4867" lon="2.06884">
        <ele>1514.4000244141</ele>
        <time>2023-07-18T08:54:36.000Z</time>
      </trkpt>
      <trkpt lat="42.48673" lon="2.0689">
        <ele>1514</ele>
        <time>2023-07-18T08:54:42.000Z</time>
      </trkpt>
      <trkpt lat="42.48674" lon="2.06893">
        <ele>1514</ele>
        <time>2023-07-18T08:54:44.000Z</time>
      </trkpt>
      <trkpt lat="42.48685" lon="2.06904">
        <ele>1513.1999511719</ele>
        <time>2023-07-18T08:54:53.000Z</time>
      </trkpt>
      <trkpt lat="42.48689" lon="2.06905">
        <ele>1513</ele>
        <time>2023-07-18T08:54:55.000Z</time>
      </trkpt>
      <trkpt lat="42.48696" lon="2.06908">
        <ele>1512.8000488281</ele>
        <time>2023-07-18T08:55:00.000Z</time>
      </trkpt>
      <trkpt lat="42.48704" lon="2.06911">
        <ele>1512</ele>
        <time>2023-07-18T08:55:07.000Z</time>
      </trkpt>
      <trkpt lat="42.48713" lon="2.06915">
        <ele>1511</ele>
        <time>2023-07-18T08:55:15.000Z</time>
      </trkpt>
      <trkpt lat="42.4872" lon="2.06913">
        <ele>1510.5999755859</ele>
        <time>2023-07-18T08:55:23.000Z</time>
      </trkpt>
      <trkpt lat="42.48725" lon="2.06913">
        <ele>1510.4000244141</ele>
        <time>2023-07-18T08:55:32.000Z</time>
      </trkpt>
      <trkpt lat="42.4874" lon="2.06909">
        <ele>1509.8000488281</ele>
        <time>2023-07-18T08:55:46.000Z</time>
      </trkpt>
      <trkpt lat="42.48748" lon="2.06897">
        <ele>1509.1999511719</ele>
        <time>2023-07-18T08:55:53.000Z</time>
      </trkpt>
      <trkpt lat="42.48753" lon="2.06893">
        <ele>1508.8000488281</ele>
        <time>2023-07-18T08:55:58.000Z</time>
      </trkpt>
      <trkpt lat="42.48755" lon="2.06892">
        <ele>1508.5999755859</ele>
        <time>2023-07-18T08:56:01.000Z</time>
      </trkpt>
      <trkpt lat="42.48761" lon="2.06883">
        <ele>1508</ele>
        <time>2023-07-18T08:56:11.000Z</time>
      </trkpt>
      <trkpt lat="42.48762" lon="2.0688">
        <ele>1507.8000488281</ele>
        <time>2023-07-18T08:56:13.000Z</time>
      </trkpt>
      <trkpt lat="42.48765" lon="2.06874">
        <ele>1507.1999511719</ele>
        <time>2023-07-18T08:56:18.000Z</time>
      </trkpt>
      <trkpt lat="42.48772" lon="2.06865">
        <ele>1506.5999755859</ele>
        <time>2023-07-18T08:56:25.000Z</time>
      </trkpt>
      <trkpt lat="42.48773" lon="2.06865">
        <ele>1506.5999755859</ele>
        <time>2023-07-18T08:56:26.000Z</time>
      </trkpt>
      <trkpt lat="42.48783" lon="2.06864">
        <ele>1506.1999511719</ele>
        <time>2023-07-18T08:56:34.000Z</time>
      </trkpt>
      <trkpt lat="42.48789" lon="2.06864">
        <ele>1505.5999755859</ele>
        <time>2023-07-18T08:56:38.000Z</time>
      </trkpt>
      <trkpt lat="42.48791" lon="2.06864">
        <ele>1505.4000244141</ele>
        <time>2023-07-18T08:56:40.000Z</time>
      </trkpt>
      <trkpt lat="42.48795" lon="2.06866">
        <ele>1504.5999755859</ele>
        <time>2023-07-18T08:56:46.000Z</time>
      </trkpt>
      <trkpt lat="42.48798" lon="2.06867">
        <ele>1504.5999755859</ele>
        <time>2023-07-18T08:56:48.000Z</time>
      </trkpt>
      <trkpt lat="42.4881" lon="2.06872">
        <ele>1504.1999511719</ele>
        <time>2023-07-18T08:56:58.000Z</time>
      </trkpt>
      <trkpt lat="42.48815" lon="2.06875">
        <ele>1503.8000488281</ele>
        <time>2023-07-18T08:57:05.000Z</time>
      </trkpt>
      <trkpt lat="42.48818" lon="2.06879">
        <ele>1503.5999755859</ele>
        <time>2023-07-18T08:57:08.000Z</time>
      </trkpt>
      <trkpt lat="42.48821" lon="2.06885">
        <ele>1503</ele>
        <time>2023-07-18T08:57:13.000Z</time>
      </trkpt>
      <trkpt lat="42.48824" lon="2.06889">
        <ele>1502.4000244141</ele>
        <time>2023-07-18T08:57:17.000Z</time>
      </trkpt>
      <trkpt lat="42.48825" lon="2.06892">
        <ele>1502</ele>
        <time>2023-07-18T08:57:21.000Z</time>
      </trkpt>
      <trkpt lat="42.48828" lon="2.069">
        <ele>1501.5999755859</ele>
        <time>2023-07-18T08:57:28.000Z</time>
      </trkpt>
      <trkpt lat="42.48829" lon="2.06905">
        <ele>1501.4000244141</ele>
        <time>2023-07-18T08:57:31.000Z</time>
      </trkpt>
      <trkpt lat="42.48832" lon="2.06915">
        <ele>1501</ele>
        <time>2023-07-18T08:57:36.000Z</time>
      </trkpt>
      <trkpt lat="42.48832" lon="2.0692">
        <ele>1500.4000244141</ele>
        <time>2023-07-18T08:57:38.000Z</time>
      </trkpt>
      <trkpt lat="42.48833" lon="2.06932">
        <ele>1500</ele>
        <time>2023-07-18T08:57:44.000Z</time>
      </trkpt>
      <trkpt lat="42.48837" lon="2.06944">
        <ele>1499.4000244141</ele>
        <time>2023-07-18T08:57:54.000Z</time>
      </trkpt>
      <trkpt lat="42.48837" lon="2.06946">
        <ele>1499.1999511719</ele>
        <time>2023-07-18T08:57:55.000Z</time>
      </trkpt>
      <trkpt lat="42.48841" lon="2.06957">
        <ele>1499</ele>
        <time>2023-07-18T08:58:02.000Z</time>
      </trkpt>
      <trkpt lat="42.48844" lon="2.06965">
        <ele>1499</ele>
        <time>2023-07-18T08:58:09.000Z</time>
      </trkpt>
      <trkpt lat="42.48849" lon="2.06969">
        <ele>1498.4000244141</ele>
        <time>2023-07-18T08:58:16.000Z</time>
      </trkpt>
      <trkpt lat="42.48851" lon="2.0697">
        <ele>1498.1999511719</ele>
        <time>2023-07-18T08:58:17.000Z</time>
      </trkpt>
      <trkpt lat="42.4886" lon="2.06973">
        <ele>1497.8000488281</ele>
        <time>2023-07-18T08:58:22.000Z</time>
      </trkpt>
      <trkpt lat="42.48869" lon="2.06976">
        <ele>1497.5999755859</ele>
        <time>2023-07-18T08:58:30.000Z</time>
      </trkpt>
      <trkpt lat="42.48899" lon="2.06982">
        <ele>1494.5999755859</ele>
        <time>2023-07-18T08:58:54.000Z</time>
      </trkpt>
      <trkpt lat="42.489" lon="2.06982">
        <ele>1494.5999755859</ele>
        <time>2023-07-18T08:58:55.000Z</time>
      </trkpt>
      <trkpt lat="42.48908" lon="2.06991">
        <ele>1494.1999511719</ele>
        <time>2023-07-18T08:59:03.000Z</time>
      </trkpt>
      <trkpt lat="42.48909" lon="2.06993">
        <ele>1494</ele>
        <time>2023-07-18T08:59:05.000Z</time>
      </trkpt>
      <trkpt lat="42.48911" lon="2.06995">
        <ele>1493.8000488281</ele>
        <time>2023-07-18T08:59:09.000Z</time>
      </trkpt>
      <trkpt lat="42.4892" lon="2.06998">
        <ele>1493.5999755859</ele>
        <time>2023-07-18T08:59:16.000Z</time>
      </trkpt>
      <trkpt lat="42.48931" lon="2.06999">
        <ele>1493.1999511719</ele>
        <time>2023-07-18T08:59:23.000Z</time>
      </trkpt>
      <trkpt lat="42.48937" lon="2.07">
        <ele>1493.4000244141</ele>
        <time>2023-07-18T08:59:38.000Z</time>
      </trkpt>
      <trkpt lat="42.48945" lon="2.07003">
        <ele>1494.5999755859</ele>
        <time>2023-07-18T08:59:46.000Z</time>
      </trkpt>
      <trkpt lat="42.48948" lon="2.07005">
        <ele>1495</ele>
        <time>2023-07-18T08:59:49.000Z</time>
      </trkpt>
      <trkpt lat="42.48951" lon="2.07009">
        <ele>1496.1999511719</ele>
        <time>2023-07-18T08:59:54.000Z</time>
      </trkpt>
      <trkpt lat="42.48951" lon="2.07009">
        <ele>1496.4000244141</ele>
        <time>2023-07-18T08:59:55.000Z</time>
      </trkpt>
      <trkpt lat="42.48954" lon="2.07013">
        <ele>1497.1999511719</ele>
        <time>2023-07-18T08:59:59.000Z</time>
      </trkpt>
      <trkpt lat="42.48956" lon="2.07015">
        <ele>1497.5999755859</ele>
        <time>2023-07-18T09:00:02.000Z</time>
      </trkpt>
      <trkpt lat="42.4896" lon="2.07019">
        <ele>1498.1999511719</ele>
        <time>2023-07-18T09:00:07.000Z</time>
      </trkpt>
      <trkpt lat="42.48961" lon="2.0702">
        <ele>1498.4000244141</ele>
        <time>2023-07-18T09:00:08.000Z</time>
      </trkpt>
      <trkpt lat="42.48966" lon="2.07024">
        <ele>1499.4000244141</ele>
        <time>2023-07-18T09:00:14.000Z</time>
      </trkpt>
      <trkpt lat="42.48968" lon="2.07025">
        <ele>1499.5999755859</ele>
        <time>2023-07-18T09:00:16.000Z</time>
      </trkpt>
      <trkpt lat="42.48973" lon="2.07024">
        <ele>1500</ele>
        <time>2023-07-18T09:00:22.000Z</time>
      </trkpt>
      <trkpt lat="42.48978" lon="2.07022">
        <ele>1500</ele>
        <time>2023-07-18T09:00:26.000Z</time>
      </trkpt>
      <trkpt lat="42.48986" lon="2.0702">
        <ele>1500.4000244141</ele>
        <time>2023-07-18T09:00:34.000Z</time>
      </trkpt>
      <trkpt lat="42.48993" lon="2.07019">
        <ele>1500.5999755859</ele>
        <time>2023-07-18T09:00:41.000Z</time>
      </trkpt>
      <trkpt lat="42.48994" lon="2.0702">
        <ele>1500.5999755859</ele>
        <time>2023-07-18T09:00:43.000Z</time>
      </trkpt>
      <trkpt lat="42.48997" lon="2.07018">
        <ele>1500.8000488281</ele>
        <time>2023-07-18T09:00:50.000Z</time>
      </trkpt>
      <trkpt lat="42.48999" lon="2.07019">
        <ele>1500.5999755859</ele>
        <time>2023-07-18T09:00:58.000Z</time>
      </trkpt>
      <trkpt lat="42.49" lon="2.07016">
        <ele>1500.5999755859</ele>
        <time>2023-07-18T09:01:07.000Z</time>
      </trkpt>
      <trkpt lat="42.48998" lon="2.07016">
        <ele>1501</ele>
        <time>2023-07-18T09:01:15.000Z</time>
      </trkpt>
      <trkpt lat="42.49001" lon="2.07022">
        <ele>1501.1999511719</ele>
        <time>2023-07-18T09:01:23.000Z</time>
      </trkpt>
      <trkpt lat="42.49002" lon="2.07023">
        <ele>1501.5999755859</ele>
        <time>2023-07-18T09:01:25.000Z</time>
      </trkpt>
      <trkpt lat="42.49006" lon="2.07022">
        <ele>1502.8000488281</ele>
        <time>2023-07-18T09:01:31.000Z</time>
      </trkpt>
      <trkpt lat="42.49006" lon="2.07022">
        <ele>1503.1999511719</ele>
        <time>2023-07-18T09:01:32.000Z</time>
      </trkpt>
      <trkpt lat="42.49006" lon="2.07022">
        <ele>1504</ele>
        <time>2023-07-18T09:01:36.000Z</time>
      </trkpt>
      <trkpt lat="42.49006" lon="2.07026">
        <ele>1505.1999511719</ele>
        <time>2023-07-18T09:01:40.000Z</time>
      </trkpt>
      <trkpt lat="42.49007" lon="2.07028">
        <ele>1506.4000244141</ele>
        <time>2023-07-18T09:01:46.000Z</time>
      </trkpt>
      <trkpt lat="42.49008" lon="2.07029">
        <ele>1506.5999755859</ele>
        <time>2023-07-18T09:01:47.000Z</time>
      </trkpt>
      <trkpt lat="42.4901" lon="2.07033">
        <ele>1507.1999511719</ele>
        <time>2023-07-18T09:01:55.000Z</time>
      </trkpt>
      <trkpt lat="42.49012" lon="2.07033">
        <ele>1507.4000244141</ele>
        <time>2023-07-18T09:01:58.000Z</time>
      </trkpt>
      <trkpt lat="42.49014" lon="2.07033">
        <ele>1507.5999755859</ele>
        <time>2023-07-18T09:02:02.000Z</time>
      </trkpt>
      <trkpt lat="42.49021" lon="2.07035">
        <ele>1508.1999511719</ele>
        <time>2023-07-18T09:02:11.000Z</time>
      </trkpt>
      <trkpt lat="42.49023" lon="2.07035">
        <ele>1508.4000244141</ele>
        <time>2023-07-18T09:02:15.000Z</time>
      </trkpt>
      <trkpt lat="42.49027" lon="2.07035">
        <ele>1508.8000488281</ele>
        <time>2023-07-18T09:02:19.000Z</time>
      </trkpt>
      <trkpt lat="42.49031" lon="2.07036">
        <ele>1509.1999511719</ele>
        <time>2023-07-18T09:02:25.000Z</time>
      </trkpt>
      <trkpt lat="42.49034" lon="2.07036">
        <ele>1509.4000244141</ele>
        <time>2023-07-18T09:02:28.000Z</time>
      </trkpt>
      <trkpt lat="42.49038" lon="2.07035">
        <ele>1510</ele>
        <time>2023-07-18T09:02:32.000Z</time>
      </trkpt>
      <trkpt lat="42.49043" lon="2.07035">
        <ele>1510.4000244141</ele>
        <time>2023-07-18T09:02:37.000Z</time>
      </trkpt>
      <trkpt lat="42.49044" lon="2.07035">
        <ele>1510.8000488281</ele>
        <time>2023-07-18T09:02:39.000Z</time>
      </trkpt>
      <trkpt lat="42.4905" lon="2.07035">
        <ele>1511.4000244141</ele>
        <time>2023-07-18T09:02:47.000Z</time>
      </trkpt>
      <trkpt lat="42.49053" lon="2.07036">
        <ele>1511.5999755859</ele>
        <time>2023-07-18T09:02:50.000Z</time>
      </trkpt>
      <trkpt lat="42.49057" lon="2.07035">
        <ele>1512</ele>
        <time>2023-07-18T09:02:55.000Z</time>
      </trkpt>
      <trkpt lat="42.49068" lon="2.07033">
        <ele>1512.5999755859</ele>
        <time>2023-07-18T09:03:04.000Z</time>
      </trkpt>
      <trkpt lat="42.49074" lon="2.07038">
        <ele>1513</ele>
        <time>2023-07-18T09:03:12.000Z</time>
      </trkpt>
      <trkpt lat="42.49081" lon="2.0704">
        <ele>1513.5999755859</ele>
        <time>2023-07-18T09:03:20.000Z</time>
      </trkpt>
      <trkpt lat="42.49082" lon="2.0704">
        <ele>1513.8000488281</ele>
        <time>2023-07-18T09:03:21.000Z</time>
      </trkpt>
      <trkpt lat="42.49089" lon="2.07044">
        <ele>1514.8000488281</ele>
        <time>2023-07-18T09:03:29.000Z</time>
      </trkpt>
      <trkpt lat="42.49096" lon="2.07047">
        <ele>1515.1999511719</ele>
        <time>2023-07-18T09:03:35.000Z</time>
      </trkpt>
      <trkpt lat="42.49102" lon="2.07047">
        <ele>1515.8000488281</ele>
        <time>2023-07-18T09:03:40.000Z</time>
      </trkpt>
      <trkpt lat="42.49104" lon="2.07047">
        <ele>1516</ele>
        <time>2023-07-18T09:03:43.000Z</time>
      </trkpt>
      <trkpt lat="42.49108" lon="2.07049">
        <ele>1516.8000488281</ele>
        <time>2023-07-18T09:03:52.000Z</time>
      </trkpt>
      <trkpt lat="42.49107" lon="2.07049">
        <ele>1516.8000488281</ele>
        <time>2023-07-18T09:03:53.000Z</time>
      </trkpt>
      <trkpt lat="42.49109" lon="2.07048">
        <ele>1516.8000488281</ele>
        <time>2023-07-18T09:04:00.000Z</time>
      </trkpt>
      <trkpt lat="42.49106" lon="2.07048">
        <ele>1516.8000488281</ele>
        <time>2023-07-18T09:04:09.000Z</time>
      </trkpt>
      <trkpt lat="42.4911" lon="2.07047">
        <ele>1516.8000488281</ele>
        <time>2023-07-18T09:04:15.000Z</time>
      </trkpt>
      <trkpt lat="42.49114" lon="2.07047">
        <ele>1517.5999755859</ele>
        <time>2023-07-18T09:04:22.000Z</time>
      </trkpt>
      <trkpt lat="42.49114" lon="2.07047">
        <ele>1517.8000488281</ele>
        <time>2023-07-18T09:04:23.000Z</time>
      </trkpt>
      <trkpt lat="42.49113" lon="2.07046">
        <ele>1519</ele>
        <time>2023-07-18T09:04:27.000Z</time>
      </trkpt>
      <trkpt lat="42.49114" lon="2.07045">
        <ele>1519</ele>
        <time>2023-07-18T09:04:31.000Z</time>
      </trkpt>
      <trkpt lat="42.49109" lon="2.07041">
        <ele>1518.8000488281</ele>
        <time>2023-07-18T09:04:39.000Z</time>
      </trkpt>
      <trkpt lat="42.4911" lon="2.07047">
        <ele>1518.8000488281</ele>
        <time>2023-07-18T09:04:46.000Z</time>
      </trkpt>
      <trkpt lat="42.49116" lon="2.07054">
        <ele>1519.4000244141</ele>
        <time>2023-07-18T09:04:55.000Z</time>
      </trkpt>
      <trkpt lat="42.4912" lon="2.07056">
        <ele>1520</ele>
        <time>2023-07-18T09:05:00.000Z</time>
      </trkpt>
      <trkpt lat="42.49121" lon="2.07056">
        <ele>1520.1999511719</ele>
        <time>2023-07-18T09:05:02.000Z</time>
      </trkpt>
      <trkpt lat="42.49128" lon="2.07058">
        <ele>1520.8000488281</ele>
        <time>2023-07-18T09:05:09.000Z</time>
      </trkpt>
      <trkpt lat="42.4913" lon="2.07059">
        <ele>1521.1999511719</ele>
        <time>2023-07-18T09:05:11.000Z</time>
      </trkpt>
      <trkpt lat="42.49138" lon="2.07062">
        <ele>1521.8000488281</ele>
        <time>2023-07-18T09:05:17.000Z</time>
      </trkpt>
      <trkpt lat="42.49144" lon="2.07064">
        <ele>1522.1999511719</ele>
        <time>2023-07-18T09:05:22.000Z</time>
      </trkpt>
      <trkpt lat="42.49148" lon="2.07065">
        <ele>1522.8000488281</ele>
        <time>2023-07-18T09:05:26.000Z</time>
      </trkpt>
      <trkpt lat="42.49153" lon="2.07066">
        <ele>1523</ele>
        <time>2023-07-18T09:05:33.000Z</time>
      </trkpt>
      <trkpt lat="42.49154" lon="2.07066">
        <ele>1523.1999511719</ele>
        <time>2023-07-18T09:05:35.000Z</time>
      </trkpt>
      <trkpt lat="42.49159" lon="2.07066">
        <ele>1524</ele>
        <time>2023-07-18T09:05:40.000Z</time>
      </trkpt>
      <trkpt lat="42.49162" lon="2.07066">
        <ele>1524.4000244141</ele>
        <time>2023-07-18T09:05:44.000Z</time>
      </trkpt>
      <trkpt lat="42.49164" lon="2.07067">
        <ele>1524.5999755859</ele>
        <time>2023-07-18T09:05:47.000Z</time>
      </trkpt>
      <trkpt lat="42.49171" lon="2.07075">
        <ele>1525</ele>
        <time>2023-07-18T09:05:55.000Z</time>
      </trkpt>
      <trkpt lat="42.49172" lon="2.07077">
        <ele>1525.4000244141</ele>
        <time>2023-07-18T09:05:58.000Z</time>
      </trkpt>
      <trkpt lat="42.49174" lon="2.07082">
        <ele>1525.8000488281</ele>
        <time>2023-07-18T09:06:03.000Z</time>
      </trkpt>
      <trkpt lat="42.49177" lon="2.07084">
        <ele>1526.4000244141</ele>
        <time>2023-07-18T09:06:07.000Z</time>
      </trkpt>
      <trkpt lat="42.4918" lon="2.07089">
        <ele>1526.5999755859</ele>
        <time>2023-07-18T09:06:11.000Z</time>
      </trkpt>
      <trkpt lat="42.49185" lon="2.07096">
        <ele>1527.4000244141</ele>
        <time>2023-07-18T09:06:20.000Z</time>
      </trkpt>
      <trkpt lat="42.49185" lon="2.07097">
        <ele>1527.4000244141</ele>
        <time>2023-07-18T09:06:21.000Z</time>
      </trkpt>
      <trkpt lat="42.49191" lon="2.07101">
        <ele>1528</ele>
        <time>2023-07-18T09:06:29.000Z</time>
      </trkpt>
      <trkpt lat="42.49193" lon="2.07103">
        <ele>1528.5999755859</ele>
        <time>2023-07-18T09:06:33.000Z</time>
      </trkpt>
      <trkpt lat="42.49195" lon="2.07105">
        <ele>1529.1999511719</ele>
        <time>2023-07-18T09:06:37.000Z</time>
      </trkpt>
      <trkpt lat="42.49196" lon="2.07107">
        <ele>1529.5999755859</ele>
        <time>2023-07-18T09:06:40.000Z</time>
      </trkpt>
      <trkpt lat="42.49198" lon="2.0711">
        <ele>1530.5999755859</ele>
        <time>2023-07-18T09:06:45.000Z</time>
      </trkpt>
      <trkpt lat="42.49199" lon="2.07111">
        <ele>1530.8000488281</ele>
        <time>2023-07-18T09:06:46.000Z</time>
      </trkpt>
      <trkpt lat="42.49202" lon="2.07117">
        <ele>1531.8000488281</ele>
        <time>2023-07-18T09:06:55.000Z</time>
      </trkpt>
      <trkpt lat="42.49206" lon="2.07121">
        <ele>1532.4000244141</ele>
        <time>2023-07-18T09:07:02.000Z</time>
      </trkpt>
      <trkpt lat="42.49207" lon="2.07126">
        <ele>1532.8000488281</ele>
        <time>2023-07-18T09:07:06.000Z</time>
      </trkpt>
      <trkpt lat="42.49207" lon="2.07128">
        <ele>1533.1999511719</ele>
        <time>2023-07-18T09:07:09.000Z</time>
      </trkpt>
      <trkpt lat="42.49207" lon="2.07133">
        <ele>1534</ele>
        <time>2023-07-18T09:07:15.000Z</time>
      </trkpt>
      <trkpt lat="42.49208" lon="2.07136">
        <ele>1534</ele>
        <time>2023-07-18T09:07:17.000Z</time>
      </trkpt>
      <trkpt lat="42.49212" lon="2.07136">
        <ele>1534.5999755859</ele>
        <time>2023-07-18T09:07:26.000Z</time>
      </trkpt>
      <trkpt lat="42.49211" lon="2.07138">
        <ele>1534.5999755859</ele>
        <time>2023-07-18T09:07:36.000Z</time>
      </trkpt>
      <trkpt lat="42.49216" lon="2.07141">
        <ele>1535</ele>
        <time>2023-07-18T09:07:43.000Z</time>
      </trkpt>
      <trkpt lat="42.49217" lon="2.07142">
        <ele>1535.1999511719</ele>
        <time>2023-07-18T09:07:44.000Z</time>
      </trkpt>
      <trkpt lat="42.4922" lon="2.07145">
        <ele>1536.1999511719</ele>
        <time>2023-07-18T09:07:48.000Z</time>
      </trkpt>
      <trkpt lat="42.49225" lon="2.07147">
        <ele>1536.4000244141</ele>
        <time>2023-07-18T09:07:54.000Z</time>
      </trkpt>
      <trkpt lat="42.49231" lon="2.07148">
        <ele>1537.1999511719</ele>
        <time>2023-07-18T09:08:01.000Z</time>
      </trkpt>
      <trkpt lat="42.49233" lon="2.07148">
        <ele>1537.5999755859</ele>
        <time>2023-07-18T09:08:04.000Z</time>
      </trkpt>
      <trkpt lat="42.49237" lon="2.0715">
        <ele>1538.4000244141</ele>
        <time>2023-07-18T09:08:10.000Z</time>
      </trkpt>
      <trkpt lat="42.4924" lon="2.07152">
        <ele>1538.8000488281</ele>
        <time>2023-07-18T09:08:14.000Z</time>
      </trkpt>
      <trkpt lat="42.49243" lon="2.07156">
        <ele>1539.4000244141</ele>
        <time>2023-07-18T09:08:18.000Z</time>
      </trkpt>
      <trkpt lat="42.49244" lon="2.0716">
        <ele>1540</ele>
        <time>2023-07-18T09:08:22.000Z</time>
      </trkpt>
      <trkpt lat="42.49245" lon="2.07164">
        <ele>1540.5999755859</ele>
        <time>2023-07-18T09:08:26.000Z</time>
      </trkpt>
      <trkpt lat="42.49245" lon="2.07165">
        <ele>1540.8000488281</ele>
        <time>2023-07-18T09:08:28.000Z</time>
      </trkpt>
      <trkpt lat="42.49245" lon="2.07171">
        <ele>1541.5999755859</ele>
        <time>2023-07-18T09:08:34.000Z</time>
      </trkpt>
      <trkpt lat="42.49246" lon="2.07175">
        <ele>1542.4000244141</ele>
        <time>2023-07-18T09:08:38.000Z</time>
      </trkpt>
      <trkpt lat="42.49246" lon="2.07179">
        <ele>1542.8000488281</ele>
        <time>2023-07-18T09:08:41.000Z</time>
      </trkpt>
      <trkpt lat="42.49247" lon="2.07182">
        <ele>1543.1999511719</ele>
        <time>2023-07-18T09:08:45.000Z</time>
      </trkpt>
      <trkpt lat="42.49248" lon="2.07186">
        <ele>1543.8000488281</ele>
        <time>2023-07-18T09:08:49.000Z</time>
      </trkpt>
      <trkpt lat="42.49248" lon="2.07189">
        <ele>1544.5999755859</ele>
        <time>2023-07-18T09:08:53.000Z</time>
      </trkpt>
      <trkpt lat="42.49249" lon="2.07191">
        <ele>1545</ele>
        <time>2023-07-18T09:08:55.000Z</time>
      </trkpt>
      <trkpt lat="42.49249" lon="2.07196">
        <ele>1546</ele>
        <time>2023-07-18T09:09:01.000Z</time>
      </trkpt>
      <trkpt lat="42.4925" lon="2.07199">
        <ele>1546.1999511719</ele>
        <time>2023-07-18T09:09:04.000Z</time>
      </trkpt>
      <trkpt lat="42.49251" lon="2.07203">
        <ele>1546.5999755859</ele>
        <time>2023-07-18T09:09:08.000Z</time>
      </trkpt>
      <trkpt lat="42.49256" lon="2.07213">
        <ele>1547.4000244141</ele>
        <time>2023-07-18T09:09:16.000Z</time>
      </trkpt>
      <trkpt lat="42.4926" lon="2.07219">
        <ele>1547.8000488281</ele>
        <time>2023-07-18T09:09:24.000Z</time>
      </trkpt>
      <trkpt lat="42.49265" lon="2.07226">
        <ele>1548.1999511719</ele>
        <time>2023-07-18T09:09:31.000Z</time>
      </trkpt>
      <trkpt lat="42.49274" lon="2.07233">
        <ele>1548.4000244141</ele>
        <time>2023-07-18T09:09:40.000Z</time>
      </trkpt>
      <trkpt lat="42.49279" lon="2.07236">
        <ele>1548.4000244141</ele>
        <time>2023-07-18T09:09:46.000Z</time>
      </trkpt>
      <trkpt lat="42.49287" lon="2.0724">
        <ele>1549</ele>
        <time>2023-07-18T09:09:53.000Z</time>
      </trkpt>
      <trkpt lat="42.49292" lon="2.07241">
        <ele>1549.4000244141</ele>
        <time>2023-07-18T09:09:57.000Z</time>
      </trkpt>
      <trkpt lat="42.49292" lon="2.07242">
        <ele>1549.5999755859</ele>
        <time>2023-07-18T09:09:59.000Z</time>
      </trkpt>
      <trkpt lat="42.49299" lon="2.07246">
        <ele>1550.4000244141</ele>
        <time>2023-07-18T09:10:06.000Z</time>
      </trkpt>
      <trkpt lat="42.493" lon="2.07247">
        <ele>1550.4000244141</ele>
        <time>2023-07-18T09:10:07.000Z</time>
      </trkpt>
      <trkpt lat="42.49307" lon="2.07254">
        <ele>1551</ele>
        <time>2023-07-18T09:10:15.000Z</time>
      </trkpt>
      <trkpt lat="42.49316" lon="2.07258">
        <ele>1551.4000244141</ele>
        <time>2023-07-18T09:10:23.000Z</time>
      </trkpt>
      <trkpt lat="42.49321" lon="2.07261">
        <ele>1551.4000244141</ele>
        <time>2023-07-18T09:10:27.000Z</time>
      </trkpt>
      <trkpt lat="42.49324" lon="2.07263">
        <ele>1551.8000488281</ele>
        <time>2023-07-18T09:10:30.000Z</time>
      </trkpt>
      <trkpt lat="42.4933" lon="2.07269">
        <ele>1552.5999755859</ele>
        <time>2023-07-18T09:10:37.000Z</time>
      </trkpt>
      <trkpt lat="42.49331" lon="2.0727">
        <ele>1552.5999755859</ele>
        <time>2023-07-18T09:10:38.000Z</time>
      </trkpt>
      <trkpt lat="42.49337" lon="2.07277">
        <ele>1553.4000244141</ele>
        <time>2023-07-18T09:10:48.000Z</time>
      </trkpt>
      <trkpt lat="42.49338" lon="2.07277">
        <ele>1553.5999755859</ele>
        <time>2023-07-18T09:10:49.000Z</time>
      </trkpt>
      <trkpt lat="42.49346" lon="2.07284">
        <ele>1554.4000244141</ele>
        <time>2023-07-18T09:10:56.000Z</time>
      </trkpt>
      <trkpt lat="42.49347" lon="2.07284">
        <ele>1554.5999755859</ele>
        <time>2023-07-18T09:10:57.000Z</time>
      </trkpt>
      <trkpt lat="42.49355" lon="2.07287">
        <ele>1555.4000244141</ele>
        <time>2023-07-18T09:11:05.000Z</time>
      </trkpt>
      <trkpt lat="42.49357" lon="2.07287">
        <ele>1555.5999755859</ele>
        <time>2023-07-18T09:11:07.000Z</time>
      </trkpt>
      <trkpt lat="42.49366" lon="2.07286">
        <ele>1556.5999755859</ele>
        <time>2023-07-18T09:11:14.000Z</time>
      </trkpt>
      <trkpt lat="42.49366" lon="2.07285">
        <ele>1556.8000488281</ele>
        <time>2023-07-18T09:11:15.000Z</time>
      </trkpt>
      <trkpt lat="42.49376" lon="2.07288">
        <ele>1557.8000488281</ele>
        <time>2023-07-18T09:11:24.000Z</time>
      </trkpt>
      <trkpt lat="42.49384" lon="2.07288">
        <ele>1558.5999755859</ele>
        <time>2023-07-18T09:11:32.000Z</time>
      </trkpt>
      <trkpt lat="42.4939" lon="2.0729">
        <ele>1559</ele>
        <time>2023-07-18T09:11:38.000Z</time>
      </trkpt>
      <trkpt lat="42.49395" lon="2.07291">
        <ele>1559.4000244141</ele>
        <time>2023-07-18T09:11:42.000Z</time>
      </trkpt>
      <trkpt lat="42.49402" lon="2.07291">
        <ele>1560.1999511719</ele>
        <time>2023-07-18T09:11:49.000Z</time>
      </trkpt>
      <trkpt lat="42.49403" lon="2.07291">
        <ele>1560.4000244141</ele>
        <time>2023-07-18T09:11:50.000Z</time>
      </trkpt>
      <trkpt lat="42.49407" lon="2.07292">
        <ele>1561</ele>
        <time>2023-07-18T09:11:56.000Z</time>
      </trkpt>
      <trkpt lat="42.49408" lon="2.07292">
        <ele>1561.1999511719</ele>
        <time>2023-07-18T09:11:57.000Z</time>
      </trkpt>
      <trkpt lat="42.4942" lon="2.07296">
        <ele>1562</ele>
        <time>2023-07-18T09:12:08.000Z</time>
      </trkpt>
      <trkpt lat="42.49421" lon="2.07296">
        <ele>1562.1999511719</ele>
        <time>2023-07-18T09:12:09.000Z</time>
      </trkpt>
      <trkpt lat="42.49431" lon="2.07298">
        <ele>1562.8000488281</ele>
        <time>2023-07-18T09:12:16.000Z</time>
      </trkpt>
      <trkpt lat="42.49437" lon="2.07299">
        <ele>1563.1999511719</ele>
        <time>2023-07-18T09:12:21.000Z</time>
      </trkpt>
      <trkpt lat="42.4944" lon="2.07301">
        <ele>1563.8000488281</ele>
        <time>2023-07-18T09:12:25.000Z</time>
      </trkpt>
      <trkpt lat="42.49448" lon="2.07302">
        <ele>1564.1999511719</ele>
        <time>2023-07-18T09:12:33.000Z</time>
      </trkpt>
      <trkpt lat="42.49449" lon="2.07302">
        <ele>1564.1999511719</ele>
        <time>2023-07-18T09:12:34.000Z</time>
      </trkpt>
      <trkpt lat="42.49456" lon="2.07301">
        <ele>1565.4000244141</ele>
        <time>2023-07-18T09:12:41.000Z</time>
      </trkpt>
      <trkpt lat="42.49459" lon="2.073">
        <ele>1565.5999755859</ele>
        <time>2023-07-18T09:12:43.000Z</time>
      </trkpt>
      <trkpt lat="42.49468" lon="2.07301">
        <ele>1566.4000244141</ele>
        <time>2023-07-18T09:12:50.000Z</time>
      </trkpt>
      <trkpt lat="42.49469" lon="2.07301">
        <ele>1566.4000244141</ele>
        <time>2023-07-18T09:12:51.000Z</time>
      </trkpt>
      <trkpt lat="42.49474" lon="2.07301">
        <ele>1567</ele>
        <time>2023-07-18T09:12:59.000Z</time>
      </trkpt>
      <trkpt lat="42.49475" lon="2.07303">
        <ele>1566.8000488281</ele>
        <time>2023-07-18T09:13:06.000Z</time>
      </trkpt>
      <trkpt lat="42.49477" lon="2.073">
        <ele>1567</ele>
        <time>2023-07-18T09:13:13.000Z</time>
      </trkpt>
      <trkpt lat="42.49478" lon="2.07301">
        <ele>1567</ele>
        <time>2023-07-18T09:13:22.000Z</time>
      </trkpt>
      <trkpt lat="42.4948" lon="2.07301">
        <ele>1566.8000488281</ele>
        <time>2023-07-18T09:13:31.000Z</time>
      </trkpt>
      <trkpt lat="42.49479" lon="2.07302">
        <ele>1567.1999511719</ele>
        <time>2023-07-18T09:13:42.000Z</time>
      </trkpt>
      <trkpt lat="42.49476" lon="2.073">
        <ele>1567.4000244141</ele>
        <time>2023-07-18T09:13:50.000Z</time>
      </trkpt>
      <trkpt lat="42.49476" lon="2.07301">
        <ele>1567</ele>
        <time>2023-07-18T09:14:00.000Z</time>
      </trkpt>
      <trkpt lat="42.49477" lon="2.07301">
        <ele>1567</ele>
        <time>2023-07-18T09:14:09.000Z</time>
      </trkpt>
      <trkpt lat="42.4948" lon="2.073">
        <ele>1567.1999511719</ele>
        <time>2023-07-18T09:14:18.000Z</time>
      </trkpt>
      <trkpt lat="42.49486" lon="2.07295">
        <ele>1567.1999511719</ele>
        <time>2023-07-18T09:14:27.000Z</time>
      </trkpt>
      <trkpt lat="42.49488" lon="2.07292">
        <ele>1567.4000244141</ele>
        <time>2023-07-18T09:14:30.000Z</time>
      </trkpt>
      <trkpt lat="42.49491" lon="2.07289">
        <ele>1567.5999755859</ele>
        <time>2023-07-18T09:14:35.000Z</time>
      </trkpt>
      <trkpt lat="42.49498" lon="2.07287">
        <ele>1568.1999511719</ele>
        <time>2023-07-18T09:14:41.000Z</time>
      </trkpt>
      <trkpt lat="42.495" lon="2.07288">
        <ele>1568.4000244141</ele>
        <time>2023-07-18T09:14:44.000Z</time>
      </trkpt>
      <trkpt lat="42.49506" lon="2.0729">
        <ele>1568.8000488281</ele>
        <time>2023-07-18T09:14:52.000Z</time>
      </trkpt>
      <trkpt lat="42.49518" lon="2.07295">
        <ele>1569.4000244141</ele>
        <time>2023-07-18T09:15:02.000Z</time>
      </trkpt>
      <trkpt lat="42.49526" lon="2.07298">
        <ele>1569.4000244141</ele>
        <time>2023-07-18T09:15:09.000Z</time>
      </trkpt>
      <trkpt lat="42.4953" lon="2.07301">
        <ele>1569.5999755859</ele>
        <time>2023-07-18T09:15:13.000Z</time>
      </trkpt>
      <trkpt lat="42.49534" lon="2.07304">
        <ele>1569.8000488281</ele>
        <time>2023-07-18T09:15:17.000Z</time>
      </trkpt>
      <trkpt lat="42.49542" lon="2.07308">
        <ele>1570.1999511719</ele>
        <time>2023-07-18T09:15:24.000Z</time>
      </trkpt>
      <trkpt lat="42.49548" lon="2.07312">
        <ele>1570.5999755859</ele>
        <time>2023-07-18T09:15:30.000Z</time>
      </trkpt>
      <trkpt lat="42.49552" lon="2.07314">
        <ele>1570.8000488281</ele>
        <time>2023-07-18T09:15:33.000Z</time>
      </trkpt>
      <trkpt lat="42.49559" lon="2.07322">
        <ele>1571.1999511719</ele>
        <time>2023-07-18T09:15:41.000Z</time>
      </trkpt>
      <trkpt lat="42.49568" lon="2.07331">
        <ele>1571.5999755859</ele>
        <time>2023-07-18T09:15:49.000Z</time>
      </trkpt>
      <trkpt lat="42.49572" lon="2.07335">
        <ele>1571.5999755859</ele>
        <time>2023-07-18T09:15:53.000Z</time>
      </trkpt>
      <trkpt lat="42.49574" lon="2.07339">
        <ele>1571.8000488281</ele>
        <time>2023-07-18T09:15:57.000Z</time>
      </trkpt>
      <trkpt lat="42.49577" lon="2.07348">
        <ele>1572</ele>
        <time>2023-07-18T09:16:04.000Z</time>
      </trkpt>
      <trkpt lat="42.49581" lon="2.0736">
        <ele>1572.4000244141</ele>
        <time>2023-07-18T09:16:13.000Z</time>
      </trkpt>
      <trkpt lat="42.49582" lon="2.07364">
        <ele>1572.5999755859</ele>
        <time>2023-07-18T09:16:16.000Z</time>
      </trkpt>
      <trkpt lat="42.49583" lon="2.07372">
        <ele>1573.1999511719</ele>
        <time>2023-07-18T09:16:21.000Z</time>
      </trkpt>
      <trkpt lat="42.49584" lon="2.07374">
        <ele>1574</ele>
        <time>2023-07-18T09:16:23.000Z</time>
      </trkpt>
      <trkpt lat="42.49589" lon="2.07381">
        <ele>1574.4000244141</ele>
        <time>2023-07-18T09:16:29.000Z</time>
      </trkpt>
      <trkpt lat="42.49597" lon="2.07387">
        <ele>1574.5999755859</ele>
        <time>2023-07-18T09:16:37.000Z</time>
      </trkpt>
      <trkpt lat="42.49604" lon="2.07389">
        <ele>1575</ele>
        <time>2023-07-18T09:16:44.000Z</time>
      </trkpt>
      <trkpt lat="42.49607" lon="2.07391">
        <ele>1575.1999511719</ele>
        <time>2023-07-18T09:16:47.000Z</time>
      </trkpt>
      <trkpt lat="42.49617" lon="2.07395">
        <ele>1575.5999755859</ele>
        <time>2023-07-18T09:16:56.000Z</time>
      </trkpt>
      <trkpt lat="42.49625" lon="2.07398">
        <ele>1576</ele>
        <time>2023-07-18T09:17:02.000Z</time>
      </trkpt>
      <trkpt lat="42.49626" lon="2.07398">
        <ele>1576</ele>
        <time>2023-07-18T09:17:03.000Z</time>
      </trkpt>
      <trkpt lat="42.49636" lon="2.07403">
        <ele>1576.5999755859</ele>
        <time>2023-07-18T09:17:12.000Z</time>
      </trkpt>
      <trkpt lat="42.49642" lon="2.07406">
        <ele>1577.1999511719</ele>
        <time>2023-07-18T09:17:18.000Z</time>
      </trkpt>
      <trkpt lat="42.49643" lon="2.07406">
        <ele>1577.1999511719</ele>
        <time>2023-07-18T09:17:19.000Z</time>
      </trkpt>
      <trkpt lat="42.49649" lon="2.07408">
        <ele>1578</ele>
        <time>2023-07-18T09:17:26.000Z</time>
      </trkpt>
      <trkpt lat="42.4965" lon="2.07408">
        <ele>1578.1999511719</ele>
        <time>2023-07-18T09:17:27.000Z</time>
      </trkpt>
      <trkpt lat="42.4966" lon="2.07411">
        <ele>1578.5999755859</ele>
        <time>2023-07-18T09:17:37.000Z</time>
      </trkpt>
      <trkpt lat="42.49664" lon="2.07412">
        <ele>1579.1999511719</ele>
        <time>2023-07-18T09:17:41.000Z</time>
      </trkpt>
      <trkpt lat="42.49671" lon="2.07414">
        <ele>1579.5999755859</ele>
        <time>2023-07-18T09:17:46.000Z</time>
      </trkpt>
      <trkpt lat="42.49676" lon="2.07415">
        <ele>1580.1999511719</ele>
        <time>2023-07-18T09:17:50.000Z</time>
      </trkpt>
      <trkpt lat="42.49683" lon="2.07417">
        <ele>1581</ele>
        <time>2023-07-18T09:17:55.000Z</time>
      </trkpt>
      <trkpt lat="42.49691" lon="2.07419">
        <ele>1581.1999511719</ele>
        <time>2023-07-18T09:18:04.000Z</time>
      </trkpt>
      <trkpt lat="42.49693" lon="2.07419">
        <ele>1581.4000244141</ele>
        <time>2023-07-18T09:18:05.000Z</time>
      </trkpt>
      <trkpt lat="42.49697" lon="2.07421">
        <ele>1581.8000488281</ele>
        <time>2023-07-18T09:18:11.000Z</time>
      </trkpt>
      <trkpt lat="42.49696" lon="2.07422">
        <ele>1582</ele>
        <time>2023-07-18T09:18:15.000Z</time>
      </trkpt>
      <trkpt lat="42.49696" lon="2.07425">
        <ele>1581.5999755859</ele>
        <time>2023-07-18T09:18:23.000Z</time>
      </trkpt>
      <trkpt lat="42.49698" lon="2.07425">
        <ele>1582</ele>
        <time>2023-07-18T09:18:32.000Z</time>
      </trkpt>
      <trkpt lat="42.49695" lon="2.07423">
        <ele>1582.1999511719</ele>
        <time>2023-07-18T09:18:41.000Z</time>
      </trkpt>
      <trkpt lat="42.49699" lon="2.07422">
        <ele>1582</ele>
        <time>2023-07-18T09:18:49.000Z</time>
      </trkpt>
      <trkpt lat="42.49708" lon="2.07424">
        <ele>1582.1999511719</ele>
        <time>2023-07-18T09:18:57.000Z</time>
      </trkpt>
      <trkpt lat="42.49713" lon="2.07425">
        <ele>1582.5999755859</ele>
        <time>2023-07-18T09:19:01.000Z</time>
      </trkpt>
      <trkpt lat="42.4972" lon="2.07426">
        <ele>1583.1999511719</ele>
        <time>2023-07-18T09:19:07.000Z</time>
      </trkpt>
      <trkpt lat="42.49724" lon="2.07427">
        <ele>1583.5999755859</ele>
        <time>2023-07-18T09:19:11.000Z</time>
      </trkpt>
      <trkpt lat="42.49729" lon="2.07427">
        <ele>1584</ele>
        <time>2023-07-18T09:19:16.000Z</time>
      </trkpt>
      <trkpt lat="42.49736" lon="2.07428">
        <ele>1584.4000244141</ele>
        <time>2023-07-18T09:19:23.000Z</time>
      </trkpt>
      <trkpt lat="42.49739" lon="2.07428">
        <ele>1584.5999755859</ele>
        <time>2023-07-18T09:19:26.000Z</time>
      </trkpt>
      <trkpt lat="42.49743" lon="2.07428">
        <ele>1584.8000488281</ele>
        <time>2023-07-18T09:19:30.000Z</time>
      </trkpt>
      <trkpt lat="42.49754" lon="2.07424">
        <ele>1585.1999511719</ele>
        <time>2023-07-18T09:19:38.000Z</time>
      </trkpt>
      <trkpt lat="42.49757" lon="2.07422">
        <ele>1585.5999755859</ele>
        <time>2023-07-18T09:19:43.000Z</time>
      </trkpt>
      <trkpt lat="42.49759" lon="2.0742">
        <ele>1586</ele>
        <time>2023-07-18T09:19:46.000Z</time>
      </trkpt>
      <trkpt lat="42.4977" lon="2.07414">
        <ele>1586.4000244141</ele>
        <time>2023-07-18T09:19:55.000Z</time>
      </trkpt>
      <trkpt lat="42.49772" lon="2.07412">
        <ele>1586.8000488281</ele>
        <time>2023-07-18T09:19:57.000Z</time>
      </trkpt>
      <trkpt lat="42.49777" lon="2.07407">
        <ele>1587.4000244141</ele>
        <time>2023-07-18T09:20:02.000Z</time>
      </trkpt>
      <trkpt lat="42.49784" lon="2.07402">
        <ele>1587.8000488281</ele>
        <time>2023-07-18T09:20:09.000Z</time>
      </trkpt>
      <trkpt lat="42.49785" lon="2.07402">
        <ele>1588.1999511719</ele>
        <time>2023-07-18T09:20:10.000Z</time>
      </trkpt>
      <trkpt lat="42.49794" lon="2.07395">
        <ele>1588.5999755859</ele>
        <time>2023-07-18T09:20:19.000Z</time>
      </trkpt>
      <trkpt lat="42.498" lon="2.07392">
        <ele>1589</ele>
        <time>2023-07-18T09:20:25.000Z</time>
      </trkpt>
      <trkpt lat="42.498" lon="2.07391">
        <ele>1589.1999511719</ele>
        <time>2023-07-18T09:20:27.000Z</time>
      </trkpt>
      <trkpt lat="42.49811" lon="2.07385">
        <ele>1589.4000244141</ele>
        <time>2023-07-18T09:20:36.000Z</time>
      </trkpt>
      <trkpt lat="42.49822" lon="2.07381">
        <ele>1589.8000488281</ele>
        <time>2023-07-18T09:20:43.000Z</time>
      </trkpt>
      <trkpt lat="42.49825" lon="2.0738">
        <ele>1590</ele>
        <time>2023-07-18T09:20:45.000Z</time>
      </trkpt>
      <trkpt lat="42.49832" lon="2.07376">
        <ele>1590.4000244141</ele>
        <time>2023-07-18T09:20:53.000Z</time>
      </trkpt>
      <trkpt lat="42.4984" lon="2.07374">
        <ele>1591</ele>
        <time>2023-07-18T09:20:59.000Z</time>
      </trkpt>
      <trkpt lat="42.49844" lon="2.07373">
        <ele>1591.1999511719</ele>
        <time>2023-07-18T09:21:02.000Z</time>
      </trkpt>
      <trkpt lat="42.49853" lon="2.0737">
        <ele>1591.5999755859</ele>
        <time>2023-07-18T09:21:12.000Z</time>
      </trkpt>
      <trkpt lat="42.49858" lon="2.07367">
        <ele>1592.1999511719</ele>
        <time>2023-07-18T09:21:17.000Z</time>
      </trkpt>
      <trkpt lat="42.4986" lon="2.07366">
        <ele>1592.4000244141</ele>
        <time>2023-07-18T09:21:21.000Z</time>
      </trkpt>
      <trkpt lat="42.49868" lon="2.07371">
        <ele>1593</ele>
        <time>2023-07-18T09:21:29.000Z</time>
      </trkpt>
      <trkpt lat="42.4987" lon="2.07373">
        <ele>1593.1999511719</ele>
        <time>2023-07-18T09:21:31.000Z</time>
      </trkpt>
      <trkpt lat="42.49875" lon="2.07379">
        <ele>1593.5999755859</ele>
        <time>2023-07-18T09:21:36.000Z</time>
      </trkpt>
      <trkpt lat="42.49881" lon="2.0739">
        <ele>1594</ele>
        <time>2023-07-18T09:21:44.000Z</time>
      </trkpt>
      <trkpt lat="42.49885" lon="2.07398">
        <ele>1594.4000244141</ele>
        <time>2023-07-18T09:21:50.000Z</time>
      </trkpt>
      <trkpt lat="42.49886" lon="2.07401">
        <ele>1594.5999755859</ele>
        <time>2023-07-18T09:21:52.000Z</time>
      </trkpt>
      <trkpt lat="42.49891" lon="2.07416">
        <ele>1595.1999511719</ele>
        <time>2023-07-18T09:22:01.000Z</time>
      </trkpt>
      <trkpt lat="42.49891" lon="2.07419">
        <ele>1595.4000244141</ele>
        <time>2023-07-18T09:22:03.000Z</time>
      </trkpt>
      <trkpt lat="42.49894" lon="2.07432">
        <ele>1595.5999755859</ele>
        <time>2023-07-18T09:22:11.000Z</time>
      </trkpt>
      <trkpt lat="42.49901" lon="2.07443">
        <ele>1596.1999511719</ele>
        <time>2023-07-18T09:22:19.000Z</time>
      </trkpt>
      <trkpt lat="42.49901" lon="2.07444">
        <ele>1596.4000244141</ele>
        <time>2023-07-18T09:22:20.000Z</time>
      </trkpt>
      <trkpt lat="42.49906" lon="2.07456">
        <ele>1597.1999511719</ele>
        <time>2023-07-18T09:22:29.000Z</time>
      </trkpt>
      <trkpt lat="42.49908" lon="2.07461">
        <ele>1597.5999755859</ele>
        <time>2023-07-18T09:22:32.000Z</time>
      </trkpt>
      <trkpt lat="42.4991" lon="2.07469">
        <ele>1598.1999511719</ele>
        <time>2023-07-18T09:22:37.000Z</time>
      </trkpt>
      <trkpt lat="42.49912" lon="2.07475">
        <ele>1598.5999755859</ele>
        <time>2023-07-18T09:22:41.000Z</time>
      </trkpt>
      <trkpt lat="42.49915" lon="2.07479">
        <ele>1599</ele>
        <time>2023-07-18T09:22:45.000Z</time>
      </trkpt>
      <trkpt lat="42.49917" lon="2.07484">
        <ele>1599.8000488281</ele>
        <time>2023-07-18T09:22:49.000Z</time>
      </trkpt>
      <trkpt lat="42.49919" lon="2.07488">
        <ele>1600.4000244141</ele>
        <time>2023-07-18T09:22:53.000Z</time>
      </trkpt>
      <trkpt lat="42.49922" lon="2.07495">
        <ele>1601</ele>
        <time>2023-07-18T09:22:58.000Z</time>
      </trkpt>
      <trkpt lat="42.49924" lon="2.075">
        <ele>1601.5999755859</ele>
        <time>2023-07-18T09:23:02.000Z</time>
      </trkpt>
      <trkpt lat="42.49925" lon="2.07504">
        <ele>1602</ele>
        <time>2023-07-18T09:23:05.000Z</time>
      </trkpt>
      <trkpt lat="42.49929" lon="2.07513">
        <ele>1603</ele>
        <time>2023-07-18T09:23:11.000Z</time>
      </trkpt>
      <trkpt lat="42.4993" lon="2.07514">
        <ele>1603.1999511719</ele>
        <time>2023-07-18T09:23:12.000Z</time>
      </trkpt>
      <trkpt lat="42.49935" lon="2.07524">
        <ele>1604.4000244141</ele>
        <time>2023-07-18T09:23:21.000Z</time>
      </trkpt>
      <trkpt lat="42.4994" lon="2.07534">
        <ele>1605.5999755859</ele>
        <time>2023-07-18T09:23:28.000Z</time>
      </trkpt>
      <trkpt lat="42.49942" lon="2.07538">
        <ele>1606.1999511719</ele>
        <time>2023-07-18T09:23:31.000Z</time>
      </trkpt>
      <trkpt lat="42.49944" lon="2.07541">
        <ele>1606.5999755859</ele>
        <time>2023-07-18T09:23:33.000Z</time>
      </trkpt>
      <trkpt lat="42.49947" lon="2.07548">
        <ele>1607.8000488281</ele>
        <time>2023-07-18T09:23:38.000Z</time>
      </trkpt>
      <trkpt lat="42.49953" lon="2.07559">
        <ele>1608.8000488281</ele>
        <time>2023-07-18T09:23:48.000Z</time>
      </trkpt>
      <trkpt lat="42.49954" lon="2.0756">
        <ele>1608.8000488281</ele>
        <time>2023-07-18T09:23:49.000Z</time>
      </trkpt>
      <trkpt lat="42.49959" lon="2.07569">
        <ele>1609.4000244141</ele>
        <time>2023-07-18T09:23:56.000Z</time>
      </trkpt>
      <trkpt lat="42.49967" lon="2.07579">
        <ele>1609.8000488281</ele>
        <time>2023-07-18T09:24:06.000Z</time>
      </trkpt>
      <trkpt lat="42.49983" lon="2.0759">
        <ele>1610</ele>
        <time>2023-07-18T09:24:17.000Z</time>
      </trkpt>
      <trkpt lat="42.49987" lon="2.07596">
        <ele>1610.1999511719</ele>
        <time>2023-07-18T09:24:24.000Z</time>
      </trkpt>
      <trkpt lat="42.49995" lon="2.07607">
        <ele>1610.1999511719</ele>
        <time>2023-07-18T09:24:33.000Z</time>
      </trkpt>
      <trkpt lat="42.50007" lon="2.07619">
        <ele>1610.8000488281</ele>
        <time>2023-07-18T09:24:44.000Z</time>
      </trkpt>
      <trkpt lat="42.50008" lon="2.0762">
        <ele>1610.8000488281</ele>
        <time>2023-07-18T09:24:45.000Z</time>
      </trkpt>
      <trkpt lat="42.50013" lon="2.07626">
        <ele>1611.1999511719</ele>
        <time>2023-07-18T09:24:51.000Z</time>
      </trkpt>
      <trkpt lat="42.50023" lon="2.07642">
        <ele>1611.4000244141</ele>
        <time>2023-07-18T09:25:03.000Z</time>
      </trkpt>
      <trkpt lat="42.50031" lon="2.07655">
        <ele>1611.4000244141</ele>
        <time>2023-07-18T09:25:12.000Z</time>
      </trkpt>
      <trkpt lat="42.50033" lon="2.07661">
        <ele>1611.5999755859</ele>
        <time>2023-07-18T09:25:19.000Z</time>
      </trkpt>
      <trkpt lat="42.50036" lon="2.07673">
        <ele>1611.8000488281</ele>
        <time>2023-07-18T09:25:26.000Z</time>
      </trkpt>
      <trkpt lat="42.50036" lon="2.07674">
        <ele>1611.8000488281</ele>
        <time>2023-07-18T09:25:27.000Z</time>
      </trkpt>
      <trkpt lat="42.50042" lon="2.07685">
        <ele>1612.1999511719</ele>
        <time>2023-07-18T09:25:35.000Z</time>
      </trkpt>
      <trkpt lat="42.50051" lon="2.07701">
        <ele>1611.8000488281</ele>
        <time>2023-07-18T09:25:45.000Z</time>
      </trkpt>
      <trkpt lat="42.50061" lon="2.07714">
        <ele>1611.5999755859</ele>
        <time>2023-07-18T09:25:56.000Z</time>
      </trkpt>
      <trkpt lat="42.50069" lon="2.07721">
        <ele>1611.4000244141</ele>
        <time>2023-07-18T09:26:04.000Z</time>
      </trkpt>
      <trkpt lat="42.50079" lon="2.07728">
        <ele>1612.1999511719</ele>
        <time>2023-07-18T09:26:14.000Z</time>
      </trkpt>
      <trkpt lat="42.50083" lon="2.07733">
        <ele>1612.1999511719</ele>
        <time>2023-07-18T09:26:20.000Z</time>
      </trkpt>
      <trkpt lat="42.50091" lon="2.07734">
        <ele>1612.4000244141</ele>
        <time>2023-07-18T09:26:28.000Z</time>
      </trkpt>
      <trkpt lat="42.50106" lon="2.07735">
        <ele>1612.4000244141</ele>
        <time>2023-07-18T09:26:39.000Z</time>
      </trkpt>
      <trkpt lat="42.50113" lon="2.07737">
        <ele>1611.8000488281</ele>
        <time>2023-07-18T09:26:48.000Z</time>
      </trkpt>
      <trkpt lat="42.50117" lon="2.07738">
        <ele>1612.8000488281</ele>
        <time>2023-07-18T09:26:53.000Z</time>
      </trkpt>
      <trkpt lat="42.50118" lon="2.07738">
        <ele>1613.1999511719</ele>
        <time>2023-07-18T09:26:54.000Z</time>
      </trkpt>
      <trkpt lat="42.50131" lon="2.07741">
        <ele>1613.1999511719</ele>
        <time>2023-07-18T09:27:03.000Z</time>
      </trkpt>
      <trkpt lat="42.50138" lon="2.07742">
        <ele>1613.1999511719</ele>
        <time>2023-07-18T09:27:09.000Z</time>
      </trkpt>
      <trkpt lat="42.50147" lon="2.07744">
        <ele>1612.5999755859</ele>
        <time>2023-07-18T09:27:16.000Z</time>
      </trkpt>
      <trkpt lat="42.50152" lon="2.07746">
        <ele>1612.5999755859</ele>
        <time>2023-07-18T09:27:21.000Z</time>
      </trkpt>
      <trkpt lat="42.50158" lon="2.07756">
        <ele>1612.4000244141</ele>
        <time>2023-07-18T09:27:29.000Z</time>
      </trkpt>
      <trkpt lat="42.50164" lon="2.0776">
        <ele>1612.1999511719</ele>
        <time>2023-07-18T09:27:35.000Z</time>
      </trkpt>
      <trkpt lat="42.50172" lon="2.07761">
        <ele>1612</ele>
        <time>2023-07-18T09:27:43.000Z</time>
      </trkpt>
      <trkpt lat="42.5018" lon="2.07766">
        <ele>1612.1999511719</ele>
        <time>2023-07-18T09:27:49.000Z</time>
      </trkpt>
      <trkpt lat="42.50191" lon="2.07773">
        <ele>1612.4000244141</ele>
        <time>2023-07-18T09:27:57.000Z</time>
      </trkpt>
      <trkpt lat="42.50198" lon="2.07779">
        <ele>1612.4000244141</ele>
        <time>2023-07-18T09:28:04.000Z</time>
      </trkpt>
      <trkpt lat="42.50204" lon="2.07785">
        <ele>1612</ele>
        <time>2023-07-18T09:28:12.000Z</time>
      </trkpt>
      <trkpt lat="42.50205" lon="2.07786">
        <ele>1611.8000488281</ele>
        <time>2023-07-18T09:28:13.000Z</time>
      </trkpt>
      <trkpt lat="42.50209" lon="2.07789">
        <ele>1611.4000244141</ele>
        <time>2023-07-18T09:28:18.000Z</time>
      </trkpt>
      <trkpt lat="42.50217" lon="2.07792">
        <ele>1611.8000488281</ele>
        <time>2023-07-18T09:28:24.000Z</time>
      </trkpt>
      <trkpt lat="42.50225" lon="2.07793">
        <ele>1611.8000488281</ele>
        <time>2023-07-18T09:28:30.000Z</time>
      </trkpt>
      <trkpt lat="42.50234" lon="2.07799">
        <ele>1612</ele>
        <time>2023-07-18T09:28:37.000Z</time>
      </trkpt>
      <trkpt lat="42.50242" lon="2.07802">
        <ele>1611.5999755859</ele>
        <time>2023-07-18T09:28:44.000Z</time>
      </trkpt>
      <trkpt lat="42.50246" lon="2.07805">
        <ele>1610.8000488281</ele>
        <time>2023-07-18T09:28:48.000Z</time>
      </trkpt>
      <trkpt lat="42.50249" lon="2.07807">
        <ele>1610.4000244141</ele>
        <time>2023-07-18T09:28:51.000Z</time>
      </trkpt>
      <trkpt lat="42.5026" lon="2.07808">
        <ele>1609</ele>
        <time>2023-07-18T09:29:03.000Z</time>
      </trkpt>
      <trkpt lat="42.50268" lon="2.07806">
        <ele>1609.4000244141</ele>
        <time>2023-07-18T09:29:11.000Z</time>
      </trkpt>
      <trkpt lat="42.50273" lon="2.078">
        <ele>1610.4000244141</ele>
        <time>2023-07-18T09:29:18.000Z</time>
      </trkpt>
      <trkpt lat="42.50274" lon="2.07799">
        <ele>1610.5999755859</ele>
        <time>2023-07-18T09:29:19.000Z</time>
      </trkpt>
      <trkpt lat="42.50272" lon="2.07797">
        <ele>1611</ele>
        <time>2023-07-18T09:29:23.000Z</time>
      </trkpt>
      <trkpt lat="42.50272" lon="2.07796">
        <ele>1611</ele>
        <time>2023-07-18T09:29:24.000Z</time>
      </trkpt>
      <trkpt lat="42.50272" lon="2.07796">
        <ele>1611.1999511719</ele>
        <time>2023-07-18T09:29:25.000Z</time>
      </trkpt>
      <trkpt lat="42.50275" lon="2.07791">
        <ele>1611.5999755859</ele>
        <time>2023-07-18T09:29:28.000Z</time>
      </trkpt>
      <trkpt lat="42.50275" lon="2.07789">
        <ele>1611.8000488281</ele>
        <time>2023-07-18T09:29:29.000Z</time>
      </trkpt>
      <trkpt lat="42.50279" lon="2.07781">
        <ele>1612.1999511719</ele>
        <time>2023-07-18T09:29:35.000Z</time>
      </trkpt>
    </trkseg>
  </trk>
</gpx>